     2              OBSERVATION DATA    GPS                 RINEX VERSION / TYPE
ASRINEXO V2.4.4 UX USGS 09-FEB-95 12:21                     PGM / RUN BY / DATE
                                                            COMMENT
Original Marker Name: sanh Sand_Hill_1939_1981_USC&GS       COMMENT
Campaign Name: usgs.landers.profile                         COMMENT
4-Character Station Name: SANH                              COMMENT
6-Character Antenna Code: ASHL12                            COMMENT
Vertical Measurement Point: BBE                             COMMENT
Vertical Offset to Rinex Ref. Point: 0.0595                 COMMENT
Radial Measurement Point: EGP                               COMMENT
Radial Offset to Rinex Ref. Point: 0.1424                   COMMENT
Antenna Height from Field Measurement: 1.3790 m             COMMENT
Additional Antenna Identification Info.:                    COMMENT
Original Ashtech L1/L2                                      COMMENT
Original XYZ: -2336684.5600 -4732317.1100 3570143.7400      COMMENT
New XYZ position is based on association with SCEC monument COMMENT
E1F2G8K4+0012. Position of that monument is believed to be  COMMENT
valid to within 1 m horizontally; vertical accuracy         COMMENT
should be no worse than 3-times this value.                 COMMENT
                                                            COMMENT
Revised Rinex header created by UCSD GPS archive for        COMMENT
GSAC on 11-Nov-1999 (1999:315) 15:41:27 GMT                 COMMENT
For assistance contact dagnew@ucsd.edu or hjohnson@ucsd.edu COMMENT
                                                            COMMENT
SANH SAND_HILL_1939_1981_USC&GS                             MARKER NAME
GDH US GEOLOGICAL SURVEY                                    OBSERVER / AGENCY
579 ASHTECH Z-XII3 1E00                                     REC # / TYPE / VERS
718 ASHTECH GEODETIC L                                      ANT # / TYPE
 -2336820.0000 -4732587.0000  3570330.0000                  APPROX POSITION XYZ
        1.3121        0.0000        0.0000                  ANTENNA: DELTA H/E/N
     1     1     0                                          WAVELENGTH FACT L1/2
     5    C1    L1    L2    P1    P2                        # / TYPES OF OBSERV
    30                                                      INTERVAL
  1995     2     5    15    47   30.000000                  TIME OF FIRST OBS
  1995     2     5    22    30   30.000000                  TIME OF LAST OBS
                                                            END OF HEADER
 95  2  5 15 47 30.0000000  0  7 21 20  1 29 25 14 15
  21823028.336       48531.65619
  23138617.611      -10073.54919
  21375161.541       42650.68719
  23348017.836      -18140.58719
  19294471.982       -9140.97419     -5290.37759                  19294480.1304
  22032403.119      -40276.86219
  19607873.907      -15660.79259     -9111.21359  19607874.7844   19607884.5044
 95  2  5 15 48  0.0000000  0  7 21 20  1 29 25 14 15
  21836740.792      120598.21759     83198.19159  21836743.4234   21836750.2474
  23135576.046      -26062.13359    -18216.32659  23135579.3564   23135587.9064
  21386820.884      103924.26959     61118.69359  21386823.0044   21386831.4014
  23332261.353     -100936.032 9
  19291679.775      -23810.38659    -16721.06049  19291681.4964   19291688.3514
  22014200.768     -135930.64259    -80227.01959  22014200.9824   22014211.7344
  19604437.727      -33717.09949    -23181.03449  19604439.0534   19604446.8744
 95  2  5 15 48 30.0000000  0  7 21 20  1 29 25 14 15
  23349220.559      191629.20849    138546.95849  23349221.7504   23349230.0724
  24631356.290      -42793.87749    -31254.03549  24631357.4434   24631367.3584
  22897212.831      163989.28749    107922.59449  22897214.6014   22897222.8594
  24815257.947     -184853.89959   -134821.45059  24815255.6454   24815263.4674
  20787717.513      -39181.96249    -28698.91049  20787718.6464   20787725.2734
  23494725.788     -232817.78449   -155723.47449  23494726.9704   23494735.6994
  21099844.191      -52405.43449    -37743.37849  21099844.8954   21099852.7164
 95  2  5 15 49  0.0000000  0  7 21 20  1 29 25 14 15
  23362534.947      261603.74849    193072.51149  23362537.6934   23362546.0684
  24628018.870      -60311.10449    -44903.81749  24628023.9864   24628033.9074
  22908406.741      222811.62949    153758.14149  22908408.0964   22908416.4954
  24799058.799     -269949.75349   -201129.87749  24799062.1504   24799070.6504
  20784651.870      -55292.66349    -41252.70749  20784652.6004   20784659.1714
  23476041.925     -331006.19149   -232233.91549  23476042.4254   23476051.2164
  21096159.324      -71769.51249    -52832.27649  21096160.1244   21096168.0144
 95  2  5 15 49 30.0000000  0  7 21 20  1 29 25 14 15
  23375658.559      330562.94949    246806.90549  23375659.9464   23375668.5144
  24624549.882      -78572.61749    -59133.59649  24624549.5434   24624558.7654
  22919369.042      280415.22949    198644.04649  22919369.8034   22919378.2814
  24782650.237     -356178.61049   -268321.18649  24782654.1324   24782661.6484
  20781454.706      -72092.14049    -54343.20549  20781456.0564   20781462.8084
  23457119.555     -430437.59049   -309712.91349  23457121.2614   23457129.9544
  21092354.312      -91760.84449    -68409.94349  21092355.9944   21092363.9154
 95  2  5 15 50  0.0000000  0  7 21 20  1 29 25 14 15
  23388600.503      398564.78149    299795.27449  23388600.4174   23388609.1414
  24620941.613      -97528.59749    -73904.49349  24620942.0984   24620952.0564
  22930106.475      336839.84949    242611.24849  22930107.1654   22930115.8154
  24766032.287     -443507.17749   -336369.40649  24766035.1454   24766043.3134
  20778131.232      -89554.12549    -67949.95049  20778133.1634   20778139.7754
  23437966.782     -531086.21149   -388140.40649  23437968.3804   23437977.0314
  21088438.113     -112342.15149    -84447.33449  21088439.5174   21088447.3434
 95  2  5 15 50 30.0000000  0  7 21 20  1 29 25 14 15
  23401373.014      465695.32349    352104.73649  23401375.0694   23401383.5084
  24617213.838     -117102.69149    -89157.04649  24617217.0904   24617227.0114
  22940633.938      392165.05949    285721.77349  22940635.2884   22940643.6934
  24749221.274     -531850.14849   -405208.09049  24749224.2254   24749231.9394
  20774698.709     -107597.76549    -82009.93049  20774699.5494   20774706.2194
  23418599.821     -632863.53149   -467447.39749  23418600.9174   23418609.5904
  21084425.365     -133431.41449   -100880.53549  21084426.5734   21084434.3464
 95  2  5 15 51  0.0000000  0  7 21 20  1 29 25 14 15
  23414004.392      532083.95449    403836.07949  23414008.2294   23414017.1074
  24613389.357     -137207.67249   -104823.27849  24613391.3644   24613401.1754
  22950973.273      446501.47849    328061.81049  22950975.4094   22950983.8944
  24732237.328     -621104.41449   -474756.85749  24732239.1414   24732248.7614
  20771175.697     -126106.77649    -96432.53249  20771177.4564   20771184.2004
  23399040.964     -735645.05749   -547536.88949  23399042.1784   23399050.8934
  21080338.525     -154911.38949   -117618.18649  21080339.0464   21080346.9114
 95  2  5 15 51 30.0000000  0  7 21 20  1 29 25 14 15
  23426509.618      597783.26949    455030.28049  23426510.5004   23426519.4394
  24609468.655     -157794.50149   -120864.98549  24609474.0224   24609483.3844
  22961136.866      499904.14149    369674.24149  22961137.7184   22961145.9214
  24715087.915     -711243.05549   -544994.77249  24715086.5004   24715094.9754
  20767573.139     -145041.97349   -111187.23449  20767574.0784   20767580.8004
  23379299.860     -839384.08349   -628372.47349  23379301.5664   23379309.8694
  21076185.907     -176734.50049   -134623.22349  21076186.2054   21076194.0314
 95  2  5 15 52  0.0000000  0  7 21 20  1 29 25 14 15
  23438881.931      662798.96449    505691.79049  23438882.6034   23438892.1404
  24605471.605     -178828.15349   -137254.87549  24605471.6214   24605480.9504
  22971126.224      552403.92949    410583.13749  22971128.0514   22971136.2884
  24697772.967     -802225.34449   -615890.04249  24697773.1784   24697781.3894
  20763894.643     -164372.77749   -126250.20849  20763895.8284   20763902.4934
  23359384.665     -944043.29649   -709925.11949  23359385.6434   23359394.3244
  21071973.500     -198870.09749   -151871.75549  21071973.9604   21071981.8794
 95  2  5 15 52 30.0000000  0  7 21 20  1 29 25 14 15
  23451124.454      727123.94349    555815.07449  23451123.4004   23451132.1284
  24601382.305     -200306.81449   -153991.50949  24601383.9804   24601393.9634
  22980944.071      603990.63149    450780.52649  22980944.7544   22980953.0364
  24680297.876     -894037.37449   -687431.89549  24680301.7404   24680310.9524
  20760142.227     -184090.04649   -141614.32149  20760143.7364   20760150.4024
  23339294.964    -1049604.69249   -792180.74549  23339297.6704   23339306.4454
  21067703.614     -221306.46949   -169354.66249  21067704.4784   21067712.3604
 95  2  5 15 53  0.0000000  0  7 21 20  1 29 25 14 15
  23463232.789      790767.80649    605407.62449  23463234.6434   23463243.7254
  24597216.971     -222204.39249   -171054.57749  24597217.4314   24597227.0524
  22990591.068      654691.51249    490287.67849  22990592.7124   22990601.1794
  24662686.183     -986656.31849   -759602.52549  24662676.5374   24662684.3244
  20756319.140     -204181.30449   -157269.85249  20756320.4614   20756327.1184
  23319042.240    -1156039.41049   -875116.87649  23319043.7274   23319052.6944
  21063381.047     -244024.20449   -187056.80749  21063381.5934   21063389.5004
 95  2  5 15 53 30.0000000  0  7 21 20  1 29 25 14 15
  23475219.537      853759.78849    654492.21249  23475221.5174   23475230.6214
  24592988.241     -244432.58249   -188375.25849  24592987.6234   24592996.9594
  23000086.426      704584.85949    529165.57449  23000087.0264   23000095.3734
  24644908.927    -1080016.22149   -832350.51049  24644912.4084   24644918.6494
  20752434.489     -224592.69349   -173174.83449  20752436.1324   20752442.8424
  23298635.082    -1263280.65749   -958681.47649  23298636.4524   23298645.3664
  21059014.692     -266967.99749   -204935.10049  21059015.6154   21059023.5834
 95  2  5 15 54  0.0000000  0  7 21 20  1 29 25 14 15
  23487093.514      916156.65549    703113.08149  23487095.1364   23487104.4534
  24588704.556     -266929.95949   -205905.68649  24588706.0864   24588716.0554
  23009436.029      753719.37049    567452.17349  23009437.0774   23009445.5694
  24627012.871    -1174035.55049   -905612.34849  24627020.5954   24627027.7614
  20748499.543     -245270.12749   -189287.12749  20748501.5624   20748508.3084
  23278084.321    -1371269.52949  -1042828.64249  23278086.6464   23278095.8124
  21054615.247     -290082.90949   -222946.73249  21054617.1404   21054624.9084
 95  2  5 15 54 30.0000000  0  7 21 20  1 29 25 14 15
  23498862.497      977992.94349    751297.13049  23498862.4354   23498871.5354
  24584375.384     -289690.69149   -223641.33549  24584375.1524   24584384.7884
  23018645.718      802116.59749    605164.26549  23018647.0224   23018655.3084
  24609000.817    -1268716.25449   -979389.52449  24609002.6854   24609011.1624
  20744513.120     -266220.25449   -205611.90649  20744514.8244   20744521.6104
  23257393.758    -1480004.23749  -1127556.97549  23257395.3014   23257404.4894
  21050186.099     -313363.98049   -241087.83949  21050186.7974   21050194.7174
 95  2  5 15 55  0.0000000  0  7 21 20  1 29 25 14 15
  23510532.417     1039326.30949    799089.30049  23510533.8654   23510542.8144
  24580000.292     -312676.65849   -241552.48949  24580001.3114   24580010.4644
  23027725.405      849838.46749    642350.10349  23027727.9334   23027736.2914
  24590866.195    -1364023.42249  -1053654.86349  24590867.6644   24590873.7874
  20740483.262     -287396.42749   -222112.82449  20740485.1924   20740491.9094
  23236569.559    -1589443.43249  -1212834.26249  23236569.3434   23236578.7394
  21045731.248     -336769.23649   -259325.71449  21045732.9084   21045740.8624
 95  2  5 15 55 30.0000000  0  7 21 20  1 29 25 14 15
  23522121.659     1100224.46549    846542.34549  23522122.7604   23522131.6364
  24575592.421     -335841.27249   -259602.84349  24575593.2834   24575602.2504
  23036688.098      896928.65549    679043.72549  23036689.0454   23036697.5244
  24572621.744    -1459904.44349  -1128367.35749  24572622.0184   24572628.8304
  20736422.261     -308739.57349   -238743.85249  20736423.7644   20736430.5004
  23215617.071    -1699538.17949  -1298622.36049  23215618.9494   23215628.1144
  21041264.277     -360244.80549   -277618.37849  21041265.6374   21041273.6534
 95  2  5 15 56  0.0000000  0  7 21 20  1 29 25 14 15
  23533631.029     1160713.83349    893676.85349  23533633.6584   23533642.2884
  24571151.762     -359198.69849   -277803.45149  24571148.6514   24571157.9144
  23045525.528      943379.29749    715238.99849  23045528.3224   23045536.7884
  24554262.343    -1556363.14049  -1203529.97049  24554265.7904   24554274.1434
  20732332.837     -330233.04149   -255492.01649  20732333.8144   20732340.5204
  23194543.744    -1810280.45049  -1384915.03349  23194545.8214   23194554.4414
  21036785.299     -383781.82949   -295958.93349  21036786.7944   21036794.7144
 95  2  5 15 56 30.0000000  0  7 21 20  1 29 25 14 15
  23545063.286     1220808.38449    940503.71549  23545069.0894   23545077.9264
  24566666.900     -382724.07549   -296134.90049  24566671.4984   24566680.4764
  23054250.411      989221.98749    750960.54149  23054251.9544   23054260.2254
  24535792.857    -1653397.87749  -1279141.44449  24535800.3954   24535808.7404
  20728219.704     -351845.75349   -272333.09749  20728221.0604   20728227.8004
  23173356.772    -1921632.23549  -1471682.65149  23173356.4834   23173364.8624
  21032300.698     -407354.08749   -314326.94349  21032301.1174   21032309.0964
 95  2  5 15 57  0.0000000  0  7 21 20  1 29 25 14 15
  23556432.510     1280531.85549    987041.42949  23556433.8724   23556442.7274
  24562169.950     -406364.58949   -314556.12249  24562172.6114   24562182.2904
  23062864.776     1034487.51249    786232.34649  23062865.8254   23062874.1684
  24517233.881    -1750953.65549  -1355158.92449  24517236.8024   24517244.9434
  20724097.141     -373508.48949   -289213.15649  20724098.7554   20724105.5014
  23152062.214    -2033528.03149  -1558874.17849  23152063.1234   23152071.5944
  21027818.373     -430909.01249   -332681.44349  21027818.8924   21027826.6904
 95  2  5 15 57 30.0000000  0  7 21 20  1 29 25 14 15
  23567725.976     1339874.07249   1033282.06149  23567726.6634   23567735.4644
  24557654.229     -430110.92649   -333059.77549  24557654.5284   24557663.7014
  23071366.252     1079166.93149    821047.44649  23071367.9514   23071376.3774
  24498576.398    -1849022.99249  -1431576.57649  24498574.9864   24498582.2794
  20719966.775     -395215.68949   -306127.85849  20719968.0564   20719974.8654
  23130665.890    -2145964.16049  -1646486.73949  23130667.6574   23130675.8564
  21023338.709     -454440.71849   -351017.84849  21023340.9034   21023348.7234
 95  2  5 15 58  0.0000000  0  7 21 20  1 29 25 14 15
  23578947.441     1398851.94249   1079238.77249  23578949.8584   23578958.7134
  24553120.043     -453920.69349   -351612.86149  24553122.9344   24553132.6604
  23079765.083     1123298.54949    855435.68649  23079765.9804   23079774.4094
  24479816.732    -1947568.88449  -1508365.56649  24479822.2734   24479830.7254
  20715831.299     -416944.41749   -323059.34049  20715833.0854   20715839.8864
  23109175.547    -2258900.51049  -1734489.08049  23109176.8794   23109184.7754
  21018873.194     -477914.84849   -369309.39449  21018873.9404   21018881.5584
 95  2  5 15 58 30.0000000  0  7 21 20  1 29 25 14 15
  23590105.029     1457480.79049   1124923.52949  23590106.2764   23590115.5364
  24548585.980     -477767.44949   -370194.75849  24548584.9864   24548594.8654
  23088058.720     1166889.73549    889402.81049  23088061.5074   23088069.6994
  24460981.905    -2046562.28949  -1585503.28349  24460984.0424   24460992.2924
  20711692.835     -438694.72449   -340007.63749  20711694.2654   20711701.1844
  23087589.846    -2372329.81149  -1822875.54549  23087592.1024   23087599.9254
  21014419.142     -501319.09049   -387546.48049  21014420.3354   21014428.0264
 95  2  5 15 59  0.0000000  0  7 21 20  1 29 25 14 15
  23601202.061     1515799.30649   1170366.46349  23601204.3014   23601213.4054
  24544044.995     -501625.38349   -388785.38249  24544045.4044   24544054.8054
  23096254.754     1209948.51949    922955.08049  23096255.3314   23096263.3694
  24442065.158    -2145961.80549  -1662957.44549  24442069.5234   24442078.5114
  20707551.950     -460455.39449   -356964.00549  20707553.4324   20707560.2864
  23065911.704    -2486254.06749  -1911647.68949  23065912.9984   23065920.5894
  21009982.194     -524633.85349   -405713.83849  21009983.6954   21009991.2764
 95  2  5 15 59 30.0000000  0  7 21 20  1 29 25 14 15
  23612248.697     1573843.02249   1215595.27549  23612249.7404   23612258.9354
  24539507.651     -525466.39649   -407362.80749  24539508.5844   24539518.5014
  23104351.358     1252506.49149    956117.09949  23104353.8984   23104361.8614
  24423077.720    -2245748.68749  -1740713.45449  24423080.6914   24423088.2764
  20703410.576     -482219.10249   -373922.74749  20703411.9694   20703418.6744
  23044139.644    -2600665.29249  -2000799.29149  23044141.3374   23044148.9984
  21005566.570     -547839.36649   -423796.07049  21005567.8124   21005575.4824
 95  2  5 16  0  0.0000000  0  7 21 20  1 29 25 14 15
  23623244.789     1631625.76149   1260620.72649  23623245.5644   23623254.7684
  24534981.329     -549273.55249   -425913.86249  24534977.9564   24534988.3314
  23112357.410     1294574.34849    988897.21649  23112359.1294   23112367.3114
  24404017.850    -2345918.04249  -1818767.49249  24404019.3484   24404027.2894
  20699270.646     -503975.38049   -390875.69949  20699271.8654   20699278.5824
  23022279.055    -2715542.55549  -2090314.03949  23022280.7854   23022288.6734
  21001172.604     -570928.15449   -441787.34949  21001174.1864   21001182.0004
 95  2  5 16  0 30.0000000  0  7 21 20  1 29 25 14 15
  23634193.059     1689164.54649   1305456.09449  23634195.0074   23634203.9714
  24530452.609     -573044.08849   -444436.37949  24530454.7904   24530464.3744
  23120270.021     1336154.44149   1021297.25349  23120271.7544   23120279.7374
  24384880.403    -2446466.95349  -1897117.30049  24384884.9594   24384893.3244
  20695135.975     -525706.09849   -407808.73449  20695136.7114   20695143.3114
  23000328.758    -2830891.47849  -2180196.31749  23000330.4714   23000338.3594
  20996803.570     -593892.13049   -459681.37249  20996804.4344   20996812.2024
 95  2  5 16  1  0.0000000  0  7 21 20  1 29 25 14 15
  23645102.937     1746488.05349   1350123.70149  23645103.4664   23645112.4574
  24525942.562     -596754.32949   -462911.92149  24525943.1704   24525952.7794
  23128101.383     1377307.74049   1053364.72549  23128102.9224   23128110.8884
  24365682.462    -2547367.69349  -1975741.26549  24365684.7874   24365692.4424
  20691013.702     -547363.99549   -424685.02649  20691015.4614   20691021.9744
  22978297.489    -2946667.34749  -2270411.28349  22978299.0214   22978307.0384
  20992464.635     -616689.54949   -477445.61049  20992466.1874   20992474.0114
 95  2  5 16  1 30.0000000  0  7 21 20  1 29 25 14 15
  23655966.973     1803586.96549   1394616.30649  23655969.0074   23655977.6874
  24521439.383     -620413.92949   -481347.99849  24521440.8504   24521450.4334
  23135853.756     1418046.86849   1085109.46549  23135855.5044   23135863.5514
  24346412.148    -2648638.42649  -2054653.54249  24346413.4464   24346420.9734
  20686908.296     -568940.11149   -441497.59249  20686909.6654   20686916.2294
  22956190.515    -3062839.60349  -2360935.11849  22956192.1064   22956200.3684
  20988158.979     -639316.63449   -495077.11949  20988160.4254   20988168.2374
 95  2  5 16  2  0.0000000  0  7 21 20  1 29 25 14 15
  23666790.219     1860462.25549   1438934.66949  23666792.0154   23666800.7184
  24516942.780     -644034.47049   -499753.64149  24516945.8464   24516956.1344
  23143525.882     1458365.75849   1116526.74549  23143528.0694   23143535.8224
  24327070.165    -2750279.30149  -2133854.23449  24327071.2514   24327079.6824
  20682817.680     -590435.72049   -458247.42349  20682819.1914   20682825.7714
  22934008.510    -3179404.74149  -2451765.09849  22934010.4314   22934018.9864
  20983884.632     -661776.24549   -512578.13249  20983886.5504   20983894.4144
 95  2  5 16  2 30.0000000  0  7 21 20  1 29 25 14 15
  23677574.359     1917121.10349   1483084.36149  23677573.7484   23677583.0714
  24512454.916     -667616.97149   -518129.64049  24512458.7394   24512468.6004
  23151121.624     1498278.78249   1147627.76749  23151123.2394   23151131.2304
  24307657.582    -2852288.84349  -2213342.19549  24307659.7994   24307668.1544
  20678743.841     -611845.80749   -474930.61549  20678744.8224   20678751.3834
  22911753.871    -3296358.43049  -2542897.84449  22911754.9584   22911763.4684
  20979644.165     -684061.51749   -529943.29549  20979645.7154   20979653.7004
 95  2  5 16  3  0.0000000  0  7 21 20  1 29 25 14 15
  23688312.975     1973571.60049   1527071.70249  23688315.8774   23688325.1924
  24507977.944     -691141.01049   -536460.08149  24507981.8714   24507991.8644
  23158641.938     1537798.19849   1178422.07749  23158643.2674   23158651.6514
  24288176.981    -2954651.12949  -2293105.01749  24288180.9664   24288189.1594
  20674687.933     -633157.15849   -491536.87249  20674689.4184   20674695.9604
  22889431.684    -3413655.60849  -2634298.24349  22889433.7964   22889442.6114
  20975440.981     -706155.09849   -547159.08749  20975441.3774   20975449.5334
 95  2  5 16  3 30.0000000  0  7 21 20  1 29 25 14 15
  23699023.986     2029847.07449   1570922.66049  23699024.8004   23699034.0234
  24503529.362     -714551.26049   -554701.85949  24503527.1644   24503537.5364
  23166090.342     1576943.12849   1208924.58049  23166092.4004   23166100.7414
  24268644.371    -3057315.09349  -2373102.91049  24268644.6154   24268653.1674
  20670657.225     -654337.08049   -508040.71849  20670659.0264   20670665.5884
  22867053.130    -3531261.84949  -2725939.47349  22867054.2674   22867062.9274
  20971279.402     -728020.33149   -564196.95049  20971280.5654   20971288.7574
 95  2  5 16  4  0.0000000  0  7 21 20  1 29 25 14 15
  23709705.643     2085978.90749   1614661.69149  23709706.1184   23709715.2674
  24499101.478     -737804.72649   -572821.46349  24499102.4574   24499111.9614
  23173473.919     1615744.54649   1239159.41349  23173475.9484   23173484.5094
  24249064.075    -3160231.97649  -2453297.86749  24249060.2404   24249068.6784
  20666656.779     -675361.75749   -524423.59349  20666658.2864   20666664.8824
  22844618.334    -3649157.43149  -2817806.17149  22844619.5084   22844627.9534
  20967166.292     -749629.91849   -581035.60949  20967168.4694   20967176.4854
 95  2  5 16  4 30.0000000  0  7 21 20  1 29 25 14 15
  23720353.082     2141943.99449   1658270.79149  23720356.0014   23720365.6684
  24494704.785     -760906.38949   -590822.78549  24494705.5344   24494716.4394
  23180792.187     1654192.01549   1269118.44049  23180792.2814   23180801.0194
  24229421.921    -3263411.82249  -2533697.73849  24229426.1274   24229434.1154
  20662683.493     -696242.29149   -540694.14649  20662684.8224   20662691.5014
  22822127.012    -3767345.27949  -2909900.59449  22822129.0624   22822137.7174
  20963100.798     -770993.99749   -597682.96149  20963103.1234   20963111.1684
 95  2  5 16  5  0.0000000  0  8 21 20  1 22 29 25 14 15
  23730967.051     2197705.01849   1701720.88749  23730967.0784   23730976.4384
  24490330.133     -783896.11049   -608736.88049  24490331.6394   24490341.6034
  23188031.052     1692237.24949   1298764.03549  23188032.0944   23188041.2114
  24524390.200    -3840026.61359  -2975957.19459  24524391.9614   24524401.5494
  24209736.552    -3366879.54749  -2614321.92849  24209736.6864   24209745.2054
  20658727.595     -717028.63549   -556891.30549  20658729.4024   20658736.1044
  22799572.750    -3885870.38549  -3002257.82049  22799574.5194   22799583.2964
  20959074.831     -792155.14749   -614172.18449  20959076.3554   20959084.2654
 95  2  5 16  5 30.0000000  0  8 21 20  1 22 29 25 14 15
  23741540.750     2253288.65649   1745032.75149  23741544.4654   23741553.3694
  24485972.742     -806757.28349   -626550.80649  24485981.3974   24485991.2634
  23195199.476     1729907.64149   1328117.54449  23195200.3934   23195209.5734
  24500425.813    -3965960.76749  -3074087.61049  24500427.0264   24500436.7974
  24189997.897    -3470613.05149  -2695153.20649  24189997.1454   24190005.0344
  20654792.309     -737709.05949   -573005.92949  20654793.9914   20654800.6724
  22776954.292    -4004732.21249  -3094877.43149  22776955.9844   22776964.5094
  20955089.252     -813100.53549   -630493.27849  20955090.5814   20955098.4724
 95  2  5 16  6  0.0000000  0  8 21 20  1 22 29 25 14 15
  23752093.111     2308720.75449   1788226.52549  23752092.7714   23752102.3194
  24481656.297     -829471.97849   -644250.60549  24481659.1824   24481668.3804
  23202301.173     1767233.03949   1357202.22749  23202303.0074   23202312.3154
  24476374.068    -4092353.74249  -3172575.55149  24476375.1294   24476384.6154
  24170206.353    -3574607.50949  -2776187.82349  24170207.1964   24170215.8174
  20650882.370     -758254.94149   -589015.71849  20650884.3354   20650890.9274
  22754277.553    -4123902.34249  -3187737.27749  22754278.7064   22754287.1774
  20951148.039     -833810.45549   -646630.89449  20951149.6284   20951157.4424
 95  2  5 16  6 30.0000000  0  8 21 20  1 22 29 25 14 15
  23762612.788     2364015.17249   1831313.01249  23762614.9864   23762624.0544
  24477364.016     -852035.82949   -661832.85849  24477365.5154   24477375.1884
  23209339.762     1804220.77049   1386023.78549  23209341.5024   23209350.9114
  24452239.974    -4219175.87549  -3271397.90849  24452242.4204   24452251.4364
  24150369.594    -3678853.17449  -2857418.19449  24150369.9074   24150378.1704
  20647001.972     -778647.03849   -604905.67249  20647003.8664   20647010.4104
  22731542.762    -4243372.03549  -3280830.54649  22731544.3894   22731552.6874
  20947255.269     -854266.06849   -662570.35049  20947256.9934   20947264.8784
 95  2  5 16  7  0.0000000  0  8 21 20  1 22 29 25 14 15
  23773114.417     2419201.50449   1874315.26849  23773116.3994   23773126.4204
  24473100.571     -874430.40549   -679283.21649  24473103.5154   24473113.5154
  23216316.290     1840880.26149   1414589.57249  23216317.4844   23216326.9624
  24428032.880    -4346406.06849  -3370538.24849  24428031.3864   24428040.0694
  24130485.518    -3783321.17749  -2938821.80349  24130490.0034   24130498.1164
  20643154.580     -798863.76849   -620658.97649  20643156.7934   20643163.3304
  22708753.434    -4363129.76049  -3374148.25449  22708755.3164   22708763.4924
  20943414.928     -874452.61249   -678300.13549  20943415.5614   20943423.5424
 95  2  5 16  7 30.0000000  0  8 21 20  1 22 29 25 14 15
  23783600.758     2474298.32049   1917247.77849  23783601.5154   23783611.3734
  24468882.776     -896627.15349   -696579.41449  24468879.8244   24468889.3734
  23223234.914     1877239.32549   1442921.26249  23223236.4724   23223245.7054
  24403742.460    -4474010.83649  -3469970.48549  24403748.4624   24403757.6154
  24110566.489    -3887995.87049  -3020386.46549  24110571.2504   24110579.0734
  20639347.623     -818869.56049   -636247.91449  20639349.8284   20639356.3774
  22685914.162    -4483154.30949  -3467673.87949  22685915.3074   22685923.4834
  20939628.952     -894347.85049   -693802.93149  20939629.8564   20939637.5004
 95  2  5 16  8  0.0000000  0  8 21 20  1 22 29 25 14 15
  23794066.516     2529300.35149   1960106.42449  23794068.0674   23794077.2754
  24464690.388     -918627.79049   -713722.80049  24464693.8434   24464702.8774
  23230098.586     1913294.10649   1471015.84549  23230097.6414   23230106.9694
  24379395.530    -4601983.18249  -3569689.10149  24379396.7724   24379405.4864
  24090614.552    -3992879.32249  -3102113.80349  24090612.3664   24090619.9894
  20635583.849     -838653.52549   -651663.99849  20635585.1754   20635591.7314
  22663024.849    -4603433.03549  -3561397.56349  22663026.9744   22663035.0224
  20935898.769     -913945.48849   -709073.83149  20935900.5474   20935908.1964
 95  2  5 16  8 30.0000000  0  8 21 20  1 22 29 25 14 15
  23804517.763     2584218.98749   2002900.07149  23804518.7774   23804527.8964
  24460547.649     -940417.05149   -730701.46449  24460547.0154   24460556.8244
  23236900.817     1949051.85549   1498878.97849  23236902.3214   23236911.3464
  24354974.359    -4730320.38649  -3669692.09349  24354974.7164   24354983.5304
  24070612.616    -4097944.49049  -3183982.73449  24070619.1964   24070626.6924
  20631861.957     -858210.94849   -666903.55649  20631863.5694   20631870.0184
  22640093.706    -4723939.23249  -3655298.49549  22640095.4924   22640103.4234
  20932229.695     -933229.84049   -724100.61349  20932230.9644   20932238.6734
 95  2  5 16  9  0.0000000  0  8 21 20  1 22 29 25 14 15
  23814952.137     2639056.97449   2045630.89849  23814953.9304   23814963.7474
  24456444.067     -961977.73749   -747502.04149  24456444.1774   24456452.9314
  23243652.231     1984532.58249   1526526.24849  23243654.0824   23243663.0054
  24330482.776    -4859012.92849  -3769971.89149  24330485.0754   24330494.0254
  24050588.783    -4203186.52449  -3265989.47949  24050592.0774   24050599.9314
  20628184.867     -877533.05249   -681959.74549  20628186.5644   20628192.9724
  22617123.507    -4844650.29349  -3749359.06149  22617125.0434   22617132.8864
  20928620.555     -952194.49249   -738878.27749  20928622.0104   20928629.9414
 95  2  5 16  9 30.0000000  0  8 21 20  1 22 29 25 14 15
  23825370.467     2693800.79149   2088288.33349  23825371.5984   23825380.8324
  24452383.006     -983309.15449   -764123.95149  24452385.0614   24452394.3584
  23250353.571     2019746.29649   1553965.45449  23250355.2814   23250364.1034
  24305927.452    -4988050.27649  -3870520.43649  24305929.8384   24305938.7764
  24030526.691    -4308632.47449  -3348155.14349  24030526.1714   24030533.6814
  20624552.309     -896622.16949   -696834.38649  20624554.0354   20624560.5224
  22594116.995    -4965548.52949  -3843565.47749  22594118.8224   22594126.6244
  20925072.929     -970834.71349   -753403.13949  20925074.8754   20925082.9984
 95  2  5 16 10  0.0000000  0  8 21 20  1 22 29 25 14 15
  23835771.466     2748457.42449   2130877.82249  23835772.4194   23835781.8444
  24448370.488    -1004404.82349   -780562.15949  24448370.2664   24448379.3524
  23257003.592     2054684.89449   1581190.28349  23257004.0944   23257012.7494
  24281308.492    -5117433.84249  -3971338.74649  24281309.2364   24281318.1434
  24010422.006    -4414277.73549  -3430476.10149  24010422.9344   24010430.7304
  20620963.343     -915480.74749   -711529.38549  20620965.3944   20620971.8324
  22571079.172    -5086616.71049  -3937904.31449  22571080.3544   22571088.0594
  20921589.206     -989142.30449   -767668.80849  20921591.0504   20921599.2484
 95  2  5 16 10 30.0000000  0  8 21 20  1 22 29 25 14 15
  23846157.843     2803040.92749   2173410.33049  23846159.4354   23846168.6214
  24444404.964    -1025254.75949   -796808.88249  24444402.9874   24444412.4124
  23263601.705     2089352.72949   1608204.12849  23263601.3184   23263609.5384
  24256620.821    -5247159.76849  -4072423.80049  24256622.9604   24256631.7684
  23990278.550    -4520120.18449  -3512950.70649  23990281.6914   23990288.8694
  20617419.093     -934107.21649   -726043.51949  20617420.9064   20617427.4184
  22548006.981    -5207858.65549  -4032378.55549  22548008.6444   22548016.4744
  20918168.836    -1007117.79149   -781675.69449  20918170.5964   20918178.5884
 95  2  5 16 11  0.0000000  0  8 21 20  1 22 29 25 14 15
  23856530.582     2857559.79449   2215892.48449  23856534.2734   23856543.4304
  24440478.214    -1045873.05649   -812875.11049  24440478.8564   24440488.6454
  23270143.982     2123746.59849   1635004.50149  23270146.2494   23270154.4784
  24231871.023    -5377222.53549  -4173771.37449  24231873.0024   24231881.7374
  23970096.358    -4626179.69849  -3595594.46749  23970099.8644   23970106.8964
  20613920.062     -952499.41049   -740375.10349  20613920.8914   20613927.3984
  22524898.811    -5329291.66549  -4127001.67949  22524900.9574   22524908.6124
  20914808.055    -1024772.24949   -795432.42749  20914810.9864   20914819.0714
 95  2  5 16 11 30.0000000  0  8 21 20  1 22 29 25 14 15
  23866898.335     2912038.46349   2258343.32049  23866901.7954   23866910.2424
  24436598.501    -1066243.33249   -828748.08349  24436602.5824   24436612.3524
  23276637.923     2157869.21749   1661593.51649  23276639.4534   23276647.7474
  24207059.088    -5507609.70149  -4275371.70849  24207060.9274   24207069.7624
  23949874.764    -4732441.73749  -3678396.02849  23949878.6834   23949886.5374
  20610466.745     -970642.02249   -754512.20749  20610468.4704   20610475.0224
  22501756.275    -5450905.27549  -4221765.52649  22501758.2874   22501766.2194
  20911513.923    -1042087.75749   -808925.04249  20911516.0784   20911524.0274
 95  2  5 16 11 59.9990000  0  8 21 20  1 22 29 25 14 15
  23877264.700     2966500.11649   2300780.88849  23877264.5484   23877273.4804
  24432776.022    -1086347.06049   -844413.35349  24432776.6654   24432786.4304
  23283086.886     2191746.59549   1687991.42549  23283086.4474   23283094.4964
  24182190.947    -5638291.24049  -4377201.43549  24182193.2424   24182201.6594
  23929624.922    -4838857.40549  -3761317.30849  23929628.6114   23929636.1874
  20607066.329     -988510.19849   -768435.46749  20607068.3034   20607074.8624
  22478581.739    -5572690.01849  -4316662.72249  22478583.4734   22478591.3564
  20908288.090    -1059043.18449   -822137.07949  20908289.4634   20908297.5224
 95  2  5 16 12 29.9990000  0  8 21 20  1 22 29 25 14 15
  23887629.760     3020980.26449   2343232.86849  23887631.9304   23887641.6024
  24429007.801    -1106145.56749   -859840.79649  24429009.2374   24429018.8764
  23289495.227     2225440.21249   1714246.15049  23289497.9274   23289506.3594
  24157276.626    -5769217.61649  -4479221.93949  24157278.5124   24157287.3614
  23909354.352    -4945387.41649  -3844327.68349  23909356.2694   23909364.3564
  20603724.225    -1006070.50749   -782118.82949  20603726.6384   20603733.3494
  22455380.226    -5694612.62849  -4411667.35049  22455382.6404   22455390.4534
  20905137.103    -1075597.84449   -835036.82649  20905139.2124   20905147.2754
 95  2  5 16 12 59.9990000  0  8 21 20  1 22 29 25 14 15
  23898002.602     3075474.75449   2385696.01649  23898002.0844   23898011.5434
  24425294.851    -1125624.57549   -875019.28449  24425303.1434   24425312.2914
  23295874.922     2258962.78049   1740367.59049  23295877.1984   23295885.2964
  24132319.333    -5900361.76049  -4581412.15549  24132322.7734   24132330.9534
  23889066.673    -5052005.34449  -3927406.55449  23889067.3034   23889075.6664
  20600442.144    -1023319.61749   -795559.70549  20600444.2584   20600450.9024
  22432158.444    -5816647.65549  -4506759.57649  22432159.9834   22432167.9834
  20902066.642    -1091735.72849   -847611.81449  20902068.2944   20902076.3534
 95  2  5 16 13 29.9990000  0  8 21 20  1 22 29 25 14 15
  23908372.697     3129964.76449   2428155.66949  23908371.3574   23908380.6124
  24421656.847    -1144774.64149   -889941.43949  24421659.0474   24421667.6674
  23302226.513     2292323.90249   1766363.23349  23302225.5764   23302233.6544
  24107323.528    -6031722.03149  -4683770.78049  24107325.9164   24107334.3384
  23868763.895    -5158696.32549  -4010542.36249  23868764.9894   23868772.5734
  20597216.525    -1040270.83949   -808768.45849  20597218.2874   20597225.0704
  22408916.500    -5938784.95449  -4601931.49549  22408918.0164   22408926.0364
  20899076.072    -1107452.91949   -859858.98849  20899077.5064   20899085.4624
 95  2  5 16 13 59.9990000  0  8 21 20  1 22 29 25 14 15
  23918737.226     3184454.59749   2470615.17949  23918740.3744   23918749.5174
  24418069.017    -1163592.53849   -904604.77449  24418077.0394   24418086.5184
  23308542.531     2325534.59849   1792241.65149  23308545.3574   23308553.7414
  24082289.055    -6163283.99349  -4786286.53749  24082290.1804   24082299.1694
  23848452.193    -5265443.31249  -4093721.81249  23848451.7714   23848459.9304
  20594045.843    -1056931.59249   -821750.87249  20594047.8284   20594054.6404
  22385660.130    -6060998.27949  -4697162.65149  22385661.6354   22385669.6594
  20896165.102    -1122748.72849   -871777.81449  20896166.8684   20896174.8764
 95  2  5 16 14 29.9990000  0  8 21 20  1 22 29 25 14 15
  23929101.921     3238922.88849   2513057.93349  23929106.0324   23929115.2554
  24414553.084    -1182097.13749   -919023.96849  24414556.1194   24414565.7234
  23314826.780     2358552.83749   1817970.10349  23314828.4674   23314837.1464
  24057209.589    -6295072.13049  -4888978.57349  24057211.2234   24057220.7004
  23828119.613    -5372282.60849  -4176973.19749  23828120.7234   23828128.5984
  20590925.198    -1073330.31349   -834529.10449  20590927.3994   20590934.3544
  22362388.219    -6183289.67949  -4792454.64049  22362390.3744   22362398.5354
  20893328.921    -1137652.92049   -883391.48049  20893330.6874   20893338.7724
 95  2  5 16 14 59.9990000  0  8 21 20  1 22 29 25 14 15
  23939464.353     3293370.94849   2555484.91049  23939466.3474   23939476.0794
  24411087.042    -1200287.11049   -933198.00349  24411093.9654   24411103.9774
  23321070.499     2391362.62949   1843536.12949  23321072.1954   23321080.4184
  24032089.481    -6427094.78149  -4991853.35549  24032088.2594   24032098.3484
  23807766.234    -5479224.99649  -4260304.90049  23807770.7174   23807778.4094
  20587854.605    -1089465.13449   -847101.70349  20587857.1364   20587864.1244
  22339103.213    -6305654.90449  -4887804.15849  22339105.0384   22339113.1844
  20890566.008    -1152174.53849   -894707.04149  20890567.3994   20890575.4064
 95  2  5 16 15 29.9990000  0  8 21 20  1 22 29 25 14 15
  23949819.706     3347800.47949   2597897.42249  23949823.9394   23949833.8584
  24407695.507    -1218157.81049   -947123.25749  24407693.6214   24407702.9264
  23327274.996     2423953.55549   1868931.61849  23327274.4114   23327282.5404
  24006921.429    -6559354.43349  -5094912.79349  24006920.7834   24006929.7894
  23787399.432    -5586276.61549  -4343721.73049  23787399.4694   23787407.0924
  20584835.371    -1105335.78949   -859468.45649  20584836.9944   20584843.8494
  22315803.118    -6428098.07749  -4983214.41749  22315804.9054   22315813.0934
  20887873.805    -1166320.83749   -905730.14249  20887875.4294   20887883.5534
 95  2  5 16 15 59.9990000  0  8 21 20  1 22 29 25 14 15
  23960175.625     3402228.55849   2640308.82249  23960182.0914   23960191.2764
  24404353.767    -1235694.78249   -960788.45549  24404355.9254   24404365.7454
  23333430.833     2456315.92149   1894149.00149  23333432.5264   23333440.7234
  23981705.079    -6691841.16849  -5198149.17949  23981708.5454   23981718.8874
  23767007.371    -5693428.81249  -4427216.93149  23767008.6324   23767016.2374
  20581869.468    -1120920.54949   -871612.43449  20581871.4254   20581878.3124
  22292488.445    -6550615.81949  -5078682.78049  22292490.5164   22292498.8574
  20885254.456    -1180083.81549   -916454.55349  20885256.4644   20885264.5304
 95  2  5 16 16 29.9990000  0  8 21 20  1 22 29 25 14 15
  23970543.786     3456694.90949   2682750.06149  23970546.6814   23970555.1664
  24401090.797    -1252853.12049   -974158.61349  24401092.0244   24401101.7374
  23339553.225     2488488.66349   1919218.62349  23339554.8334   23339563.2354
  23956458.636    -6824518.72949  -5301534.25949  23956461.2684   23956471.4324
  23746602.030    -5800651.68049  -4510767.20249  23746604.6624   23746612.8344
  20578968.392    -1136164.06849   -883490.51049  20578970.7274   20578977.5964
  22269162.894    -6673193.58649  -5174197.91549  22269164.6634   22269172.9284
  20882717.269    -1193421.16349   -926847.30549  20882718.4794   20882726.4554
 95  2  5 16 16 59.9990000  0  8 21 20  1 22 29 25 14 15
  23980915.674     3511192.60849   2725215.72949  23980916.6634   23980926.0264
  24397891.594    -1269653.06749   -987249.51549  24397895.0314   24397903.9594
  23345640.668     2520470.45749   1944139.45449  23345640.9654   23345649.2214
  23931171.006    -6957402.91749  -5405080.36649  23931173.1574   23931183.6414
  23726185.442    -5907941.19649  -4594369.40749  23726188.3974   23726196.2274
  20576131.932    -1151074.13049   -895108.75049  20576133.4444   20576140.2044
  22245819.998    -6795862.08649  -5269783.75349  22245821.6324   22245829.9994
  20880258.047    -1206341.56649   -936915.16449  20880259.7074   20880267.6484
 95  2  5 16 17 29.9990000  0  8 21 20  1 22 29 25 14 15
  23991282.157     3565694.66449   2767684.78449  23991288.2544   23991297.9334
  24394760.271    -1286132.90749  -1000090.97349  24394759.2744   24394768.5984
  23351686.609     2552246.06649   1968899.62449  23351687.8834   23351695.8634
  23905837.658    -7090513.48449  -5508802.84849  23905844.0174   23905853.7904
  23705756.036    -6015313.48849  -4678036.11149  23705756.0614   23705763.7244
  20573353.659    -1165671.46149   -906483.29949  20573355.6304   20573362.3864
  22222453.611    -6918651.73049  -5365463.98649  22222455.5194   22222463.6524
  20877874.455    -1218866.27949   -946674.69249  20877876.3474   20877884.2684
 95  2  5 16 17 59.9990000  0  8 21 20  1 22 29 25 14 15
  24001660.001     3620199.99549   2810156.36949  24001660.9984   24001669.8504
  24391680.887    -1302309.66049  -1012696.26049  24391681.3274   24391689.9494
  23357699.700     2583840.06249   1993518.27849  23357699.7494   23357708.4484
  23880477.337    -7223844.01049  -5612696.73049  23880471.6104   23880481.4264
  23685307.393    -6122766.13149  -4761765.42149  23685308.3444   23685316.8254
  20570637.461    -1179946.52249   -917606.73349  20570639.1334   20570645.9254
  22199066.138    -7041554.22549  -5461232.16349  22199067.9504   22199076.1784
  20875568.079    -1230988.02449   -956120.22249  20875569.6464   20875577.6264
 95  2  5 16 18 29.9990000  0  8 21 20  1 22 29 25 14 15
  24012031.377     3674701.47549   2852624.97149  24012032.1644   24012041.4144
  24388660.965    -1318193.38649  -1025073.22849  24388658.5074   24388667.5824
  23363676.539     2615264.55249   2018004.84549  23363679.5804   23363687.7724
  23855058.608    -7357385.05649  -5716754.65249  23855060.7464   23855069.8334
  23664840.640    -6230304.96149  -4845561.88949  23664844.1874   23664852.5634
  20567981.170    -1193903.81749   -928482.55949  20567983.3354   20567990.0744
  22175659.397    -7164559.09549  -5557080.11249  22175661.0914   22175669.3304
  20873338.116    -1242705.51749   -965250.75149  20873339.8234   20873347.9114
 95  2  5 16 18 59.9990000  0  8 21 20  1 22 29 25 14 15
  24022399.432     3729192.70249   2895085.59249  24022402.0034   24022411.1524
  24385696.360    -1333787.56249  -1037224.54949  24385689.9514   24385700.4444
  23369625.225     2646526.10449   2042364.45249  23369628.6384   23369637.0494
  23829608.677    -7491125.22849  -5820967.73449  23829609.5694   23829619.4524
  23644361.259    -6337931.65649  -4929426.81649  23644363.4594   23644371.6214
  20565384.641    -1207548.76749   -939114.99249  20565386.6944   20565393.4894
  22152237.196    -7287640.08649  -5652987.37349  22152239.4574   22152247.7724
  20871185.611    -1254018.23749   -974065.87049  20871187.1264   20871195.2834
 95  2  5 16 19 29.9990000  0  8 21 20  1 22 29 25 14 15
  24032763.711     3783663.60149   2937530.35649  24032767.2194   24032776.4314
  24382778.840    -1349080.58649  -1049141.22849  24382780.6844   24382791.2504
  23375543.445     2677617.05349   2066591.12349  23375545.2934   23375553.4554
  23804121.391    -7625054.45049  -5925328.12449  23804123.9864   23804133.7664
  23623859.082    -6445670.32949  -5013379.00049  23623861.7874   23623869.8554
  20562846.044    -1220888.23049   -949509.38849  20562848.3124   20562855.1334
  22128803.100    -7410786.33849  -5748945.48749  22128805.2044   22128813.6654
  20869107.741    -1264934.94849   -982572.41449  20869109.7534   20869117.9984
 95  2  5 16 19 59.9990000  0  8 21 20  1 22 29 25 14 15
  24043126.905     3838132.10449   2979973.23349  24043132.1674   24043142.4184
  24379932.454    -1364054.31949  -1060809.09349  24379931.7284   24379941.3574
  23381425.767     2708528.27649   2090677.74549  23381427.6154   23381435.8094
  23778603.603    -7759158.51549  -6029824.76449  23778604.9854   23778614.4504
  23603335.806    -6553527.14349  -5097423.24049  23603336.9774   23603345.1704
  20560365.812    -1233923.50249   -959666.74849  20560367.6964   20560374.5374
  22105360.044    -7533979.85249  -5844940.42649  22105362.2864   22105370.7524
  20867107.422    -1275451.00349   -990766.75849  20867108.6534   20867116.9584
 95  2  5 16 20 29.9990000  0  8 21 20  1 22 29 25 14 15
  24053499.292     3892626.62449   3022436.37449  24053501.9754   24053512.3064
  24377145.509    -1378677.79149  -1072204.03749  24377148.6504   24377159.2804
  23387273.328     2739258.19449   2114623.08249  23387274.9694   23387283.4214
  23753054.609    -7893414.35149  -6134439.66249  23753056.7954   23753065.6104
  23582791.025    -6661484.88449  -5181546.13449  23582793.7214   23582801.4824
  20557943.671    -1246652.70249   -969585.61349  20557945.3244   20557952.0524
  22081911.260    -7657204.19649  -5940959.39049  22081913.4004   22081921.8834
  20865185.383    -1285552.31449   -998637.92949  20865186.5134   20865194.7784
 95  2  5 16 20 59.9990000  0  8 21 20  1 22 29 25 14 15
  24063876.356     3947160.84549   3064930.45449  24063879.3604   24063890.0114
  24374437.830    -1392940.37349  -1083317.77349  24374435.6364   24374445.0584
  23393088.110     2769816.23649   2138434.49649  23393090.1894   23393098.8774
  23727478.661    -8027822.64149  -6239173.35049  23727479.5894   23727488.9064
  23562231.409    -6769532.82949  -5265739.31449  23562232.8974   23562240.6064
  20555578.789    -1259080.32849   -979269.48849  20555580.6354   20555587.4904
  22058457.525    -7780453.40949  -6036997.72649  22058459.6734   22058468.1774
  20863341.260    -1295239.57749  -1006186.46249  20863343.1314   20863351.2594
 95  2  5 16 21 29.9990000  0  8 21 20  1 22 29 25 14 15
  24074258.040     4001713.89649   3107439.22749  24074260.8534   24074271.5584
  24371788.727    -1406854.81949  -1094160.22549  24371787.6174   24371796.9914
  23398865.942     2800184.10749   2162097.72649  23398869.1014   23398877.6214
  23701869.452    -8162398.80949  -6344037.86249  23701870.7304   23701879.8174
  23541650.480    -6877678.49249  -5350008.64149  23541653.1874   23541661.1844
  20553266.191    -1271231.22149   -988737.72149  20553268.3524   20553275.1894
  22034994.898    -7903750.70249  -6133073.53149  22034997.1734   22035005.5594
  20861572.050    -1304534.46849  -1013429.25049  20861574.4134   20861582.4524
 95  2  5 16 21 59.9990000  0  8 21 20  1 22 29 25 14 15
  24084643.851     4056290.94749   3149966.68949  24084646.6464   24084656.7844
  24369203.826    -1420428.25549  -1104736.96549  24369204.7684   24369214.7544
  23404613.018     2830380.84049   2185627.59849  23404615.0814   23404623.6394
  23676230.956    -8297135.34949  -6449027.32149  23676231.3064   23676240.0314
  23521057.200    -6985896.30049  -5434334.18049  23521059.6584   23521067.7394
  20551006.285    -1283107.21649   -997991.74949  20551008.4284   20551015.3214
  22011521.932    -8027101.77149  -6229191.24149  22011524.2834   22011532.7764
  20859879.425    -1313430.77449  -1020361.45549  20859881.5294   20859889.4644
 95  2  5 16 22 29.9990000  0  7 21  1 22 29 25 14 15
  24095028.440     4110881.87449   3192504.94649  24095035.2284   24095045.4114
  23410332.965     2860424.95749   2209038.56349  23410332.2104   23410340.8144
  23650559.656    -8432032.07349  -6554141.60449  23650561.1654   23650570.1274
  23500451.245    -7094170.71549  -5518703.83849  23500456.0624   23500464.0674
  20548798.854    -1294707.71149  -1007031.10149  20548800.8474   20548807.7294
  21988038.618    -8150513.72349  -6325356.38449  21988039.5514   21988048.2294
  20858262.362    -1321929.20149  -1026983.62249  20858264.3514   20858272.3554
 95  2  5 16 22 59.9990000  0  7 21  1 22 29 25 14 15
  24105423.592     4165490.10949   3235056.70449  24105426.4194   24105436.9264
  23416022.149     2890337.77149   2232347.19349  23416024.1054   23416033.6594
  23624866.920    -8567062.09649  -6659359.75749  23624865.7444   23624874.4074
  23479840.947    -7202489.09449  -5603107.75149  23479843.6854   23479851.3184
  20546650.551    -1305997.20449  -1015828.11549  20546652.5964   20546659.4644
  21964545.822    -8273965.49949  -6421552.56149  21964547.5064   21964556.0014
  20856724.637    -1330013.77249  -1033283.30549  20856725.9004   20856734.0974
 95  2  5 16 23 29.9990000  0  7 21  1 22 29 25 14 15
  24115817.462     4220116.88149   3277622.90549  24115822.0184   24115832.8764
  23421688.485     2920114.93949   2255550.11749  23421690.4584   23421699.8284
  23599146.848    -8702200.35949  -6764662.27649  23599150.0594   23599158.6194
  23459220.964    -7310846.46849  -5687542.04849  23459223.6574   23459231.2504
  20544564.909    -1316958.00749  -1024369.00949  20544566.8854   20544573.6784
  21941046.259    -8397454.92649  -6517778.08449  21941048.3574   21941056.8304
  20855266.902    -1337673.96149  -1039252.30149  20855268.3214   20855276.3664
 95  2  5 16 23 59.9990000  0  7 21  1 22 29 25 14 15
  24126214.873     4274769.93349   3320209.55149  24126221.6284   24126232.7624
  23427328.920     2949752.86749   2278644.54649  23427330.8304   23427339.5844
  23573413.098    -8837443.67049  -6870046.63549  23573413.7184   23573422.6544
  23438593.214    -7419252.91949  -5772014.59249  23438594.5794   23438602.4414
  20542543.946    -1327577.76249  -1032644.15049  20542546.0444   20542552.9464
  21917542.022    -8520975.23749  -6614027.67149  21917543.2684   21917551.6024
  20853890.834    -1344902.47949  -1044884.93149  20853892.8014   20853900.9164
 95  2  5 16 24 29.9990000  0  7 21  1 22 29 25 14 15
  24136624.642     4329450.31049   3362817.48249  24136628.4864   24136638.5014
  23432940.063     2979237.37649   2301619.43849  23432941.8244   23432950.7454
  23547656.021    -8972797.35349  -6975517.01349  23547657.2144   23547665.9134
  23417949.787    -7527724.23449  -5856537.67749  23417953.4434   23417961.2224
  20540590.508    -1337845.08649  -1040644.66949  20540592.3694   20540599.1894
  21894035.775    -8644501.19149  -6710281.65249  21894037.0864   21894045.5514
  20852597.454    -1351697.73649  -1050179.95249  20852599.6584   20852607.9314
 95  2  5 16 24 59.9990000  0  7 21  1 22 29 25 14 15
  24147033.782     4384129.53349   3405424.51849  24147032.7144   24147043.6004
  23438514.579     3008539.98049   2324452.58749  23438517.9694   23438526.9374
  23521873.789    -9108286.75449  -7081093.15449  23521873.9804   23521883.3214
  23397292.359    -7636293.66849  -5941137.21549  23397293.5254   23397301.3894
  20538700.115    -1347778.90649  -1048385.31849  20538702.0854   20538708.9414
  21870525.590    -8768045.38949  -6806549.85149  21870527.4654   21870535.7374
  20851381.860    -1358082.73649  -1055155.29549  20851384.5994   20851392.8794
 95  2  5 16 25 29.9990000  0  7 21  1 22 29 25 14 15
  24157433.935     4438796.43949   3448021.96849  24157435.1794   24157445.8884
  23444054.220     3037658.26549   2347142.10849  23444058.7024   23444068.1584
  23496057.826    -9243944.08349  -7186800.13249  23496059.4784   23496068.1894
  23376610.796    -7744965.67649  -6025816.68849  23376613.9684   23376621.3974
  20536868.736    -1357402.74249  -1055884.42249  20536870.7534   20536877.6124
  21847012.097    -8891608.87049  -6902833.07549  21847014.2144   21847022.4434
  20850243.204    -1364070.31149  -1059820.95449  20850245.2534   20850253.4364
 95  2  5 16 25 59.9990000  0  7 21  1 22 29 25 14 15
  24167837.029     4493456.96249   3490614.43449  24167837.3074   24167847.7204
  23449564.914     3066605.76749   2369698.54849  23449567.3414   23449576.5644
  23470211.069    -9379772.59549  -7292640.51049  23470212.3694   23470221.3874
  23355913.524    -7853735.31249  -6110572.22949  23355916.0124   23355923.3344
  20535095.719    -1366720.00949  -1063144.63749  20535097.6844   20535104.6014
  21823498.151    -9015178.66649  -6999121.21949  21823499.7794   21823507.6344
  20849179.175    -1369661.16749  -1064177.48049  20849181.3954   20849189.5424
 95  2  5 16 26 29.9990000  0  6  1 22 29 25 14 15
  23455044.461     3095404.89649   2392139.36649  23455047.9094   23455057.2254
  23444338.411    -9515735.56449  -7398585.67249  23444338.9994   23444348.3234
  23335205.761    -7962564.80749  -6195374.42349  23335206.4024   23335213.8354
  20533382.698    -1375721.12949  -1070158.50549  20533384.6774   20533391.6604
  21799986.572    -9138732.27349  -7095396.75149  21799988.3064   21799995.9874
  20848194.849    -1374837.88349  -1068211.30549  20848196.2234   20848204.5074
 95  2  5 16 26 59.9990000  0  6  1 22 29 25 14 15
  23460508.961     3124096.42849   2414496.35049  23460507.5504   23460516.8344
  23418447.712    -9651789.53549  -7504601.74649  23418449.0294   23418458.1214
  23314490.325    -8071420.55249  -6280197.05649  23314491.3614   23314498.9014
  20531732.834    -1384394.44649  -1076916.94049  20531734.3424   20531741.3744
  21776481.036    -9262256.03549  -7191649.02249  21776482.6634   21776490.0894
  20847293.638    -1379575.25849  -1071902.78249  20847294.8184   20847302.9964
 95  2  5 16 27 29.9990000  0  6  1 22 29 25 14 15
  23465942.086     3152663.41949   2436756.28949  23465944.1614   23465953.1524
  23392539.291    -9787932.85649  -7610687.45149  23392541.5264   23392550.9714
  23293768.540    -8180308.58249  -6365044.86149  23293771.0594   23293778.2154
  20530139.818    -1392762.86749  -1083437.79649  20530141.9174   20530148.9244
  21752977.929    -9385762.24049  -7287887.62149  21752980.1764   21752987.6134
  20846472.696    -1383884.18449  -1075260.40049  20846474.9104   20846482.9084
 95  2  5 16 27 59.9990000  0  6  1 22 29 25 14 15
  23471349.658     3181080.95049   2458899.76349  23471351.5974   23471360.8424
  23366618.868    -9924147.38649  -7716828.62649  23366621.0184   23366630.2814
  23273037.722    -8289243.57049  -6449929.24749  23273041.1934   23273048.4344
  20528602.349    -1400842.12549  -1089733.32849  20528604.4374   20528611.5154
  21729476.929    -9509264.40149  -7384123.06349  21729478.3684   21729485.8074
  20845731.891    -1387777.48849  -1078294.15849  20845734.1004   20845742.0374
 95  2  5 16 28 29.9990000  0  6  1 22 29 25 14 15
  23476732.838     3209363.83649   2480938.32049  23476733.5794   23476742.8294
  23340685.484   -10060418.79149  -7823014.10049  23340689.0504   23340698.5104
  23252300.448    -8398212.94249  -6534840.43149  23252304.8744   23252312.0994
  20527122.659    -1408618.87349  -1095793.13849  20527124.5544   20527131.5504
  21705979.065    -9632746.47349  -7480342.85649  21705980.7774   21705988.2184
  20845072.774    -1391242.14449  -1080993.90449  20845074.8404   20845082.7454
 95  2  5 16 28 59.9990000  0  6  1 22 29 25 14 15
  23482090.204     3237517.53449   2502876.21449  23482091.5034   23482100.3114
  23314743.378   -10196744.48749  -7929241.90649  23314747.7014   23314756.6724
  23231562.841    -8507209.02749  -6619772.42349  23231563.5834   23231570.8454
  20525703.444    -1416076.00849  -1101603.90049  20525705.6214   20525712.5494
  21682488.202    -9756192.10149  -7576534.25249  21682489.7244   21682497.3304
  20844496.074    -1394270.07949  -1083353.35049  20844498.6454   20844506.5594
 95  2  5 16 29 29.9990000  0  6  1 22 29 25 14 15
  23487418.990     3265522.07649   2524697.88149  23487420.3824   23487429.5164
  23288791.392   -10333130.84949  -8035516.97849  23288794.2104   23288802.9344
  23210814.302    -8616233.70549  -6704726.70049  23210816.9774   23210823.9004
  20524347.002    -1423204.17449  -1107158.31949  20524349.1664   20524356.0214
  21659003.317    -9879602.94649  -7672698.54149  21659005.4614   21659012.8614
  20844001.277    -1396876.35749  -1085384.23149  20844002.6194   20844010.5884
 95  2  5 16 29 59.9990000  0  6  1 22 29 25 14 15
  23492727.488     3293405.31049   2546425.02449  23492726.6454   23492735.4334
  23262831.355   -10469555.77649  -8141822.09749  23262833.2304   23262841.9354
  23190068.304    -8725263.99749  -6789685.35549  23190069.4744   23190076.4914
  20523059.789    -1429969.39049  -1112429.92449  20523061.7694   20523068.5474
  21635527.576   -10002969.21749  -7768828.10149  21635529.6274   21635537.0214
  20843586.725    -1399047.14749  -1087075.77249  20843589.4894   20843597.5744
 95  2  5 16 30 29.9990000  0  6  1 22 29 25 14 15
  23498009.000     3321174.33849   2568063.17049  23498010.6614   23498020.1474
  23236861.615   -10606024.43349  -8248161.29249  23236863.6164   23236872.9564
  23169319.236    -8834289.55349  -6874640.31949  23169322.5314   23169329.4194
  20521843.560    -1436360.25249  -1117409.82549  20521845.6644   20521852.4474
  21612060.618   -10126292.03649  -7864923.80249  21612061.8554   21612069.3704
  20843258.380    -1400777.79949  -1088424.34949  20843260.2264   20843268.2714
 95  2  5 16 30 59.9980000  0  6  1 22 29 25 14 15
  23503267.780     3348811.81549   2589598.81049  23503270.2874   23503278.9644
  23210885.057   -10742532.23549  -8354530.97349  23210887.4854   23210896.5594
  23148572.646    -8943321.51249  -6959600.27649  23148574.4034   23148581.6584
  20520697.440    -1442384.39649  -1122103.97649  20520699.3104   20520705.9944
  21588597.839   -10249585.05049  -7960996.27449  21588600.1344   21588607.6164
  20843010.222    -1402080.96849  -1089439.82549  20843012.1874   20843020.3934
 95  2  5 16 31 29.9980000  0  6  1 22 29 25 14 15
  23508505.878     3376327.08549   2611039.22049  23508505.7624   23508514.8914
  23184900.852   -10879090.43349  -8460939.91249  23184900.9364   23184909.8554
  23127820.203    -9052375.57149  -7044577.45349  23127822.3174   23127829.2524
  20519618.538    -1448052.44949  -1126520.65149  20519620.7414   20519627.3804
  21565137.436   -10372868.07149  -8057060.95949  21565140.1344   21565147.5854
  20842842.554    -1402961.87149  -1090126.26149  20842844.4524   20842852.7924
 95  2  5 16 31 59.9980000  0  6  1 22 29 25 14 15
  23513712.574     3403715.44549   2632380.73349  23513717.5324   23513726.7584
  23158905.920   -11015693.16949  -8567383.56849  23158906.5004   23158915.2344
  23107064.176    -9161450.44149  -7129570.85549  23107065.7624   23107073.1204
  20518603.175    -1453386.59449  -1130677.14049  20518605.7054   20518612.3084
  21541681.569   -10496130.06949  -8153109.26549  21541684.1664   21541691.5984
  20842756.339    -1403415.07549  -1090479.42449  20842758.3154   20842766.6394
 95  2  5 16 32 29.9980000  0  6  1 22 29 25 14 15
  23518903.179     3430972.29249   2653619.78349  23518904.1944   23518913.3894
  23132902.500   -11152333.83849  -8673856.78449  23132904.7084   23132913.7404
  23086302.956    -9270550.30049  -7214583.71549  23086304.7464   23086312.4274
  20517648.626    -1458405.00449  -1134587.60049  20517650.8874   20517657.4524
  21518234.280   -10619350.72949  -8249125.36149  21518236.0034   21518243.6074
  20842751.437    -1403437.95549  -1090497.27349  20842754.0504   20842762.3434
 95  2  5 16 32 59.9980000  0  6  1 22 29 25 14 15
  23524065.868     3458087.36149   2674748.35649  23524064.4254   23524072.9934
  23106890.818   -11289029.79549  -8780373.09749  23106892.1674   23106900.8634
  23065532.885    -9379699.01849  -7299634.64249  23065534.4714   23065542.1374
  20516748.332    -1463134.74749  -1138273.12249  20516750.7454   20516757.2674
  21494791.349   -10742541.05749  -8345117.82049  21494793.6024   21494801.1824
  20842825.091    -1403055.52049  -1090199.28849  20842826.8564   20842835.1914
 95  2  5 16 33 29.9980000  0  6  1 22 29 25 14 15
  23529193.193     3485069.68249   2695773.48749  23529198.7364   23529207.8054
  23080869.577   -11425768.50449  -8886922.71249  23080871.8814   23080880.4714
  23044755.826    -9488882.10649  -7384712.36149  23044757.7314   23044765.3854
  20515904.540    -1467571.51649  -1141730.35649  20515906.4124   20515912.9514
  21471359.279   -10865674.69749  -8441066.10649  21471362.0614   21471369.6544
  20842976.055    -1402260.19949  -1089579.57349  20842978.2994   20842986.4594
 95  2  5 16 33 59.9980000  0  6  1 22 29 25 14 15
  23534306.963     3511933.64949   2716706.38849  23534310.8924   23534319.9184
  23054845.985   -11562528.03849  -8993488.55449  23054846.9634   23054856.0384
  23023970.763    -9598099.37449  -7469816.71749  23023974.3694   23023982.1154
  20515117.725    -1471705.52249  -1144951.66949  20515119.7304   20515126.3674
  21447943.023   -10988735.75449  -8536957.84149  21447944.3584   21447951.9794
  20843207.580    -1401043.50249  -1088631.51849  20843209.7644   20843218.0244
 95  2  5 16 34 29.9980000  0  6  1 22 29 25 14 15
  23539404.582     3538702.97549   2737565.54449  23539404.6164   23539414.0534
  23028816.393   -11699311.99249  -9100073.40149  23028818.0594   23028827.0584
  23003180.928    -9707351.99549  -7554948.61649  23003183.9174   23003191.8214
  20514390.351    -1475526.63549  -1147929.17149  20514392.5744   20514399.2604
  21424538.708   -11111720.74049  -8632790.29749  21424540.8894   21424548.6024
  20843518.840    -1399408.96649  -1087357.87149  20843520.7454   20843529.2144
 95  2  5 16 34 59.9980000  0  6  1 22 29 25 14 15
  23544481.031     3565378.58349   2758351.66649  23544481.0854   23544489.8534
  23002783.577   -11836114.84949  -9206672.98449  23002785.4234   23002793.9684
  22982386.624    -9816634.51349  -7640103.82149  22982388.3084   22982395.8344
  20513724.158    -1479026.73849  -1150656.53549  20513726.4634   20513733.2614
  21401150.104   -11234624.43849  -8728559.41049  21401153.1994   21401160.9094
  20843910.199    -1397353.37849  -1085756.13549  20843911.9484   20843920.3474
 95  2  5 16 35 29.9980000  0  6  1 22 29 25 14 15
  23549533.673     3591954.92149   2779060.43649  23549538.4814   23549547.6734
  22976749.728   -11972930.05449  -9313282.18049  22976749.8724   22976758.6744
  22961583.876    -9925942.57449  -7725278.91649  22961587.4484   22961595.0984
  20513117.161    -1482215.89449  -1153141.60249  20513119.4814   20513126.4654
  21377779.826   -11357445.55249  -8824264.17249  21377781.2154   21377788.9094
  20844380.380    -1394876.85149  -1083826.38849  20844383.2004   20844391.5094
 95  2  5 16 35 59.9980000  0  6  1 22 29 25 14 15
  23554573.589     3618436.31549   2799695.22749  23554578.6524   23554586.5944
  22950709.283   -12109769.09449  -9419909.96449  22950710.6144   22950719.1424
  22940781.248   -10035274.86549  -7810472.90749  22940782.4854   22940789.8284
  20512569.814    -1485095.20349  -1155385.23449  20512571.6634   20512578.5844
  21354421.307   -11480188.68649  -8919908.17349  21354423.7814   21354431.6574
  20844931.788    -1391982.09649  -1081570.75849  20844934.1534   20844942.2484
 95  2  5 16 36 29.9980000  0  6  1 22 29 25 14 15
  23559597.733     3644826.43149   2820258.89749  23559599.9974   23559609.0474
  22924670.181   -12246608.05849  -9526537.65949  22924671.0024   22924679.7854
  22919975.153   -10144598.69149  -7895660.29249  22919978.9584   22919986.2524
  20512086.343    -1487634.84349  -1157364.18649  20512088.2944   20512095.2614
  21331083.425   -11602828.55349  -9015471.70549  21331086.1414   21331093.9034
  20845565.509    -1388652.40549  -1078976.21149  20845567.6524   20845575.9384
 95  2  5 16 36 59.9980000  0  6  1 22 29 25 14 15
  23564598.856     3671091.52149   2840725.13949  23564597.9774   23564606.9554
  22898629.570   -12383446.55549  -9633164.99649  22898631.3864   22898640.6364
  22899170.635   -10253933.41749  -7980856.17149  22899173.1044   22899180.6934
  20511664.687    -1489846.18149  -1159087.31949  20511667.5834   20511674.5444
  21307763.813   -11725377.99949  -9110964.78149  21307765.8094   21307773.5434
  20846278.701    -1384903.63549  -1076055.11249  20846280.9924   20846289.3044
 95  2  5 16 37 29.9980000  0  6  1 22 29 25 14 15
  23569573.853     3697238.77549   2861099.55449  23569574.3384   23569582.5984
  22872590.588   -12520278.93349  -9739787.56849  22872592.9824   22872601.8114
  22878363.713   -10363278.33249  -8066059.98849  22878365.3634   22878372.6074
  20511307.932    -1491720.66549  -1160547.96949  20511310.8474   20511317.8804
  21284461.413   -11847834.18549  -9206385.18149  21284463.1944   21284470.8524
  20847071.971    -1380734.20349  -1072806.22549  20847074.5234   20847082.7174
 95  2  5 16 37 59.9980000  0  6  1 22 29 25 14 15
  23574521.150     3723257.77749   2881374.04449  23574525.5244   23574534.5304
  22846555.385   -12657100.75749  -9846401.91649  22846556.6514   22846565.5024
  22857550.441   -10472650.28849  -8151284.88049  22857552.5394   22857560.0654
  20511017.205    -1493251.50249  -1161740.84249  20511019.5324   20511026.5034
  21261175.828   -11970197.69749  -9301733.37249  21261178.0364   21261185.8514
  20847943.832    -1376153.05049  -1069236.51649  20847946.2794   20847954.6164
 95  2  5 16 38 29.9980000  0  6  1 22 29 25 14 15
  23579450.825     3749146.97049   2901547.37649  23579451.8204   23579460.9744
  22820523.730   -12793895.41349  -9952995.09049  22820525.3574   22820533.8824
  22836730.070   -10582056.73449  -8236536.65149  22836733.2694   22836740.7674
  20510788.030    -1494453.84649  -1162677.74549  20510790.8294   20510797.9644
  21237908.469   -12092466.24549  -9397007.56349  21237911.1944   21237918.9354
  20848894.788    -1371160.94949  -1065346.58649  20848896.2984   20848904.6694
 95  2  5 16 38 59.9980000  0  6  1 22 29 25 14 15
  23584352.492     3774915.16449   2921626.42449  23584355.4634   23584364.3024
  22794497.756   -12930662.14249 -10059566.49349  22794499.6114   22794507.9894
  22815906.584   -10691489.92149  -8321809.25349  22815908.7994   22815916.5224
  20510619.007    -1495345.71349  -1163372.71949  20510621.0054   20510628.1724
  21214661.963   -12214633.09349  -9492202.51049  21214663.5944   21214671.2434
  20849922.264    -1365754.56549  -1061133.84049  20849925.1634   20849933.4204
 95  2  5 16 39 29.9980000  0  6  1 22 29 25 14 15
  23589235.407     3800568.23149   2941615.76049  23589237.6114   23589246.1884
  22768476.709   -13067404.72549 -10166119.09249  22768478.3814   22768486.8514
  22795078.307   -10800939.72449  -8407094.79949  22795081.1924   22795088.7774
  20510508.223    -1495926.65649  -1163825.41749  20510510.5214   20510517.6844
  21191432.981   -12336699.72049  -9587319.36349  21191435.2014   21191442.7854
  20851030.551    -1359934.94149  -1056599.09449  20851032.5844   20851040.9104
 95  2  5 16 39 59.9980000  0  6  1 22 29 25 14 15
  23594093.017     3826090.95649   2961503.53649  23594094.2634   23594103.2734
  22742458.347   -13204129.85049 -10272658.10349  22742460.2894   22742468.8314
  22774246.695   -10910417.04949  -8492401.79949  22774248.2464   22774255.7354
  20510452.941    -1496215.05949  -1164050.16249  20510455.6104   20510462.6804
  21168220.560   -12458677.54449  -9682367.01449  21168223.4074   21168231.0614
  20852214.344    -1353718.47249  -1051755.11549  20852215.5974   20852223.7954
 95  2  5 16 40 29.9980000  0  6  1 22 29 25 14 15
  23598923.451     3851488.51849   2981293.78849  23598926.7824   23598936.1994
  22716444.648   -13340834.72149 -10379181.33049  22716446.1574   22716454.6864
  22753411.245   -11019901.19649  -8577714.11749  22753414.1104   22753421.4324
  20510454.992    -1496206.46849  -1164043.47949  20510457.3704   20510464.3374
  21145028.906   -12580555.78049  -9777337.06649  21145030.8234   21145038.4214
  20853473.711    -1347097.69849  -1046596.09849  20853475.4914   20853483.7114
 95  2  5 16 40 59.9980000  0  6  1 22 29 25 14 15
  23603736.613     3876758.42749   3000984.56749  23603735.9534   23603745.0474
  22690436.818   -13477513.27149 -10485684.05649  22690437.1814   22690446.0424
  22732576.561   -11129386.72849  -8663027.51349  22732579.5764   22732587.0214
  20510517.417    -1495879.43449  -1163788.66249  20510519.6474   20510526.5754
  21121854.377   -12702333.81749  -9872229.04249  21121857.4814   21121864.9824
  20854808.951    -1340074.64249  -1041123.61249  20854811.9804   20854820.3304
 95  2  5 16 41 29.9980000  0  6  1 22 29 25 14 15
  23608522.472     3901911.63749   3020584.40649  23608522.6604   23608531.4954
  22664432.499   -13614155.15449 -10592158.20649  22664434.9064   22664443.7614
  22711739.202   -11238892.77549  -8748356.89149  22711741.4974   22711748.7464
  20510641.621    -1495228.14549  -1163281.17849  20510643.6874   20510650.4164
  21098700.093   -12824010.56949  -9967042.09349  21098703.1064   21098710.4914
  20856221.881    -1332651.17449  -1035339.12049  20856224.5904   20856233.0014
 95  2  5 16 41 59.9980000  0  6  1 22 29 25 14 15
  23613286.060     3926963.72649   3040105.45549  23613289.9074   23613299.0034
  22638442.878   -13750739.32549 -10698587.38649  22638443.9014   22638452.9114
  22690899.241   -11348407.65149  -8833693.15049  22690901.1514   22690908.8504
  20510827.972    -1494248.86649  -1162518.11449  20510830.1184   20510836.7694
  21075567.599   -12945573.97849 -10061766.82449  21075570.3314   21075577.6974
  20857713.491    -1324818.97849  -1029236.13649  20857714.9774   20857723.3764
 95  2  5 16 42 29.9980000  0  6  1 22 29 25 14 15
  23618035.541     3951913.42249   3059546.71249  23618037.8074   23618046.9344
  22612459.589   -13887276.51049 -10804979.97049  22612461.7574   22612470.0754
  22670057.498   -11457936.20549  -8919040.07349  22670058.9824   22670066.1914
  20511075.482    -1492948.09849  -1161504.54549  20511077.6014   20511084.1994
  21052456.071   -13067031.00349 -10156408.66149  21052457.8554   21052465.2164
  20859279.252    -1316588.68149  -1022822.94349  20859281.3514   20859289.5794
 95  2  5 16 42 59.9980000  0  6  1 22 29 25 14 15
  23622768.079     3976781.67949   3078924.51049  23622770.2764   23622779.5044
  22586490.099   -14023747.22849 -10911320.75949  22586492.0584   22586500.7454
  22649213.247   -11567473.68449  -9004393.94249  22649214.4194   22649221.8414
  20511385.088    -1491317.85049  -1160234.23549  20511387.8464   20511394.3934
  21029365.661   -13188367.71249 -10250956.74649  21029368.2614   21029375.5744
  20860922.344    -1307953.84649  -1016094.52549  20860924.3884   20860932.7554
 95  2  5 16 43 29.9980000  0  6  1 22 29 25 14 15
  23627487.175     4001576.50449   3098245.07949  23627488.5894   23627497.7264
  22560531.634   -14160157.79649 -11017614.67149  22560533.9414   22560542.8324
  22628367.876   -11677009.20049  -9089746.27749  22628370.7324   22628377.9624
  20511758.113    -1489360.02449  -1158708.67149  20511760.3804   20511767.0054
  21006301.559   -13309573.43549 -10345402.76149  21006303.6464   21006310.9994
  20862642.610    -1298913.33649  -1009049.99849  20862644.8044   20862653.1734
 95  2  5 16 43 59.9980000  0  6  1 22 29 25 14 15
  23632188.541     4026283.32549   3117497.07549  23632190.5064   23632199.6614
  22534581.241   -14296522.50449 -11123872.85549  22534584.5084   22534593.1934
  22607526.413   -11786532.75049  -9175089.29449  22607529.3404   22607536.3974
  20512190.544    -1487086.79549  -1156937.33749  20512193.0164   20512199.7314
  20983259.976   -13430654.92149 -10439751.96849  20983262.5514   20983269.9754
  20864437.331    -1289480.97149  -1001700.12849  20864439.6704   20864448.0054
 95  2  5 16 44 29.9980000  0  6  1 22 29 25 14 15
  23636873.632     4050903.75749   3136681.75749  23636875.5154   23636884.5804
  22508644.224   -14432831.44549 -11230087.59849  22508645.9004   22508654.6904
  22586685.046   -11896045.31849  -9260423.74949  22586689.7704   22586697.1154
  20512682.070    -1484502.40949  -1154923.54049  20512684.8784   20512691.5424
  20960247.468   -13551588.84549 -10533986.18849  20960249.6254   20960257.0154
  20866308.513    -1279653.10549   -994042.07649  20866310.0134   20866318.2714
 95  2  5 16 44 59.9980000  0  6  1 22 29 25 14 15
  23641541.561     4075446.08049   3155805.57149  23641545.5084   23641555.1204
  22482721.556   -14569063.09149 -11336242.09349  22482721.4204   22482730.6154
  22565851.120   -12005543.71249  -9345747.14949  22565852.8064   22565860.2124
  20513232.375    -1481611.84549  -1152671.16449  20513234.8794   20513241.6354
  20937267.194   -13672349.43449 -10628085.34349  20937269.4264   20937276.9614
  20868254.368    -1269421.31049   -986069.27749  20868257.0444   20868265.4674
 95  2  5 16 45 29.9980000  0  6  1 22 29 25 14 15
  23646196.803     4099899.80949   3174860.35649  23646199.0374   23646207.9644
  22456809.518   -14705223.42849 -11442341.02249  22456811.0144   22456820.4064
  22545012.305   -12115044.76449  -9431072.62749  22545015.5824   22545023.0484
  20513836.976    -1478437.42549  -1150197.60349  20513838.9414   20513845.8844
  20914317.599   -13792950.76349 -10722060.39749  20914320.0434   20914327.4264
  20870276.613    -1258794.18749   -977788.42449  20870279.3584   20870287.7204
 95  2  5 16 45 59.9980000  0  6  1 22 29 25 14 15
  23650831.802     4124246.89149   3193832.03349  23650832.1834   23650841.3904
  22430916.234   -14841297.74249 -11548372.93049  22430917.0614   22430925.9024
  22524170.594   -12224568.29549  -9516415.61849  22524173.7874   22524181.3154
  20514491.326    -1474995.87049  -1147515.88449  20514493.8934   20514500.7894
  20891397.848   -13913396.43149 -10815914.15949  20891399.8214   20891407.3464
  20872373.441    -1247779.30549   -969205.42649  20872375.4784   20872383.9284
 95  2  5 16 46 29.9980000  0  6  1 22 29 25 14 15
  23655440.807     4148483.11649   3212717.32449  23655443.7834   23655452.9424
  22405038.758   -14977276.38549 -11654330.28649  22405041.0254   22405050.2814
  22503322.193   -12334126.63649  -9601785.73649  22503325.4864   22503333.0924
  20515196.584    -1471289.89049  -1144628.12049  20515199.1054   20515206.0684
  20868506.396   -14033688.79949 -10909648.46549  20868509.0134   20868516.4904
  20874543.595    -1236378.89449   -960322.01449  20874544.9124   20874553.3124
 95  2  5 16 46 59.9980000  0  6  1 22 29 25 14 15
  23660034.436     4172616.36249   3231522.36549  23660036.2604   23660045.4454
  22379180.528   -15113166.29449 -11760218.50849  22379182.3734   22379191.6204
  22482469.421   -12443707.94849  -9687173.74949  22482472.5924   22482480.3094
  20515955.333    -1467303.64049  -1141521.96249  20515957.6154   20515964.6234
  20845639.883   -14153852.68249 -11003282.65749  20845642.5204   20845650.0504
  20876786.711    -1224588.44049   -951134.67149  20876788.7344   20876797.0424
 95  2  5 16 47 29.9970000  0  6  1 22 29 25 14 15
  23664604.769     4196630.70949   3250234.77449  23664605.6634   23664615.4554
  22353337.381   -15248970.53249 -11866039.96649  22353339.3824   22353348.6314
  22461615.626   -12553299.32649  -9772569.60249  22461617.9694   22461625.6704
  20516767.981    -1463035.13049  -1138195.86149  20516769.9524   20516776.9544
  20822794.686   -14273906.03449 -11096830.71549  20822797.1794   20822804.7024
  20879103.885    -1212415.17349   -941649.02749  20879105.1854   20879113.5124
 95  2  5 16 47 59.9970000  0  6  1 22 29 25 14 15
  23669150.780     4220527.90449   3268855.87649  23669153.1694   23669162.8524
  22327509.450   -15384692.22749 -11971797.10449  22327512.7114   22327521.7394
  22440760.036   -12662894.67149  -9857968.55049  22440762.6714   22440770.4754
  20517636.125    -1458470.64349  -1134639.12949  20517638.4304   20517645.4524
  20799970.903   -14393845.06049 -11190289.68949  20799973.5134   20799981.1234
  20881492.100    -1199859.66749   -931865.53949  20881494.5424   20881502.7384
 95  2  5 16 48 29.9970000  0  6  1 22 29 25 14 15
  23673678.138     4244314.66449   3287390.92949  23673680.0514   23673689.9334
  22301698.653   -15520341.33849 -12077497.68449  22301699.3744   22301708.3664
  22419906.868   -12772482.08749  -9943361.32649  22419908.7164   22419916.4474
  20518560.326    -1453612.04149  -1130853.21849  20518563.1564   20518570.1374
  20777168.335   -14513675.94749 -11283664.39849  20777170.4364   20777177.8544
  20883952.709    -1186930.17949   -921790.63349  20883954.8114   20883963.1494
 95  2  5 16 48 59.9970000  0  6  1 22 29 25 14 15
  23678180.209     4267990.96449   3305839.89949  23678185.2924   23678194.8964
  22275897.351   -15655915.69249 -12183140.00549  22275900.6564   22275909.6364
  22399055.758   -12882048.69449 -10028737.89449  22399059.0554   22399066.6184
  20519541.206    -1448458.64249  -1126837.59849  20519543.8714   20519550.8564
  20754386.753   -14633392.36149 -11376949.91149  20754389.1184   20754396.6544
  20886483.787    -1173628.93249   -911426.04549  20886485.8444   20886494.2234
 95  2  5 16 49 29.9970000  0  6  1 22 29 25 14 15
  23682662.264     4291559.86149   3324205.16649  23682670.0254   23682680.4104
  22250117.957   -15791387.95249 -12288702.76649  22250120.8824   22250130.0114
  22378208.359   -12991604.46349 -10114106.01949  22378211.2744   22378218.7814
  20520578.111    -1443013.29749  -1122594.48349  20520580.0114   20520587.0124
  20731633.038   -14752963.66249 -11470122.34949  20731635.3974   20731643.0294
  20889085.247    -1159960.72949   -900775.52049  20889086.9584   20889095.2234
 95  2  5 16 49 59.9970000  0  6  1 22 29 25 14 15
  23687131.970     4315032.73049   3342495.63549  23687136.8254   23687146.8804
  22224358.839   -15926757.60449 -12394185.59249  22224360.9184   22224369.7364
  22357360.257   -13101168.64049 -10199480.69249  22357362.0344   22357369.6664
  20521668.740    -1437279.62549  -1118126.70349  20521671.0974   20521678.1124
  20708908.218   -14872383.83449 -11563177.02449  20708910.6454   20708918.1514
  20891753.793    -1145937.88949   -889848.65449  20891755.3474   20891763.7954
 95  2  5 16 50 29.9970000  0  6  1 22 29 25 14 15
  23691591.394     4338428.39949   3360725.92949  23691588.6484   23691599.1164
  22198621.430   -16062015.94349 -12499581.67149  22198621.9344   22198630.6094
  22336507.603   -13210742.82849 -10284863.16349  22336510.8374   22336518.3404
  20522817.024    -1431245.83249  -1113425.05649  20522819.4694   20522826.3944
  20686215.137   -14991634.83149 -11656099.87449  20686217.8034   20686225.3504
  20894489.760    -1131553.22849   -878639.84749  20894492.6864   20894500.9854
 95  2  5 16 50 59.9970000  0  6  1 22 29 25 14 15
  23696020.675     4361739.28049   3378890.16649  23696025.5844   23696035.1074
  22172903.420   -16197153.89149 -12604883.93949  22172906.0374   22172914.8724
  22315650.902   -13320350.20349 -10370271.49849  22315653.1674   22315660.7634
  20524021.638    -1424914.15649  -1108491.29949  20524024.2134   20524031.2174
  20663558.818   -15110698.43149 -11748876.70049  20663560.7794   20663568.3584
  20897295.272    -1116813.84249   -867154.63449  20897297.5404   20897305.8804
 95  2  5 16 51 29.9970000  0  6  1 22 29 25 14 15
  23700443.594     4384965.62149   3396988.52749  23700445.4674   23700455.0824
  22147211.589   -16332175.67049 -12710095.68549  22147212.1014   22147220.8174
  22294783.827   -13430004.66149 -10455716.52649  22294786.6004   22294794.1184
  20525282.906    -1418285.54749  -1103326.16449  20525285.6894   20525292.6504
  20640939.573   -15229558.41049 -11841494.86149  20640942.4394   20640950.0584
  20900167.289    -1101722.26649   -855394.98349  20900169.4864   20900177.6954
 95  2  5 16 51 59.9970000  0  6  1 22 29 25 14 15
  23704834.893     4408088.66249   3415006.40749  23704845.3764   23704855.2544
  22121535.801   -16467098.92849 -12815230.65249  22121537.3044   22121545.9144
  22273909.813   -13539695.67349 -10541190.04349  22273913.2354   22273920.5734
  20526598.931    -1411370.86449  -1097938.11849  20526601.3834   20526608.4484
  20618360.186   -15348218.07949 -11933956.93449  20618362.4594   20618370.1704
  20903105.090    -1086281.44049   -843363.19249  20903107.7814   20903115.9444
 95  2  5 16 52 29.9970000  0  6  1 22 29 25 14 15
  23709223.512     4431087.53049   3432927.51649  23709222.3194   23709231.7704
  22095877.599   -16601938.12749 -12920300.12949  22095878.2974   22095886.7104
  22253030.731   -13649419.95449 -10626689.47649  22253033.4894   22253040.7334
  20527966.273    -1404183.65349  -1092337.71249  20527969.0154   20527976.1474
  20595816.953   -15466682.77449 -12026267.08549  20595819.4104   20595826.9304
  20906111.269    -1070492.73849   -831060.33149  20906112.2784   20906120.5024
 95  2  5 16 52 59.9970000  0  6  1 22 29 25 14 15
  23713594.498     4454059.82749   3450827.93349  23713593.7564   23713603.2564
  22070253.617   -16736582.35949 -13025217.67749  22070256.3334   22070264.8234
  22232168.153   -13759053.57749 -10712118.27349  22232170.7344   22232177.9514
  20529403.515    -1396633.43849  -1086454.44549  20529405.7704   20529412.8824
  20573327.025   -15584867.98849 -12118359.45749  20573329.6284   20573337.1164
  20909200.711    -1054252.84049   -818405.88549  20909202.6414   20909211.0294
 95  2  5 16 53 29.9970000  0  6  1 22 29 25 14 15
  23717938.708     4476891.68349   3468618.91349  23717939.1364   23717948.2774
  22044646.247   -16871158.58049 -13130082.22149  22044647.0944   22044655.8044
  22211303.813   -13868696.96349 -10797554.67149  22211306.1954   22211313.1474
  20530884.611    -1388849.69149  -1080389.20449  20530887.0524   20530894.0504
  20550860.670   -15702930.08749 -12210355.89849  20550863.0934   20550870.8084
  20912353.066    -1037687.85049   -805498.12049  20912354.8974   20912363.2394
 95  2  5 16 53 59.9970000  0  6  1 22 29 25 14 15
  23722259.334     4499592.22449   3486307.56949  23722258.6684   23722267.8874
  22019051.902   -17005652.66349 -13234882.78349  22019053.9124   22019062.4804
  22190438.210   -13978339.69049 -10882990.55749  22190441.8574   22190449.0904
  20532409.581    -1380835.44149  -1074144.35349  20532412.0744   20532419.0084
  20528412.539   -15820896.42049 -12302277.71649  20528414.9924   20528422.6784
  20915567.284    -1020798.10549   -792337.30649  20915568.8874   20915577.3514
 95  2  5 16 54 29.9970000  0  6  1 22 29 25 14 15
  23726554.894     4522184.80049   3503912.09649  23726558.1114   23726567.3234
  21993479.387   -17140036.56549 -13339597.48849  21993481.2084   21993489.9914
  22169573.477   -14087985.11649 -10968428.54649  22169576.8284   22169584.2494
  20533978.535    -1372589.06849  -1067718.62249  20533981.4644   20533988.2394
  20505981.694   -15938773.01349 -12394129.60249  20505983.7414   20505991.4264
  20918841.699    -1003586.13449   -778925.40049  20918844.2884   20918852.6984
 95  2  5 16 54 59.9970000  0  6  1 22 29 25 14 15
  23730841.674     4544706.98849   3521461.78049  23730843.9094   23730853.3384
  21967935.243   -17274266.44349 -13444192.15949  21967938.1814   21967946.9404
  22148711.715   -14197618.99749 -11053857.54249  22148714.1624   22148721.6624
  20535594.237    -1364099.85049  -1061103.66549  20535597.0064   20535603.6874
  20483572.129   -16056533.88449 -12485891.32249  20483574.6044   20483582.2444
  20922181.000     -986042.06249   -765254.72149  20922182.7724   20922191.2104
 95  2  5 16 55 29.9970000  0  6  1 22 29 25 14 15
  23735115.810     4567161.44149   3538958.66349  23735117.0624   23735127.0184
  21942425.054   -17408333.74049 -13548660.14849  21942426.0724   21942434.9244
  22127849.244   -14307252.72849 -11139286.41449  22127851.5214   22127859.1254
  20537257.480    -1355359.02349  -1054292.65049  20537260.3844   20537266.9964
  20461191.637   -16174145.52649 -12577536.75749  20461193.7964   20461201.5034
  20925582.531     -968167.58849   -751326.58349  20925584.3894   20925592.5754
 95  2  5 16 55 59.9970000  0  6  1 22 29 25 14 15
  23739367.474     4589524.07049   3556384.00749  23739372.6094   23739382.5734
  21916941.460   -17542247.65949 -13653008.62949  21916942.9234   21916951.9714
  22106980.075   -14416916.96549 -11224739.05749  22106983.1894   22106990.8174
  20538966.735    -1346381.37049  -1047297.09349  20538968.7714   20538975.4444
  20438841.498   -16291593.30249 -12669054.49949  20438844.1994   20438852.1584
  20929042.061     -949981.31649   -737155.49149  20929044.9934   20929053.4184
 95  2  5 16 56 29.9970000  0  6  1 22 29 25 14 15
  23743603.569     4611775.95749   3573723.05049  23743607.2564   23743617.2824
  21891484.365   -17676024.02349 -13757249.91549  21891485.9364   21891494.9994
  22086102.231   -14526630.96249 -11310230.47349  22086105.2564   22086113.1194
  20540718.072    -1337176.44049  -1040124.43849  20540720.4744   20540727.0374
  20416526.826   -16408860.72349 -12760431.71249  20416529.0344   20416536.7864
  20932560.049     -931500.17549   -722754.63049  20932561.9544   20932570.3064
 95  2  5 16 56 59.9970000  0  6  1 22 29 25 14 15
  23747814.818     4633883.73449   3590949.80349  23747814.1534   23747824.2154
  21866049.460   -17809689.46549 -13861404.77449  21866050.6934   21866059.3894
  22065212.281   -14636413.59249 -11395775.36849  22065214.5694   22065222.3934
  20542511.107    -1327753.53049  -1032781.92249  20542513.6854   20542520.3444
  20394247.175   -16525939.88449 -12851662.22449  20394249.6254   20394257.3994
  20936131.512     -912733.89249   -708131.57849  20936133.1854   20936141.3554
 95  2  5 16 57 29.9970000  0  6  1 22 29 25 14 15
  23751988.319     4655826.43549   3608047.92449  23751989.7484   23751999.5194
  21840632.771   -17943252.04049 -13965479.48449  21840634.2944   21840643.2304
  22044307.576   -14746268.38649 -11481376.48749  22044309.9504   22044317.6754
  20544346.150    -1318109.69349  -1025267.26249  20544348.7534   20544355.4114
  20372003.009   -16642834.57849 -12942749.00049  20372005.2104   20372012.9244
  20939756.358     -893682.09449   -693286.04949  20939758.6304   20939766.7984
 95  2  5 16 57 59.9970000  0  6  1 22 29 25 14 15
  23756133.004     4677599.09049   3625013.54649  23756133.1244   23756142.7354
  21815234.778   -18076714.05249 -14069475.82749  21815237.5164   21815246.2984
  22023388.713   -14856198.01049 -11567035.91349  22023391.0464   22023398.7854
  20546221.070    -1308255.93349  -1017589.01949  20546223.6504   20546230.3424
  20349791.604   -16759556.64749 -13033701.25949  20349793.8854   20349801.4944
  20943436.540     -874346.11949   -678219.07849  20943438.0154   20943446.4234
 95  2  5 16 58 29.9970000  0  6  1 22 29 25 14 15
  23760233.880     4699175.21449   3641826.01749  23760238.7554   23760248.9004
  21789855.844   -18210084.74949 -14173401.02249  21789858.1214   21789866.7424
  22002451.082   -14966220.28649 -11652767.53849  22002454.6444   22002462.3294
  20548129.346    -1298230.42149  -1009776.94649  20548131.6194   20548138.3684
  20327609.020   -16876124.19749 -13124533.11549  20327611.6994   20327619.3424
  20947165.348     -854746.65749   -662946.79849  20947167.6064   20947176.1434
 95  2  5 16 58 59.9970000  0  6  1 22 29 25 14 15
  23764308.368     4720574.91949   3658501.02549  23764310.9534   23764320.8144
  21764496.695   -18343344.62349 -14277239.86349  21764499.2754   21764507.9974
  21981502.213   -15076311.78749 -11738553.10149  21981504.8784   21981512.4314
  20550071.068    -1288024.41749  -1001824.22949  20550073.7244   20550080.5004
  20305458.434   -16992527.71849 -13215237.15649  20305460.7894   20305468.4104
  20950948.465     -834867.80249   -647456.80749  20950950.4884   20950959.0244
 95  2  5 16 59 29.9970000  0  6  1 22 29 25 14 15
  23768347.134     4741815.18049   3675051.77449  23768352.5274   23768362.9344
  21739160.404   -18476485.30649 -14380985.82749  21739163.5554   21739172.2614
  21960543.812   -15186454.72549 -11824378.74449  21960545.3734   21960552.9774
  20552049.550    -1277626.80949   -993722.21149  20552052.3214   20552059.2404
  20283337.258   -17108770.98649 -13305816.31749  20283340.4874   20283348.1654
  20954784.513     -814707.28749   -631747.33649  20954787.0314   20954795.5654
 95  2  5 16 59 59.9970000  0  6  1 22 29 25 14 15
  23772367.662     4762916.64749   3691494.39349  23772368.0504   23772379.0044
  21713851.042   -18609492.16749 -14484627.51949  21713853.2574   21713861.9274
  21939575.647   -15296632.42249 -11910231.47049  21939579.0534   21939586.7584
  20554067.103    -1267025.17049   -985461.20649  20554069.7524   20554076.7374
  20261251.034   -17224836.60649 -13396257.05449  20261253.8684   20261261.5564
  20958676.162     -794258.57349   -615813.30049  20958678.1864   20958686.9184
 95  2  5 17  0 29.9970000  0  6  1 22 29 25 14 15
  23776352.894     4783874.91249   3707825.43049  23776356.4744   23776366.9804
  21688565.068   -18742369.19549 -14588168.04749  21688567.4504   21688576.2404
  21918603.630   -15406844.93149 -11996111.32149  21918606.3054   21918613.9294
  20556121.689    -1256225.85049   -977046.16249  20556124.6354   20556131.7204
  20239196.814   -17340735.49049 -13486567.86549  20239198.9364   20239206.8734
  20962618.390     -773539.88949   -599668.89549  20962620.8604   20962629.6024
 95  2  5 17  0 59.9970000  0  6  1 22 29 25 14 15
  23780316.790     4804698.12549   3724051.20749  23780318.9684   23780329.6924
  21663303.591   -18875121.20749 -14691611.15849  21663305.6704   21663314.4314
  21897622.655   -15517094.02749 -12082019.68749  21897626.4474   21897633.9234
  20558219.599    -1245202.14349   -968456.27749  20558222.4484   20558229.5374
  20217170.077   -17456482.65449 -13576760.45549  20217172.8064   20217180.7194
  20966612.927     -752556.12749   -583317.93649  20966614.0414   20966622.6224
 95  2  5 17  1 29.9970000  0  6  1 22 29 25 14 15
  23784259.105     4825399.58849   3740182.11449  23784258.4554   23784268.9694
  21638069.500   -19007727.39049 -14794940.63349  21638071.3894   21638080.2624
  21876640.208   -15627367.30949 -12167946.90249  21876642.1034   21876649.5834
  20560360.788    -1233951.56949   -959689.61049  20560363.2104   20560370.3644
  20195173.569   -17572076.88049 -13666833.87149  20195175.9484   20195183.9194
  20970655.068     -731307.79249   -566760.81449  20970657.4514   20970666.0604
 95  2  5 17  1 59.9970000  0  6  1 22 29 25 14 15
  23788174.448     4845990.85449   3756227.15249  23788176.9234   23788187.8694
  21612865.350   -19140177.02949 -14898148.12749  21612866.9944   21612875.7984
  21855654.120   -15737651.51149 -12253882.62449  21855655.6604   21855663.0864
  20562544.146    -1222479.15849   -950750.08649  20562546.5764   20562553.7624
  20173208.858   -17687503.16149 -13756776.42249  20173211.2924   20173219.2844
  20974750.057     -709790.52249   -549994.13549  20974752.1284   20974760.6604
 95  2  5 17  2 29.9970000  0  6  1 22 29 25 14 15
  23792069.468     4866470.27749   3772185.04949  23792073.8504   23792085.4944
  21587689.283   -19272475.95649 -15001238.18349  21587691.3664   21587700.2944
  21834661.680   -15847961.32049 -12339838.30049  21834664.4414   21834671.7944
  20564767.364    -1210790.87849   -941642.35049  20564770.6494   20564777.9314
  20151274.999   -17802765.96749 -13846591.59149  20151277.5254   20151285.4014
  20978893.593     -688012.82149   -533024.52049  20978896.2054   20978904.8634
 95  2  5 17  2 59.9970000  0  6  1 22 29 25 14 15
  23795949.515     4886834.80749   3788053.41149  23795949.4244   23795960.0614
  21562539.108   -19404642.33449 -15104224.96049  21562541.1494   21562549.7934
  21813664.314   -15958306.51549 -12425821.54849  21813666.4534   21813673.6494
  20567029.929    -1198904.58349   -932380.32049  20567032.5914   20567039.8174
  20129373.498   -17917859.11549 -13936274.55849  20129376.0284   20129383.8374
  20983085.947     -665981.06249   -515856.94249  20983088.6464   20983097.3724
 95  2  5 17  3 29.9960000  0  6  1 22 29 25 14 15
  23799798.958     4907078.05449   3803827.25849  23799801.7374   23799812.5184
  21537414.304   -19536675.78049 -15207108.14449  21537415.7404   21537424.4834
  21792659.596   -16068688.26549 -12511833.27249  21792661.4374   21792668.7334
  20569323.808    -1186850.37349   -922987.44649  20569326.4604   20569333.7264
  20107508.609   -18032758.99549 -14025806.92749  20107511.1464   20107519.0874
  20987326.005     -643701.14849   -498495.99049  20987328.4004   20987337.0234
 95  2  5 17  3 59.9960000  0  6  1 22 29 25 14 15
  23803629.765     4927190.95749   3819499.52149  23803629.2984   23803639.4884
  21512314.183   -19668581.30649 -15309891.65449  21512315.0444   21512323.8574
  21771640.116   -16179142.56549 -12597901.52549  21771642.6584   21771649.9054
  20571648.590    -1174631.34549   -913466.14049  20571651.6344   20571658.8674
  20085681.165   -18147462.74249 -14115186.46149  20085683.8374   20085691.6694
  20991613.297     -621171.45949   -480940.41149  20991615.6284   20991624.3964
 95  2  5 17  4 29.9960000  0  6  1 22 29 25 14 15
  23807432.808     4947181.39649   3835076.37949  23807433.0234   23807444.3704
  21487245.250   -19800323.43149 -15412547.83949  21487245.2424   21487254.1964
  21750607.387   -16289665.80949 -12684023.50649  21750610.8144   21750618.0034
  20574007.157    -1162237.06649   -903808.27949  20574010.3444   20574017.5094
  20063894.790   -18261950.68249 -14204397.83649  20063897.6074   20063905.3194
  20995950.491     -598382.23449   -463182.59549  20995952.3574   20995961.1094
 95  2  5 17  4 59.9960000  0  6  1 22 29 25 14 15
  23811205.991     4967046.56249   3850555.62649  23811214.0494   23811223.8954
  21462209.100   -19931885.81249 -15515063.95949  21462209.8024   21462218.7634
  21729565.664   -16400243.96249 -12770188.26949  21729568.4904   21729575.5484
  20576398.565    -1149670.84949   -894016.43949  20576401.5164   20576408.7644
  20042149.879   -18376221.43849 -14293439.97749  20042152.4434   20042160.2554
  21000336.358     -575332.42549   -445221.72649  21000338.7244   21000347.3624
 95  2  5 17  5 29.9960000  0  5 22 29 25 14 15
  21437210.339   -20063247.18149 -15617423.45449  21437212.7174   21437221.6034
  21708512.512   -16510884.41749 -12856401.59149  21708514.3304   21708521.4664
  20578824.594    -1136926.43649   -884085.75049  20578826.6714   20578833.9264
  20020442.903   -18490291.43949 -14382325.68549  20020445.9084   20020453.6284
  21004770.797     -552028.62149   -427062.93949  21004773.1984   21004781.9574
 95  2  5 17  5 59.9960000  0  5 22 29 25 14 15
  21412252.276   -20194405.93349 -15719625.06549  21412253.9994   21412262.8634
  21687448.893   -16621572.73449 -12942652.20049  21687451.2024   21687458.1044
  20581286.027    -1123988.15749   -874003.99249  20581288.7694   20581296.0654
  19998773.383   -18604168.62849 -14471061.15249  19998775.7684   19998783.4484
  21009254.386     -528471.36449   -408706.65649  21009256.0984   21009264.7444
 95  2  5 17  6 29.9960000  0  5 22 29 25 14 15
  21387330.295   -20325372.32049 -15821676.78049  21387331.7784   21387340.5474
  21666382.227   -16732273.31349 -13028912.36449  21666385.5324   21666392.4734
  20583788.330    -1110841.52249   -863759.87949  20583790.6644   20583797.9034
  19977141.696   -18717844.21149 -14559639.52349  19977144.1494   19977151.7224
  21013784.790     -504659.77849   -390152.19749  21013787.3494   21013796.0754
 95  2  5 17  6 59.9960000  0  5 22 29 25 14 15
  21362441.529   -20456165.29449 -15923593.37149  21362442.7274   21362451.2124
  21645313.303   -16842991.57149 -13115186.30349  21645316.5394   21645323.7614
  20586327.773    -1097494.33449   -853359.49549  20586330.6104   20586337.7604
  19955545.174   -18831333.38549 -14648072.64049  19955547.7054   19955555.3284
  21018360.798     -480612.03049   -371413.71649  21018363.6104   21018372.3484
 95  2  5 17  7 29.9960000  0  5 22 29 25 14 15
  21337580.669   -20586808.81949 -16025393.50449  21337581.9384   21337590.7234
  21624237.927   -16953746.45849 -13201488.78749  21624240.3844   21624247.8804
  20588903.378    -1083960.12449   -842813.38149  20588906.0924   20588913.2184
  19933983.440   -18944640.21549 -14736363.67549  19933986.2274   19933993.7764
  21022977.885     -456348.83549   -352507.35549  21022980.6364   21022989.3844
 95  2  5 17  7 59.9960000  0  5 22 29 25 14 15
  21312748.206   -20717300.86349 -16127075.60049  21312750.2024   21312758.8064
  21603155.753   -17064533.02649 -13287815.95649  21603158.4074   21603165.9124
  20591512.598    -1070247.32349   -832128.10449  20591515.6324   20591522.8414
  19912460.137   -19057750.39549 -14824501.47349  19912462.0244   19912469.6514
  21027635.948     -431871.87449   -333434.42049  21027638.5104   21027647.1464
 95  2  5 17  8 29.9960000  0  5 22 29 25 14 15
  21287951.250   -20847612.07649 -16228616.78749  21287952.8214   21287961.3754
  21582067.677   -17175349.66449 -13374166.56049  21582070.5854   21582078.0194
  20594156.122    -1056353.58549   -821301.83649  20594159.4394   20594166.7544
  19890976.209   -19170645.41249 -14912471.61449  19890978.6644   19890986.3954
  21032336.102     -407175.39149   -314190.43449  21032338.1254   21032346.6654
 95  2  5 17  8 59.9960000  0  5 22 29 25 14 15
  21263196.274   -20977703.62249 -16329986.80749  21263197.1074   21263205.8274
  21560974.040   -17286196.68149 -13460540.83349  21560977.0434   21560984.5904
  20596836.036    -1042277.09049   -810333.15949  20596838.1884   20596845.4134
  19869536.959   -19283307.10149 -15000259.93549  19869539.8934   19869547.5904
  21037079.745     -382242.83449   -294762.48649  21037082.7754   21037091.0924
 95  2  5 17  9 29.9960000  0  5 22 29 25 14 15
  21238479.288   -21107588.79149 -16431196.00549  21238481.0034   21238489.4434
  21539868.813   -17397102.88449 -13546961.23049  21539872.3594   21539879.7724
  20599543.884    -1028042.82049   -799241.54049  20599546.9134   20599554.0994
  19848143.175   -19395732.46549 -15087864.11149  19848146.0504   19848153.7494
  21041867.480     -357086.25849   -275159.98349  21041869.7704   21041878.2424
 95  2  5 17  9 59.9960000  0  5 22 29 25 14 15
  21213805.035   -21237252.86749 -16532232.93449  21213806.6674   21213815.3464
  21518753.795   -17508065.38049 -13633425.48149  21518757.0864   21518764.0194
  20602282.580    -1013652.56749   -788028.38049  20602285.1554   20602292.4404
  19826795.554   -19507917.71049 -15175281.18249  19826797.7294   19826805.4284
  21046697.660     -331699.59049   -255378.17949  21046700.7064   21046709.3534
 95  2  5 17 10 29.9960000  0  5 22 29 25 14 15
  21189169.760   -21366707.65749 -16633106.77549  21189172.0894   21189180.5124
  21497627.050   -17619086.16049 -13719935.16349  21497630.4984   21497637.5474
  20605050.589     -999102.83849   -776690.94949  20605053.9764   20605061.2114
  19805493.466   -19619860.71449 -15262509.48949  19805495.8634   19805503.6464
  21051571.430     -306085.97949   -235419.54949  21051574.7614   21051583.5534
 95  2  5 17 10 59.9960000  0  5 22 29 25 14 15
  21164575.350   -21495959.50849 -16733822.47949  21164576.2914   21164584.6674
  21476491.756   -17730157.29949 -13806484.08549  21476494.1524   21476501.2654
  20607850.643     -984394.25249   -765229.73449  20607852.9194   20607860.1564
  19784238.383   -19731556.04849 -15349544.81149  19784240.9084   19784248.5864
  21056489.972     -280241.88949   -215281.32649  21056492.7404   21056501.5064
 95  2  5 17 11 29.9960000  0  5 22 29 25 14 15
  21140016.836   -21625016.48849 -16834386.33749  21140017.6274   21140026.2784
  21455349.061   -17841264.38749 -13893061.01949  21455351.1824   21455358.3454
  20610678.898     -969526.41249   -753644.42549  20610682.2384   20610689.4304
  19763029.649   -19843005.89849 -15436388.84549  19763032.6314   19763040.3784
  21061451.661     -254174.31649   -194968.95949  21061453.4144   21061461.9904
 95  2  5 17 11 59.9960000  0  5 22 29 25 14 15
  21115496.860   -21753867.37349 -16934789.59549  21115498.0504   21115506.5394
  21434202.743   -17952383.54949 -13979647.36049  21434206.1024   21434213.2024
  20613541.075     -954489.76549   -741927.57449  20613543.6144   20613550.7444
  19741864.575   -19954231.44249 -15523058.09849  19741867.1664   19741874.9424
  21066452.413     -227889.19549   -174487.07849  21066455.2924   21066463.6854
 95  2  5 17 12 29.9960000  0  5 22 29 25 14 15
  21091020.303   -21882493.43849 -17035017.66649  21091021.2824   21091029.7854
  21413058.513   -18063496.76249 -14066229.07849  21413061.9964   21413068.9384
  20616435.882     -939273.25849   -730070.57149  20616439.2794   20616446.5614
  19720744.851   -20065217.41149 -15609540.67049  19720747.1814   19720754.9754
  21071496.828     -201383.63949   -153833.42649  21071499.1384   21071507.6674
 95  2  5 17 12 59.9960000  0  5 22 29 25 14 15
  21066589.266   -22010872.39549 -17135053.19049  21066591.6124   21066599.9914
  21391916.454   -18174603.66649 -14152805.86749  21391918.9554   21391926.0704
  20619366.096     -923877.47849   -718073.87549  20619368.8894   20619375.8564
  19699669.630   -20175968.13349 -15695839.92549  19699672.0674   19699679.7114
  21076582.466     -174657.54049   -133007.92149  21076584.8194   21076593.3814
 95  2  5 17 13 29.9960000  0  5 22 29 25 14 15
  21042208.062   -22138992.77649 -17234887.21649  21042211.1904   21042219.7214
  21370770.051   -18285721.14549 -14239390.90649  21370774.0604   21370781.3854
  20622329.277     -908305.24849   -705939.68749  20622332.2244   20622339.0714
  19678637.290   -20286493.66149 -15781963.70749  19678639.8954   19678647.4474
  21081708.173     -147717.43449   -112015.66849  21081711.5024   21081720.0404
 95  2  5 17 13 59.9960000  0  5 22 29 25 14 15
  21017879.558   -22266850.75049 -17334516.77749  21017880.6384   21017889.0014
  21349620.640   -18396864.46449 -14325996.07249  21349624.2224   21349631.3504
  20625326.885     -892549.98349   -693662.87349  20625330.1904   20625337.0644
  19657648.205   -20396789.05949 -15867908.17049  19657651.4544   19657659.0604
  21086876.606     -120565.08649    -90858.02249  21086878.5534   21086886.9244
 95  2  5 17 14 29.9960000  0  5 22 29 25 14 15
  20993599.777   -22394438.73949 -17433935.95349  20993601.5554   20993609.8474
  21328461.584   -18508057.15849 -14412639.71449  21328465.0014   21328472.0134
  20628359.293     -876618.55049   -681248.78449  20628362.0644   20628368.8944
  19636705.757   -20506842.34349 -15953663.96949  19636708.9514   19636716.5514
  21092082.551      -93200.82749    -69535.25549  21092085.8134   21092094.0984
 95  2  5 17 14 59.9960000  0  5 22 29 25 14 15
  20969370.407   -22521771.93149 -17533156.58949  20969370.7124   20969379.1824
  21307288.399   -18619326.52749 -14499343.10549  21307291.1684   21307298.2324
  20631420.448     -860530.46149   -668712.62349  20631423.4274   20631430.2984
  19615807.549   -20616666.69949 -16039241.38649  19615809.9194   19615817.4944
  21097329.841      -65629.02749    -48050.76849  21097332.6494   21097341.0894
 95  2  5 17 15 29.9960000  0  5 22 29 25 14 15
  20945182.027   -22648876.93449 -17632199.41649  20945183.4024   20945191.8274
  21286096.497   -18730684.36749 -14586115.43649  21286100.5384   21286107.5564
  20634508.028     -844306.77949   -656070.80649  20634510.6564   20634517.5004
  19594952.281   -20726265.75649 -16124643.24649  19594953.9494   19594961.5644
  21102611.794      -37870.21549    -26420.55549  21102614.8494   21102623.3244
 95  2  5 17 15 59.9960000  0  5 22 29 25 14 15
  20921040.736   -22775736.02849 -17731050.62849  20921042.7434   20921051.4354
  21264896.125   -18842096.59649 -14672930.15449  21264899.4114   21264906.3794
  20637625.411     -827925.55349   -643306.23549  20637627.9694   20637635.0364
  19574144.775   -20835604.74249 -16209842.45649  19574147.4654   19574155.1284
  21107932.198       -9913.26949     -4635.95449  21107934.8224   21107943.5554
 95  2  5 17 16 29.9960000  0  5 22 29 25 14 15
  20896946.048   -22902349.38049 -17829710.34749  20896948.7704   20896957.5594
  21243687.586   -18953551.89049 -14759778.41949  21243690.1574   21243697.1184
  20640769.545     -811400.70849   -630429.74249  20640772.5064   20640779.4514
  19553390.287   -20944673.78249 -16294831.31249  19553392.3004   19553399.9774
  21113289.211       18234.40249     17297.26149  21113291.3484   21113300.0184
 95  2  5 17 16 59.9960000  0  5 22 29 25 14 15
  20872899.333   -23028722.35949 -17928182.76749  20872900.8514   20872909.6934
  21222475.034   -19065023.51749 -14846639.41149  21222477.5794   21222484.8914
  20643941.317     -794734.64949   -617443.21849  20643943.9204   20643950.9414
  19532688.572   -21053458.23949 -16379598.41749  19532691.1264   19532699.0234
  21118680.488       46568.31749     39375.59949  21118683.0944   21118691.8224
 95  2  5 17 17 29.9950000  0  5 22 29 25 14 15
  20848905.840   -23154810.26649 -18026433.04549  20848907.2654   20848916.1514
  21201268.427   -19176461.77549 -14933474.40049  21201271.6054   21201278.9374
  20647145.817     -777895.60449   -604321.89749  20647148.4504   20647155.4794
  19512049.893   -21161914.44449 -16464109.74049  19512052.6124   19512060.4714
  21124109.040       75099.35649     61607.54249  21124112.3704   21124121.1634
 95  2  5 17 17 59.9950000  0  5 22 29 25 14 15
  20824967.528   -23280603.28549 -18124453.54949  20824969.7294   20824978.2754
  21180067.226   -19287871.41749 -15020287.09049  21180070.8844   21180078.3744
  20650384.674     -760877.86549   -591061.33949  20650386.7694   20650393.8364
  19491474.488   -21270042.62949 -16548365.46449  19491476.6034   19491484.4654
  21129577.537      103832.18549     83996.72449  21129580.0504   21129588.9734
 95  2  5 17 18 29.9950000  0  5 22 29 25 14 15
  20801083.157   -23406114.50649 -18222254.46849  20801085.7114   20801094.3294
  21158867.754   -19399273.90749 -15107094.20349  21158871.5324   21158879.1244
  20653648.452     -743719.12249   -577690.90249  20653651.9734   20653659.0294
  19470955.542   -21377866.98349 -16632384.43649  19470958.3594   19470966.1924
  21135080.872      132746.78349    106527.54149  21135082.3884   21135091.2364
 95  2  5 17 18 59.9950000  0  5 22 29 25 14 15
  20777251.309   -23531353.97349 -18319843.63349  20777253.3734   20777261.8784
  21137664.168   -19510702.43449 -15193921.61049  21137667.3774   21137675.0634
  20656935.184     -726449.54049   -564234.10349  20656938.3004   20656945.3594
  19450489.945   -21485414.00049 -16716187.30449  19450492.8984   19450500.7114
  21140612.153      161819.39149    129181.48349  21140614.9324   21140623.5424
 95  2  5 17 19 29.9950000  0  5 22 29 25 14 15
  20753472.462   -23656310.28049 -18417212.15549  20753475.0514   20753483.5484
  21116454.627   -19622161.43849 -15280772.76249  21116457.4184   21116465.1404
  20660246.282     -709054.96849   -550679.91049  20660248.4914   20660255.5224
  19430078.454   -21592678.10149 -16799769.71649  19430081.2264   19430089.0434
  21146175.879      191062.87149    151968.57249  21146179.8964   21146188.5154
 95  2  5 17 19 59.9950000  0  5 22 29 25 14 15
  20729745.493   -23781002.93149 -18514375.22949  20729746.5244   20729755.3004
  21095235.615   -19733665.42249 -15367658.96349  21095238.7814   21095246.6794
  20663577.596     -691547.59549   -537037.82649  20663580.1054   20663587.0374
  19409717.988   -21699674.59749 -16883143.60849  19409720.4124   19409728.2824
  21151773.845      220476.26049    174888.05549  21151776.9194   21151785.6444
 95  2  5 17 20 29.9950000  0  5 22 29 25 14 15
  20706065.944   -23905433.48649 -18611334.07349  20706068.1674   20706077.0124
  21074008.777   -19845211.68949 -15454578.10749  21074012.1824   21074020.0834
  20666928.467     -673934.69549   -523313.51049  20666931.6534   20666938.7014
  19389408.444   -21806401.54349 -16966307.45749  19389411.0964   19389418.8944
  21157403.355      250058.55949    197939.16149  21157406.3674   21157414.9844
 95  2  5 17 20 59.9950000  0  5 22 29 25 14 15
  20682435.970   -24029613.77349 -18708097.90549  20682437.5364   20682446.3614
  21052776.370   -19956797.52349 -15541528.08749  21052778.2284   21052786.0594
  20670303.069     -656201.47949   -509495.44249  20670306.3394   20670313.4244
  19369152.819   -21912844.34649 -17049249.89849  19369155.5754   19369163.4814
  21163063.977      279808.84149    221121.16249  21163067.6404   21163076.4784
 95  2  5 17 21 29.9950000  0  5 22 29 25 14 15
  20658851.976   -24153541.41049 -18804664.87049  20658854.9564   20658863.6464
  21031539.041   -20068397.33849 -15628488.95549  21031541.6824   21031549.1204
  20673706.442     -638316.09849   -495558.80749  20673709.8464   20673716.9484
  19348951.313   -22019002.77849 -17131970.75149  19348954.2374   19348962.1094
  21168759.427      309740.02049    244444.11949  21168763.3844   21168772.1574
 95  2  5 17 21 59.9950000  0  5 22 29 25 14 15
  20635320.276   -24277208.77149 -18901029.02049  20635321.6654   20635330.4304
  21010299.561   -20180009.48649 -15715459.44049  21010302.5054   21010309.9534
  20677140.045     -620277.70549   -481502.93849  20677142.4944   20677149.6544
  19328803.535   -22124881.48949 -17214473.64049  19328806.2974   19328814.2454
  21174489.428      339843.34949    267901.22049  21174491.8424   21174500.3954
 95  2  5 17 22 29.9950000  0  5 22 29 25 14 15
  20611838.263   -24400604.16249 -18997181.24649  20611840.4354   20611849.1844
  20989057.479   -20291635.77549 -15802440.94449  20989060.9124   20989068.0074
  20680601.957     -602084.56249   -467326.48149  20680604.6154   20680611.7764
  19308710.439   -22230471.43949 -17296751.51949  19308713.2504   19308721.1674
  21180250.361      370113.60949    291488.39449  21180252.2314   21180260.8034
 95  2  5 17 22 59.9950000  0  5 22 29 25 14 15
  20588411.748   -24523719.12449 -19093114.95749  20588412.3904   20588421.1624
  20967813.328   -20403278.52149 -15889435.27749  20967816.0154   20967823.0874
  20684095.950     -583725.63849   -453020.84949  20684098.2414   20684105.4464
  19288670.973   -22335775.98349 -17378807.00549  19288674.4304   19288682.3334
  21186040.264      400546.60249    315202.37649  21186043.3244   21186052.1844
 95  2  5 17 23 29.9950000  0  5 22 29 25 14 15
  20565043.122   -24646514.71549 -19188799.81049  20565045.1414   20565053.8994
  20946565.465   -20514937.02449 -15976441.88949  20946568.1764   20946575.1614
  20687618.838     -565212.50049   -438595.05149  20687621.1654   20687628.3994
  19268687.875   -22440790.06549 -17460636.15949  19268690.7714   19268698.6674
  21191862.665      431140.56149    339041.78049  21191865.2504   21191873.9824
 95  2  5 17 23 59.9950000  0  5 22 29 25 14 15
  20541741.531   -24768965.96949 -19284216.35049  20541743.3664   20541752.0344
  20925312.815   -20626619.08549 -16063466.85749  20925315.8364   20925322.6794
  20691167.029     -546561.73849   -424062.01249  20691170.2524   20691177.6904
  19248763.397   -22545492.27949 -17542222.29849  19248766.7324   19248774.6944
  21197715.390      461892.15149    363004.01949  21197717.1674   21197726.0074
 95  2  5 17 24 29.9950000  0  5 22 29 25 14 15
  20518507.178   -24891065.55149 -19379358.85849  20518508.5554   20518517.4034
  20904055.934   -20738326.27049 -16150511.40849  20904058.6854   20904065.4614
  20694739.338     -527787.71849   -409432.93049  20694743.0064   20694750.2624
  19228898.577   -22649884.92449 -17623567.21649  19228901.4864   19228909.5154
  21203596.355      492795.96849    387084.87749  21203597.9884   21203606.7504
 95  2  5 17 24 59.9950000  0  5 22 29 25 14 15
  20495338.037   -25012815.21849 -19474228.69849  20495340.4114   20495349.0914
  20882791.949   -20850070.62949 -16237584.92049  20882794.4604   20882801.1884
  20698332.561     -508908.53849   -394721.90049  20698335.5024   20698342.8224
  19209089.669   -22753983.75149 -17704683.18349  19209092.1154   19209100.0764
  21209501.146      523830.89449    411267.89349  21209503.9234   21209512.6564
 95  2  5 17 25 29.9950000  0  5 22 29 25 14 15
  20472240.222   -25134202.59749 -19568816.23949  20472241.1974   20472249.7964
  20861523.850   -20961835.72949 -16324674.60049  20861526.0404   20861533.5294
  20701948.416     -489909.75349   -379917.66349  20701950.9054   20701957.9384
  19189338.753   -22857773.11049 -17785558.00749  19189341.6744   19189349.4954
  21215433.365      555008.52349    435562.10549  21215436.6304   21215445.3524
 95  2  5 17 25 59.9950000  0  5 22 29 25 14 15
  20449205.733   -25255240.99549 -19663131.85049  20449208.1994   20449217.0264
  20840254.677   -21073600.51249 -16411764.02649  20840257.9294   20840265.4214
  20705588.696     -470779.29849   -365010.84049  20705591.3794   20705598.4584
  19169647.005   -22961252.98849 -17866191.67849  19169650.1364   19169657.9574
  21221395.959      586334.78049    459972.13749  21221397.8084   21221406.4834
 95  2  5 17 26 29.9950000  0  5 22 29 25 14 15
  20426236.294   -25375947.56349 -19757188.89449  20426238.6334   20426247.1454
  20818987.963   -21185361.82249 -16498850.74749  20818990.4544   20818997.8744
  20709252.883     -451518.10249   -350002.13949  20709256.6954   20709263.6334
  19150014.329   -23064422.13649 -17946583.22349  19150017.5874   19150025.4154
  21227383.629      617800.90149    484491.15649  21227385.7354   21227394.5134
 95  2  5 17 26 59.9950000  0  5 22 29 25 14 15
  20403330.426   -25496320.10949 -19850985.65949  20403332.2904   20403340.8814
  20797723.457   -21297105.16749 -16585923.46649  20797726.3514   20797733.7534
  20712947.682     -432107.45449   -334876.98149  20712950.3394   20712957.4224
  19130447.557   -23167247.39249 -18026706.79749  19130450.6104   19130458.5374
  21233400.265      649421.39649    509130.46349  21233403.0914   21233411.4934
 95  2  5 17 27 29.9950000  0  5 22 29 25 14 15
  20380485.774   -25616374.26649 -19944534.32349  20380486.8294   20380495.4214
  20776463.433   -21408826.10949 -16672978.72849  20776466.4414   20776473.8114
  20716667.368     -412560.51849   -319645.62449  20716670.0944   20716677.1124
  19110945.349   -23269728.15249 -18106561.93549  19110949.1824   19110957.1864
  21239445.980      681192.66249    533887.26049  21239448.7804   21239457.4794
 95  2  5 17 27 59.9950000  0  5 22 29 25 14 15
  20357700.305   -25736107.54349 -20037832.95549  20357702.3774   20357710.7894
  20755207.607   -21520527.81749 -16760019.00349  20755210.3234   20755217.6854
  20720409.876     -392889.18549   -304317.33149  20720413.5184   20720420.4694
  19091510.420   -23371864.08449 -18186148.37249  19091513.3224   19091521.3384
  21245518.931      713111.67649    558759.17749  21245522.8714   21245531.5124
 95  2  5 17 28 29.9950000  0  5 22 29 25 14 15
  20334976.777   -25855521.18049 -20130882.51949  20334978.6324   20334987.1734
  20733948.506   -21632242.68849 -16847069.53949  20733951.6404   20733958.9144
  20724175.380     -373101.75249   -288898.57549  20724178.7134   20724185.7534
  19072140.347   -23473650.57649 -18265462.52249  19072143.8184   19072151.8514
  21251619.702      745169.20149    583739.02849  21251623.2134   21251631.8634
 95  2  5 17 28 59.9950000  0  5 22 29 25 14 15
  20312310.008   -25974634.87849 -20223698.35549  20312312.1954   20312320.6884
  20712681.571   -21744000.86549 -16934153.82249  20712684.7634   20712692.0404
  20727957.778     -353226.16849   -273411.12449  20727960.9954   20727968.0104
  19052831.833   -23575122.03249 -18344531.18349  19052834.4134   19052842.5734
  21257740.417      777333.79649    608802.30849  21257743.9934   21257752.7504
 95  2  5 17 29 29.9950000  0  5 22 29 25 14 15
  20289701.879   -26093441.41249 -20316274.84249  20289704.0104   20289712.4544
  20691406.717   -21855804.38949 -17021273.44149  20691409.3324   20691416.4674
  20731757.700     -333258.93049   -257852.25949  20731760.5764   20731767.5914
  19033580.596   -23676286.04149 -18423360.28049  19033583.6754   19033591.7384
  21263880.677      809599.25549    633944.17749  21263883.8944   21263892.5434
 95  2  5 17 29 59.9950000  0  5 22 29 25 14 15
  20267156.282   -26211916.90849 -20408593.37449  20267158.8394   20267167.2074
  20670123.232   -21967647.49349 -17108423.90749  20670126.3124   20670133.3944
  20735577.824     -313181.73249   -242207.71449  20735581.0264   20735588.2084
  19014393.417   -23777114.73149 -18501928.09149  19014396.5994   19014404.5554
  21270042.258      841978.25749    659174.52449  21270045.2344   21270054.3654
 95  2  5 17 30 29.9950000  0  5 22 29 25 14 15
  20244676.945   -26330050.68849 -20500645.63549  20244678.7304   20244687.0954
  20648834.941   -22079516.34449 -17195594.43349  20648838.3974   20648845.4874
  20739419.391     -292995.23349   -226477.99249  20739422.3974   20739429.7094
  18995275.026   -23877584.42249 -18580216.15949  18995277.8604   18995285.7744
  21276223.875      874469.73149    684492.50949  21276228.4594   21276236.9874
 95  2  5 17 30 59.9940000  0  5 22 29 25 14 15
  20222261.288   -26447843.24349 -20592432.01049  20222263.6394   20222272.0874
  20627544.951   -22191395.02449 -17282772.61749  20627548.5414   20627555.6074
  20743279.213     -272708.38849   -210670.08449  20743282.7804   20743290.1084
  18976222.483   -23977704.09249 -18658231.48549  18976225.8144   18976233.7424
  21282426.480      907056.34849    709884.62949  21282429.1604   21282438.4234
 95  2  5 17 31 29.9940000  0  6 18 22 29 25 14 15
  23073158.254    -2338670.79559  -1799370.20559  23073163.4474   23073172.8724
  20199909.990   -26565297.12449 -20683954.47649  20199912.6254   20199921.2504
  20606253.401   -22303283.53449 -17369958.46249  20606256.8994   20606264.0054
  20747157.206     -252333.07549   -194793.24349  20747159.9474   20747167.4234
  18957237.165   -24077470.12449 -18735971.24849  18957240.8224   18957248.9154
  21288648.393      939745.64249    735356.75649  21288649.9224   21288658.7584
 95  2  5 17 31 59.9940000  0  6 18 22 29 25 14 15
  23046655.969    -2477969.31849  -1907914.47949  23046654.7084   23046664.5034
  20177628.966   -26682394.26449 -20775198.96749  20177629.6814   20177638.3274
  20584963.893   -22415163.83249 -17457137.91149  20584966.6384   20584973.7544
  20751050.555     -231871.99749   -178849.57449  20751053.6514   20751061.1774
  18938322.362   -24176871.84649 -18813427.13449  18938325.3924   18938333.4484
  21294887.260      972543.28949    760913.31949  21294891.0414   21294900.3734
 95  2  5 17 32 29.9940000  0  6 18 22 29 25 14 15
  23020130.829    -2617354.14449  -2016526.00449  23020130.8364   23020141.8454
  20155416.720   -26799110.37349 -20866146.54349  20155419.2884   20155428.0374
  20563678.056   -22527016.66149 -17544295.95149  20563681.8574   20563689.0374
  20754965.085     -211299.43649   -162819.03649  20754968.4624   20754976.0174
  18919476.183   -24275908.57849 -18890598.61049  18919479.1654   18919487.1794
  21301152.302     1005461.65049    786563.94449  21301155.3504   21301164.3064
 95  2  5 17 32 59.9940000  0  6 18 22 29 25 14 15
  22993586.318    -2756818.11049  -2125199.20049  22993592.5844   22993602.0124
  20133281.442   -26915438.11749 -20956791.50149  20133283.0474   20133291.6664
  20542397.761   -22638850.95349 -17631439.54849  20542400.5644   20542407.6434
  20758901.515     -190609.04349   -146696.68149  20758905.7504   20758913.3674
  18900696.264   -24374598.14349 -18967499.56949  18900699.3504   18900707.3514
  21307440.155     1038502.91749    812310.34049  21307442.9984   21307452.1784
 95  2  5 17 33 29.9940000  0  6 18 22 29 25 14 15
  22967036.390    -2896361.42449  -2233934.21249  22967038.3974   22967048.1684
  20111220.932   -27031365.38749 -21047124.40549  20111222.7554   20111231.3814
  20521116.252   -22750684.40549 -17718582.48949  20521119.3994   20521126.4554
  20762860.965     -169806.83549   -130487.19749  20762864.1244   20762871.9734
  18881983.448   -24472935.80149 -19044126.31449  18881986.2664   18881994.3124
  21313751.934     1071666.71449    838152.21249  21313753.7034   21313763.0014
 95  2  5 17 33 59.9940000  0  6 18 22 29 25 14 15
  22940463.172    -3035983.07749  -2342730.26649  22940469.3444   22940478.7574
  20089240.110   -27146877.42949 -21137133.74749  20089241.5234   20089250.0334
  20499834.239   -22862520.90749 -17805727.80849  20499837.5494   20499844.6884
  20766844.931     -148872.17249   -114174.50049  20766848.0214   20766855.6804
  18863336.454   -24570922.81649 -19120479.82649  18863340.0224   18863347.9514
  21320086.007     1104951.99649    864088.74849  21320087.9434   21320097.0954
 95  2  5 17 34 29.9940000  0  6 18 22 29 25 14 15
  22913880.911    -3175693.12149  -2451595.19149  22913882.8204   22913892.7074
  20067334.952   -27261987.10949 -21226829.56049  20067336.9354   20067345.3804
  20478547.258   -22974383.68449 -17892893.60049  20478550.7924   20478558.0084
  20770849.777     -127821.75049    -97771.60349  20770853.9304   20770861.5414
  18844756.924   -24668562.55349 -19196562.73449  18844759.7264   18844767.7574
  21326439.287     1138344.40349    890108.76049  21326442.1834   21326451.4404
 95  2  5 17 34 59.9940000  0  6 18 22 29 25 14 15
  22887272.441    -3315495.42349  -2560532.01049  22887279.8404   22887289.2884
  20045501.727   -27376723.46049 -21316234.47049  20045503.2844   20045511.8074
  20457252.105   -23086293.10549 -17980095.74249  20457255.0424   20457262.3004
  20774871.285     -106692.05349    -81306.93349  20774874.7464   20774882.3584
  18826241.271   -24765862.94049 -19272381.21849  18826244.0444   18826251.9924
  21332810.943     1171823.50749    916196.32149  21332813.5344   21332822.1704
 95  2  5 17 35 29.9940000  0  6 18 22 29 25 14 15
  22860658.752    -3455386.23049  -2669537.77449  22860659.4614   22860668.7854
  20023738.185   -27491089.57549 -21405350.88049  20023740.1544   20023748.5084
  20435949.363   -23198237.09449 -18067324.81549  20435952.8304   20435960.0334
  20778904.862      -85490.34449    -64786.15249  20778909.3584   20778917.1004
  18807791.613   -24862814.53049 -19347927.91149  18807794.8144   18807802.9214
  21339195.367     1205382.45549    942346.10749  21339199.0364   21339208.3224
 95  2  5 17 35 59.9940000  0  6 18 22 29 25 14 15
  22834025.247    -3595350.04649  -2778600.42849  22834025.6274   22834034.9484
  20002046.000   -27605081.37649 -21494175.62049  20002047.9664   20002056.5144
  20414646.328   -23310187.11149 -18154558.58449  20414649.5454   20414656.6444
  20782958.127      -64201.98649    -48197.85549  20782960.3384   20782968.1504
  18789411.136   -24959403.80849 -19423192.28149  18789414.3704   18789422.5444
  21345598.179     1239027.58449    968563.04249  21345601.9384   21345611.2314
 95  2  5 17 36 29.9940000  0  6 18 22 29 25 14 15
  22807367.778    -3735398.49149  -2887729.03949  22807375.0184   22807384.1014
  19980423.479   -27718706.23649 -21582714.43649  19980425.8864   19980434.3144
  20393344.145   -23422131.20949 -18241787.74549  20393347.2474   20393354.3034
  20787020.241      -42849.20049    -31559.35349  20787023.6514   20787031.5244
  18771102.199   -25055618.30749 -19498164.62049  18771105.3224   18771113.4434
  21352017.020     1272750.22149    994840.37249  21352018.8984   21352028.1174
 95  2  5 17 36 59.9940000  0  6 18 22 29 25 14 15
  22780707.811    -3875531.79149  -2996923.76449  22780708.3874   22780717.4434
  19958874.345   -27831948.99949 -21670955.51449  19958876.5544   19958885.0244
  20372045.492   -23534055.57649 -18329001.53149  20372048.6504   20372055.6754
  20791096.818      -21433.02749    -14871.45949  20791099.0814   20791106.9584
  18752865.546   -25151451.83849 -19572840.09849  18752868.8644   18752877.0244
  21358446.407     1306545.54349   1021174.35849  21358450.0744   21358459.4294
 95  2  5 17 37 29.9940000  0  6 18 22 29 25 14 15
  22754024.255    -4015750.37049  -3106184.93849  22754026.0494   22754034.6384
  19937400.613   -27944795.57149 -21758887.87049  19937402.4064   19937410.8264
  20350753.319   -23645946.53549 -18416189.28649  20350756.6454   20350763.5074
  20795185.140          55.51749      1872.82949  20795188.2654   20795196.1554
  18734703.848   -25246893.65749 -19647210.34949  18734706.9264   18734714.9954
  21364891.775     1340410.62749   1047562.67049  21364894.4984   21364903.4744
 95  2  5 17 37 59.9940000  0  6 18 22 29 25 14 15
  22727329.937    -4156044.36849  -3215504.89049  22727329.0734   22727337.0144
  19916005.177   -28057223.40249 -21846493.93349  19916008.1224   19916016.5624
  20329468.986   -23757794.79649 -18503343.77149  20329472.7254   20329479.5494
  20799290.091       21628.96949     18683.27449  20799293.6254   20799301.3644
  18716619.506   -25341925.66849 -19721261.26649  18716622.9124   18716631.0374
  21371350.801     1374359.03949   1074015.93849  21371354.4104   21371363.4774
 95  2  5 17 38 29.9940000  0  6 18 22 29 25 14 15
  22700610.502    -4296424.10549  -3324891.66249  22700615.4984   22700623.9024
  19894687.350   -28169250.24549 -21933787.53649  19894690.0344   19894698.5134
  20308187.590   -23869631.82049 -18590489.49649  20308190.8684   20308197.6264
  20803406.902       43259.48949     35538.19249  20803409.9124   20803417.6684
  18698609.155   -25436570.63449 -19795010.58949  18698612.6064   18698620.7724
  21377822.155     1408369.22749   1100517.32749  21377826.6814   21377835.9224
 95  2  5 17 38 59.9940000  0  6 18 22 29 25 14 15
  22673881.750    -4436887.92649  -3434343.95649  22673885.9734   22673894.1684
  19873444.001   -28280888.10649 -22020778.03249  19873446.0494   19873454.6164
  20286902.669   -23981485.46649 -18677648.17849  20286905.6694   20286912.5444
  20807535.487       64956.31749     52444.77949  20807538.8324   20807546.5054
  18680669.006   -25530850.39449 -19868475.33549  18680671.7554   18680679.8484
  21384305.089     1442427.28149   1127056.02349  21384307.7634   21384316.5424
 95  2  5 17 39 29.9940000  0  6 18 22 29 25 14 15
  22647139.855    -4577444.44749  -3543868.47649  22647138.8194   22647146.9314
  19852269.850   -28392156.93549 -22107480.97949  19852272.1024   19852280.7054
  20265612.021   -24093366.55949 -18764828.24749  20265615.4104   20265622.3084
  20811678.109       86728.04249     69409.72649  20811681.7494   20811689.5034
  18662795.372   -25624775.36549 -19941663.62749  18662798.4704   18662806.6664
  21390792.941     1476525.19449   1153625.77649  21390796.3634   21390805.4274
 95  2  5 17 39 59.9940000  0  6 18 22 29 25 14 15
  22620372.730    -4718099.79749  -3653470.02049  22620372.9464   22620380.8674
  19831164.802   -28503065.22249 -22193902.98649  19831166.9784   19831175.6204
  20244312.080   -24205297.79149 -18852047.38149  20244315.5344   20244322.6604
  20815833.539      108567.13049     86427.16349  20815837.7444   20815845.3194
  18644987.390   -25718355.85749 -20014583.49449  18644990.6284   18644998.8374
  21397287.411     1510653.78049   1180219.42149  21397290.8984   21397299.8604
 95  2  5 17 40 29.9940000  0  6 18 22 29 25 14 15
  22593585.146    -4858850.40849  -3763145.81149  22593588.9054   22593596.9814
  19810129.486   -28613606.59449 -22280039.08549  19810131.7414   19810140.3014
  20223003.461   -24317274.97849 -18939302.32549  20223006.9644   20223013.9544
  20820005.916      130485.52549    103506.39949  20820008.7274   20820016.3064
  18627247.573   -25811578.82049 -20087224.76549  18627250.9954   18627259.0954
  21403789.269     1544819.41749   1206841.95149  21403792.4364   21403801.3044
 95  2  5 17 40 59.9940000  0  6 18 22 29 25 14 15
  22566784.393    -4999673.64649  -3872878.18949  22566791.2064   22566798.6924
  19789170.698   -28723740.33549 -22365857.55449  19789173.9514   19789182.5314
  20201693.764   -24429255.73749 -19026560.05549  20201697.6924   20201704.8744
  20824197.183      152512.95549    120670.59649  20824200.4924   20824208.0214
  18609582.823   -25904407.44749 -20159558.75949  18609586.2404   18609594.3254
  21410304.278     1579053.23149   1233517.58849  21410306.7474   21410316.0254
 95  2  5 17 41 29.9940000  0  6 18 22 29 25 14 15
  22539973.618    -5140578.21249  -3982673.94549  22539977.2544   22539985.5024
  19768294.214   -28833450.27049 -22451345.79149  19768296.9164   19768305.4054
  20180387.508   -24541224.99949 -19113808.82749  20180390.6194   20180397.7244
  20828406.623      174632.75649    137906.77249  20828409.7564   20828417.3464
  18591996.972   -25996826.72949 -20231573.78449  18591999.4904   18592007.4034
  21416831.880     1613358.04149   1260248.56449  21416834.6594   21416843.8214
 95  2  5 17 41 59.9940000  0  6 18 22 29 25 14 15
  22513142.590    -5281594.28649  -4092556.58849  22513142.5244   22513151.4064
  19747496.863   -28942742.44249 -22536508.50049  19747499.2524   19747507.8644
  20159077.360   -24653208.59449 -19201068.76549  20159080.8354   20159088.0504
  20832623.959      196791.64149    155173.39749  20832626.3684   20832634.1014
  18574483.452   -26088859.83749 -20303287.89149  18574486.3284   18574494.1844
  21423367.908     1647704.42749   1287011.92349  21423371.0064   21423379.7224
 95  2  5 17 42 29.9940000  0  6 18 22 29 25 14 15
  22486278.506    -5422731.25349  -4202533.42349  22486285.6854   22486294.1984
  19726777.082   -29051623.10949 -22621350.55449  19726780.0374   19726788.5694
  20137766.199   -24765200.60849 -19288335.26049  20137769.4184   20137776.6144
  20836843.873      218972.38949    172457.06049  20836847.3974   20836854.9704
  18557042.062   -26180516.07249 -20374708.33249  18557044.7794   18557052.4414
  21429911.350     1682084.19049   1313801.29949  21429913.1264   21429922.2554
 95  2  5 17 42 59.9940000  0  6 18 22 29 25 14 15
  22459404.748    -5563972.80349  -4312591.73749  22459408.1384   22459416.4264
  19706137.083   -29160092.09249 -22705871.81749  19706139.0304   19706147.6064
  20116455.143   -24877192.81049 -19375601.90749  20116458.1494   20116465.2304
  20841070.555      241180.88049    189762.34049  20841073.4774   20841081.0484
  18539674.601   -26271784.43949 -20445826.54149  18539676.9484   18539684.5334
  21436459.038     1716499.57349   1340618.42549  21436462.6704   21436471.2304
 95  2  5 17 43 29.9940000  0  6 18 22 29 25 14 15
  22432503.120    -5705329.91049  -4422740.10349  22432508.7574   22432517.2724
  19685571.485   -29268163.73949 -22790083.47049  19685573.7234   19685582.2504
  20095138.975   -24989206.47549 -19462885.27549  20095142.7064   20095149.7734
  20845300.481      263413.27049    207086.24149  20845304.0674   20845311.5424
  18522378.291   -26362675.93349 -20516651.07849  18522381.0334   18522388.5584
  21443013.259     1750934.47249   1367450.76249  21443015.5284   21443023.9904
 95  2  5 17 43 59.9930000  0  6 18 22 29 25 14 15
  22405590.921    -5846779.62149  -4532960.63449  22405591.0114   22405599.9414
  19665080.220   -29375845.75749 -22873991.51749  19665082.4464   19665090.9924
  20073819.459   -25101241.61049 -19550185.37149  20073822.9864   20073830.1984
  20849536.946      285676.17949    224433.91949  20849540.7054   20849548.1894
  18505151.434   -26453198.33949 -20587188.01949  18505154.9704   18505162.5474
  21449568.487     1785385.05149   1394295.31149  21449571.1674   21449579.2934
 95  2  5 17 44 29.9930000  0  6 18 22 29 25 14 15
  22378651.569    -5988325.58749  -4643256.19649  22378656.7714   22378664.9494
  19644658.034   -29483162.13349 -22957614.65249  19644660.8244   19644669.1014
  20052495.406   -25213302.31249 -19637505.38949  20052498.6584   20052505.8344
  20853783.075      307983.09749    241815.88949  20853785.5194   20853793.0124
  18487994.797   -26543359.72349 -20657443.64449  18487998.0284   18488005.6004
  21456126.438     1819851.41749   1421152.17849  21456129.8034   21456138.6014
 95  2  5 17 44 59.9930000  0  6 18 22 29 25 14 15
  22351703.263    -6129957.13149  -4753618.42949  22351704.7484   22351713.5954
  19624310.173   -29590089.40349 -23040934.58249  19624313.0494   19624321.5134
  20031167.512   -25325379.73549 -19724838.43749  20031170.9964   20031178.1554
  20858038.153      330346.55849    259241.91849  20858041.3564   20858048.9004
  18470910.329   -26633138.43149 -20727401.07649  18470913.6644   18470921.2524
  21462688.845     1854336.08049   1448023.28149  21462692.3104   21462700.7104
 95  2  5 17 45 29.9930000  0  6 18 22 29 25 14 15
  22324740.386    -6271678.61049  -4864050.72649  22324736.2634   22324745.1734
  19604039.697   -29696612.26649 -23123939.38549  19604042.4654   19604050.9784
  20009839.351   -25437462.80349 -19812175.88749  20009842.3854   20009849.5504
  20862303.363      352754.37149    276702.50749  20862305.4324   20862312.8244
  18453897.250   -26722543.80649 -20797067.60049  18453900.3914   18453907.9584
  21469254.552     1888833.76749   1474904.54949  21469256.8794   21469265.5494
 95  2  5 17 45 59.9930000  0  6 18 22 29 25 14 15
  22297742.201    -6413495.98849  -4974557.76849  22297749.1974   22297758.6164
  19583847.027   -29802726.76549 -23206625.98749  19583849.5034   19583857.9254
  19988512.775   -25549532.31949 -19899502.78149  19988516.1984   19988523.2084
  20866570.924      375191.60749    294186.02149  20866575.1274   20866582.3344
  18436957.400   -26811563.99249 -20866433.97849  18436960.3384   18436967.9084
  21475820.756     1923337.48149   1501790.50249  21475823.0634   21475831.9964
 95  2  5 17 46 29.9930000  0  6 18 22 29 25 14 15
  22270741.417    -6555425.62749  -5085152.27149  22270741.0664   22270750.1134
  19563735.080   -29908416.55749 -23288981.64349  19563737.4734   19563745.8464
  19967187.980   -25661593.35549 -19986823.06549  19967191.6634   19967198.8114
  20870847.353      397657.04549    311691.51549  20870850.1904   20870857.5204
  18420093.188   -26900187.28349 -20935491.08549  18420095.9624   18420103.6584
  21482384.951     1957834.05949   1528670.89049  21482387.0324   21482396.2344
 95  2  5 17 46 59.9930000  0  6 18 22 29 25 14 15
  22243704.701    -6697459.06749  -5195827.65449  22243713.2764   22243722.1634
  19543707.720   -30013663.41849 -23370992.15949  19543709.6614   19543718.0764
  19945864.942   -25773648.11849 -20074138.46349  19945868.3144   19945875.6294
  20875125.614      420143.27349    329213.20349  20875129.1734   20875136.5024
  18403304.292   -26988410.43749 -21004236.40049  18403307.6104   18403315.3474
  21488947.758     1992318.70349   1555541.97049  21488949.2154   21488958.3734
 95  2  5 17 47 29.9930000  0  6 18 22 29 25 14 15
  22216666.358    -6839570.56249  -5306563.85349  22216669.5124   22216679.0294
  19523767.586   -30118450.72049 -23452644.57349  19523769.2364   19523777.5804
  19924544.224   -25885689.37849 -20161443.33449  19924547.6454   19924554.8144
  20879409.913      442659.51449    346758.28149  20879414.0164   20879421.2354
  18386593.254   -27076227.78249 -21072665.49949  18386596.5624   18386604.2514
  21495507.189     2026802.24049   1582412.19849  21495511.2094   21495520.8954
 95  2  5 17 47 59.9930000  0  6 18 22 29 25 14 15
  22189608.040    -6981760.13349  -5417360.88249  22189611.6894   22189621.4494
  19503913.240   -30222785.75549 -23533944.57149  19503915.0344   19503923.3534
  19903222.197   -25997737.29349 -20248753.39449  19903225.6514   19903232.7344
  20883703.780      465211.12849    364330.91749  20883705.5034   20883712.6294
  18369958.581   -27163640.79949 -21140779.53849  18369962.2074   18369969.9694
  21502067.756     2061275.94549   1609274.76149  21502071.7684   21502081.0744
 95  2  5 17 48 29.9930000  0  6 18 22 29 25 14 15
  22162536.378    -7124031.14249  -5528221.37249  22162537.9164   22162548.4584
  19484140.449   -30326686.03849 -23614905.79949  19484143.1994   19484151.6394
  19881891.845   -26109829.68449 -20336098.11549  19881895.0324   19881902.0424
  20887996.566      487779.12249    381916.31849  20888000.1504   20888007.3474
  18353396.130   -27250677.71149 -21208600.50949  18353399.6314   18353407.4144
  21508625.964     2095722.96349   1636116.53149  21508626.5584   21508636.3294
 95  2  5 17 48 59.9930000  0  6 18 22 29 25 14 15
  22135450.299    -7266377.23649  -5639140.36549  22135451.2994   22135460.7824
  19464448.908   -30430166.03249 -23695539.53049  19464451.6944   19464460.0334
  19860554.012   -26221961.11049 -20423473.24949  19860557.1434   19860564.2164
  20892293.754      510356.57249    399509.08649  20892296.3474   20892303.6514
  18336904.490   -27337341.23749 -21276130.52849  18336908.1284   18336915.9454
  21515175.323     2130152.03949   1662944.31649  21515178.6264   21515187.7104
 95  2  5 17 49 29.9930000  0  6 18 22 29 25 14 15
  22108348.708    -7408791.38249  -5750112.40149  22108350.9654   22108360.1144
  19444837.751   -30533222.80549 -23775843.47549  19444840.5584   19444848.8094
  19839211.536   -26334114.11049 -20510865.19649  19839215.1654   19839222.2384
  20896596.355      532970.02849    417129.91549  20896599.9144   20896607.0484
  18320490.069   -27423603.17449 -21343347.62649  18320493.1424   18320500.8374
  21521724.406     2164577.46049   1689769.26249  21521729.3354   21521739.4024
 95  2  5 17 49 59.9930000  0  6 18 22 29 25 14 15
  22081229.698    -7551321.38149  -5861174.71549  22081228.8394   22081238.0924
  19425299.981   -30635897.34349 -23855849.57749  19425302.2224   19425310.4684
  19817863.116   -26446303.69449 -20598285.64849  19817866.1204   19817873.2634
  20900899.773      555585.77849    434752.53249  20900903.4224   20900910.7234
  18304146.401   -27509486.97349 -21410270.06949  18304149.9484   18304157.7104
  21528272.191     2198967.92349   1716566.95049  21528273.7174   21528283.2824
 95  2  5 17 50 29.9930000  0  6 18 22 29 25 14 15
  22054084.649    -7693952.59849  -5972315.90649  22054086.8304   22054096.1174
  19405839.866   -30738167.47949 -23935540.56049  19405840.8444   19405849.1824
  19796511.671   -26558503.33949 -20685713.94249  19796515.3964   19796522.4444
  20905205.566      578211.58749    452382.98649  20905209.1034   20905216.3384
  18287880.129   -27594968.50549 -21476879.05849  18287883.5104   18287891.2624
  21534815.203     2233342.27049   1743352.10649  21534814.9004   21534824.1204
 95  2  5 17 50 59.9930000  0  6 18 22 29 25 14 15
  22026919.438    -7836694.99249  -6083543.71949  22026924.0094   22026933.1094
  19386453.268   -30840036.91249 -24014919.31049  19386455.7624   19386464.1524
  19775159.586   -26670710.19849 -20773147.86149  19775162.9394   19775169.8624
  20909514.171      600847.37449    470021.21749  20909516.5214   20909523.7884
  18271689.064   -27680053.85949 -21543179.33949  18271692.2504   18271699.9854
  21541349.467     2267687.20349   1770114.32749  21541350.7004   21541360.3014
 95  2  5 17 51 29.9930000  0  6 18 22 29 25 14 15
  21999734.228    -7979549.61049  -6194858.97849  21999739.6454   21999748.7064
  19367148.715   -30941478.95949 -24093965.02749  19367152.0914   19367160.4964
  19753806.678   -26782922.89849 -20860586.32849  19753809.7324   19753816.5954
  20913823.406      623495.00549    487668.67149  20913826.0974   20913833.5664
  18255575.047   -27764732.90149 -21609163.01249  18255578.2284   18255585.9204
  21547877.376     2301997.94849   1796849.89449  21547880.1964   21547889.2744
 95  2  5 17 51 59.9930000  0  6 18 22 29 25 14 15
  21972525.937    -8122523.33249  -6306267.04849  21972532.5744   21972541.9404
  19347930.187   -31042476.21949 -24172664.15949  19347932.7824   19347941.2974
  19732449.554   -26895152.48449 -20948037.95549  19732453.2244   19732459.9994
  20918128.448      646120.12149    505298.58549  20918131.5114   20918139.1754
  18239536.227   -27849017.09349 -21674839.00849  18239539.6294   18239547.2824
  21554399.302     2336262.71749   1823549.65849  21554400.3264   21554409.4274
 95  2  5 17 52 29.9930000  0  6 18 22 29 25 14 15
  21945306.568    -8265577.70249  -6417737.96149  21945310.2244   21945319.2074
  19328803.836   -31142985.57149 -24250983.10349  19328806.5144   19328814.8854
  19711091.389   -27007389.75849 -21035495.57449  19711095.2414   19711101.9874
  20922434.369      668750.07449    522932.27049  20922438.0404   20922445.6394
  18223578.342   -27932879.97549 -21740186.71449  18223581.0394   18223588.5224
  21560912.410     2370499.20249   1850227.37349  21560915.5134   21560925.1834
 95  2  5 17 52 59.9930000  0  6 18 22 29 25 14 15
  21918071.528    -8408707.94049  -6529267.98249  21918073.0604   21918082.2324
  19309772.979   -31242993.16849 -24328911.07249  19309775.6254   19309784.0264
  19689734.010   -27119630.70449 -21122956.05449  19689736.5814   19689743.3744
  20926744.629      691401.67649    540582.82149  20926748.3354   20926756.4314
  18207702.842   -28016303.15749 -21805191.79349  18207706.2554   18207713.6604
  21567422.234     2404714.89649   1876888.86249  21567426.2534   21567436.1964
 95  2  5 17 53 29.9930000  0  6 18 22 29 25 14 15
  21890821.321    -8551920.51549  -6640862.16049  21890820.5844   21890829.6174
  19290838.511   -31342498.73949 -24406447.85149  19290840.4784   19290848.7054
  19668375.699   -27231865.12149 -21210411.44449  19668379.1284   19668385.8874
  20931057.294      714072.58749    558248.41649  20931062.4584   20931070.3504
  18191915.962   -28099264.22949 -21869836.78749  18191919.2494   18191926.7274
  21573931.426     2438914.58549   1903537.88749  21573934.8734   21573943.5074
 95  2  5 17 53 59.9930000  0  6 18 22 29 25 14 15
  21863539.483    -8695269.83949  -6752562.89949  21863542.2434   21863550.7584
  19271980.213   -31441596.71849 -24483667.03449  19271982.5484   19271990.8034
  19647008.407   -27344151.81149 -21297907.57049  19647011.6784   19647018.4164
  20935365.196      736707.21849    575885.73649  20935369.5964   20935377.4324
  18176203.060   -28181833.95849 -21934176.84249  18176206.7414   18176214.1834
  21580423.451     2473032.25049   1930123.00449  21580427.0034   21580436.1824
 95  2  5 17 54 29.9930000  0  6 18 22 29 25 14 15
  21836243.384    -8838701.37949  -6864327.71449  21836247.8234   21836256.3694
  19253203.700   -31540267.79849 -24560553.56549  19253206.2564   19253214.5114
  19625641.815   -27456434.10349 -21385400.26449  19625645.0924   19625651.7974
  20939679.919      759380.46849    593553.15049  20939684.2554   20939692.3634
  18160573.664   -28263968.29749 -21998177.62849  18160577.0504   18160584.5894
  21586907.915     2507114.86749   1956680.78349  21586912.4784   21586922.1444
 95  2  5 17 54 59.9930000  0  6 18 22 29 25 14 15
  21808930.190    -8982230.75449  -6976168.76049  21808934.9724   21808943.6164
  19234502.756   -31638542.72449 -24637131.40949  19234504.9414   19234513.2534
  19604276.289   -27568710.04249 -21472888.01049  19604279.6614   19604286.3804
  20943998.967      782067.73549    611231.48349  20944001.6374   20944009.5854
  18145025.194   -28345677.42949 -22061847.08649  18145028.3594   18145035.9544
  21593385.958     2541145.54949   1983198.12449  21593388.7304   21593397.7594
 95  2  5 17 55 29.9930000  0  6 18 22 29 25 14 15
  21781608.782    -9125822.67549  -7088058.55249  21781609.7924   21781618.6034
  19215879.814   -31736404.11649 -24713387.02749  19215882.7104   19215890.8904
  19582919.458   -27680943.66049 -21560342.78249  19582922.4434   19582929.1974
  20948320.379      804780.18749    628929.44149  20948323.7914   20948331.4044
  18129560.798   -28426940.15649 -22125168.70149  18129564.6734   18129572.1894
  21599856.100     2575144.28649   2009690.55649  21599858.4554   21599868.1334
 95  2  5 17 55 59.9930000  0  6 18 22 29 25 14 15
  21754275.667    -9269461.13049  -7199984.59749  21754276.8014   21754285.1434
  19197340.233   -31833832.07949 -24789304.90249  19197342.7064   19197351.0394
  19561569.993   -27793136.55849 -21647765.82049  19561572.8704   19561579.6564
  20952649.453      827521.69649    646650.04249  20952651.3444   20952659.1914
  18114180.796   -28507765.68549 -22188149.64249  18114183.9544   18114191.5544
  21606317.603     2609107.12449   2036155.00949  21606321.5944   21606330.9664
 95  2  5 17 56 29.9920000  0  6 18 22 29 25 14 15
  21726930.046    -9413139.50749  -7311941.74149  21726935.7804   21726943.7844
  19178891.096   -31930779.65849 -24864848.45749  19178894.3014   19178902.5494
  19540230.888   -27905269.14649 -21735141.86449  19540234.6684   19540241.5764
  20956979.864      850287.90549    664389.89249  20956983.5354   20956991.3614
  18098886.888   -28588134.17049 -22250774.44249  18098890.2714   18098897.9464
  21612777.918     2643041.95649   2062597.65949  21612779.1414   21612788.5504
 95  2  5 17 56 59.9920000  0  6 18 22 29 25 14 15
  21699576.188    -9556916.29349  -7423975.57749  21699576.0274   21699583.9004
  19160528.980   -32027277.76549 -24940041.77149  19160531.2394   19160539.4774
  19518894.566   -28017395.16849 -21822512.78949  19518897.7164   19518904.5974
  20961306.548      873018.60149    682102.06849  20961309.2684   20961316.9574
  18083671.782   -28668092.49849 -22313079.63949  18083674.7824   18083682.4524
  21619218.308     2676902.73149   2088982.59249  21619223.0144   21619232.1684
 95  2  5 17 57 29.9920000  0  6 18 22 29 25 14 15
  21672202.690    -9700742.26249  -7536047.74849  21672206.6714   21672215.0074
  19142262.596   -32123267.82049 -25014839.20149  19142265.0064   19142273.2434
  19497565.760   -28129475.20349 -21909847.88149  19497569.5984   19497576.5454
  20965632.508      895764.85049    699826.36849  20965637.6934   20965645.5014
  18068540.537   -28747605.71849 -22375037.99949  18068543.8864   18068551.5314
  21625656.240     2710729.54049   2115341.06149  21625660.1734   21625669.5564
 95  2  5 17 57 59.9920000  0  6 18 22 29 25 14 15
  21644822.322    -9844629.35849  -7648167.55249  21644825.6514   21644834.0624
  19124093.083   -32218747.15549 -25089238.67049  19124095.8704   19124104.1494
  19476241.903   -28241533.86749 -21997166.32349  19476245.3684   19476252.4064
  20969965.085      918523.41549    717560.25749  20969968.7524   20969976.3314
  18053489.268   -28826698.61849 -22436668.84149  18053493.0114   18053500.7354
  21632082.746     2744506.48349   2141660.68049  21632087.0804   21632096.8284
 95  2  5 17 58 29.9920000  0  6 18 22 29 25 14 15
  21617425.387    -9988602.06749  -7760354.07149  21617428.7224   21617437.4264
  19106015.144   -32313747.51449 -25163264.90949  19106017.8694   19106026.0394
  19454915.355   -28353604.68149 -22084494.23149  19454918.9674   19454926.0554
  20974291.863      941263.62549    735279.84649  20974296.0764   20974303.6544
  18038515.063   -28905392.10149 -22497988.44349  18038518.2174   18038525.9414
  21638497.542     2778210.15149   2167923.18649  21638501.1334   21638510.8734
 95  2  5 17 58 59.9920000  0  6 18 22 29 25 14 15
  21590009.516   -10132670.66749  -7872615.31849  21590013.6034   21590021.9734
  19088023.233   -32408293.12749 -25236936.80249  19088026.4304   19088034.6984
  19433579.825   -28465723.64149 -22171859.65249  19433583.4804   19433590.5004
  20978616.887      963975.72549    752977.52949  20978618.1434   20978625.4964
  18023614.330   -28983698.27949 -22559006.25149  18023617.1354   18023624.8534
  21644891.182     2811817.98749   2194111.02949  21644896.6444   21644906.0354
 95  2  5 17 59 29.9920000  0  6 18 22 29 25 14 15
  21562584.192   -10276804.18449  -7984927.14049  21562585.5464   21562594.2624
  19070126.889   -32502341.77549 -25310221.44849  19070129.5184   19070137.9164
  19412241.423   -28577860.32449 -22259238.88749  19412244.4584   19412251.5304
  20982941.325      986708.48549    770691.30949  20982944.1874   20982951.4334
  18008796.016   -29061565.14849 -22619681.74349  18008799.6494   18008807.3174
  21651275.099     2845364.65249   2220251.19449  21651279.9314   21651289.7194
 95  2  5 17 59 59.9920000  0  6 18 22 29 25 14 15
  21535140.662   -10420993.94449  -8097282.78249  21535147.1604   21535155.7334
  19052327.167   -32595881.73949 -25383109.72349  19052329.4124   19052337.7774
  19390903.131   -28689991.80549 -22346614.06049  19390906.4274   19390913.5284
  20987271.895     1009469.17249    788426.85349  20987275.3874   20987282.8004
  17994068.100   -29138962.56749 -22679991.43049  17994071.3214   17994078.9034
  21657651.160     2878865.87649   2246355.96249  21657655.4284   21657665.1604
 95  2  5 18  0 29.9920000  0  6 18 22 29 25 14 15
  21507687.696   -10565267.47349  -8209703.70549  21507692.8254   21507701.4444
  19034621.418   -32688928.46249 -25455613.65249  19034623.2444   19034631.6514
  19369565.263   -28802121.92949 -22433988.17949  19369568.7554   19369575.8564
  20991606.684     1032244.72649    806173.98549  20991609.6014   20991616.7734
  17979431.476   -29215879.12249 -22739926.41349  17979434.6144   17979442.2374
  21664015.273     2912310.73249   2272416.78849  21664019.0544   21664029.8874
 95  2  5 18  0 59.9920000  0  6 18 22 29 25 14 15
  21480223.725   -10709611.80449  -8322179.78249  21480224.9564   21480233.9074
  19017013.034   -32781460.69649 -25527716.68349  19017014.9144   19017023.3034
  19348235.327   -28914212.29249 -22521331.31549  19348238.5684   19348245.7354
  20995946.865     1055056.72549    823949.50849  20995950.7304   20995957.8644
  17964890.285   -29292294.26449 -22799470.69049  17964893.3224   17964900.9714
  21670371.795     2945713.01149   2298444.42849  21670375.5634   21670386.0604
 95  2  5 18  1 29.9920000  0  6 18 22 29 25 14 15
  21452742.692   -10854031.71049  -8434714.79149  21452742.7504   21452751.8694
  18999501.423   -32873484.31949 -25599423.39349  18999503.4814   18999511.8984
  19326914.721   -29026249.81649 -22608633.27749  19326918.6024   19326925.5934
  21000290.671     1077887.08349    841739.35049  21000295.3014   21000302.2254
  17950441.373   -29368222.59949 -22858635.62949  17950444.5554   17950452.1364
  21676716.743     2979065.38849   2324433.20649  21676722.6854   21676732.8524
 95  2  5 18  1 59.9920000  0  6 18 22 29 25 14 15
  21425237.725   -10998568.77949  -8547341.08249  21425238.7074   21425247.2054
  18982076.117   -32965052.39749 -25670775.13149  18982078.4934   18982086.9354
  19305597.966   -29138273.74449 -22695924.64449  19305601.2084   19305608.1394
  21004628.139     1100669.99449    859492.21549  21004630.7524   21004637.8664
  17936073.563   -29443725.66049 -22917469.19149  17936076.9564   17936084.5294
  21683049.855     3012313.43549   2350340.65849  21683049.9944   21683059.8254
 95  2  5 18  2 29.9920000  0  6 18 22 29 25 14 15
  21397719.591   -11143171.99049  -8660018.90849  21397721.6594   21397729.9574
  18964745.695   -33056123.49849 -25741739.61449  18964748.3114   18964756.6894
  19284287.884   -29250257.05449 -22783184.36249  19284291.4084   19284298.2694
  21008961.413     1123442.45849    877236.93949  21008963.9734   21008971.0324
  17921792.051   -29518776.01949 -22975949.99949  17921795.4034   17921802.9434
  21689357.090     3045483.26149   2376187.17849  21689362.0884   21689372.3954
 95  2  5 18  2 59.9920000  0  6 18 22 29 25 14 15
  21370193.324   -11287814.72849  -8772727.52249  21370196.9144   21370205.9284
  18947509.265   -33146700.66749 -25812319.22249  18947512.0764   18947520.5474
  19262989.110   -29362182.48749 -22870398.98349  19262992.7134   19262999.5844
  21013293.571     1146203.49549    894972.76049  21013295.3534   21013302.6274
  17907595.531   -29593377.81349 -23034081.27549  17907599.0594   17907606.6154
  21695654.783     3078574.95549   2401972.81649  21695659.3154   21695669.5524
 95  2  5 18  3 29.9920000  0  6 18 22 29 25 14 15
  21342659.660   -11432508.06849  -8885475.57549  21342663.1074   21342671.3944
  18930363.458   -33236803.93249 -25882529.54949  18930366.0494   18930374.3224
  19241697.409   -29474074.72049 -22957587.73549  19241700.4724   19241707.3824
  21017617.952     1168939.70749    912689.23149  21017622.1054   21017629.0264
  17893482.662   -29667542.44549 -23091871.90449  17893486.0194   17893493.5444
  21701937.557     3111576.38349   2427688.11849  21701939.0364   21701949.3894
 95  2  5 18  3 59.9920000  0  7 18 19 22 29 25 14 15
  21315117.105   -11577256.18449  -8998266.30149  21315118.2134   21315126.9964
  22365808.093    -6233634.16559  -4838871.15259  22365814.3604   22365823.6714
  18913307.683   -33326437.15749 -25952373.61349  18913309.5684   18913317.7344
  19220408.656   -29585948.57649 -23044762.16849  19220411.7024   19220418.3754
  21021939.337     1191648.67349    930384.47449  21021943.4794   21021950.8174
  17879452.842   -29741268.47949 -23149320.77149  17879456.4284   17879464.0234
  21708197.924     3144477.77049   2453325.46949  21708200.1974   21708210.5624
 95  2  5 18  4 29.9920000  0  7 18 19 22 29 25 14 15
  21287562.693   -11722040.85449  -9111085.51849  21287566.6994   21287575.3454
  22335554.516    -6392657.74749  -4962785.55649  22335553.2004   22335563.4564
  18896343.007   -33415583.38349 -26021838.19949  18896345.4054   18896353.6534
  19199124.295   -29697795.66849 -23131915.74749  19199127.9144   19199134.5184
  21026259.234     1214348.23649    948072.38749  21026262.8394   21026269.9794
  17865509.736   -29814538.76049 -23206414.50749  17865513.3404   17865521.0134
  21714442.353     3177296.29649   2478898.24349  21714445.0604   21714455.6514
 95  2  5 18  4 59.9920000  0  7 18 19 22 29 25 14 15
  21260003.048   -11866870.11249  -9223939.47749  21260006.5774   21260015.4924
  22305308.767    -6551593.84049  -5086631.79349  22305308.2224   22305318.6214
  18879472.153   -33504237.26949 -26090919.14349  18879475.0784   18879483.4684
  19177846.175   -29809616.56349 -23219048.91549  19177849.2654   19177856.0134
  21030575.932     1237037.23349    965752.06849  21030580.7664   21030587.9634
  17851656.700   -29887337.86149 -23263141.08849  17851660.2284   17851667.9654
  21720676.502     3210039.95349   2504412.68249  21720676.4794   21720686.6254
 95  2  5 18  5 29.9920000  0  7 18 19 22 29 25 14 15
  21232429.957   -12011770.17649  -9336848.61249  21232432.6774   21232441.7874
  22275071.136    -6710467.07249  -5210429.05249  22275075.5324   22275085.9954
  18862695.695   -33592397.30149 -26159615.27149  18862698.9674   18862707.1854
  19156564.702   -29921448.47849 -23306190.67249  19156568.1704   19156574.9814
  21034889.996     1259695.87249    983408.08549  21034892.2474   21034899.8774
  17837891.754   -29959671.90249 -23319505.28849  17837895.5214   17837903.2034
  21726888.778     3242690.83949   2529854.82649  21726890.0354   21726899.7884
 95  2  5 18  5 59.9920000  0  7 18 19 22 29 25 14 15
  21204846.035   -12156718.05849  -9449795.00049  21204850.2474   21204859.3264
  22244849.615    -6869274.08249  -5334174.71549  22244855.7984   22244866.3394
  18846020.122   -33680029.98649 -26227900.47849  18846022.9214   18846031.3394
  19135287.864   -30033256.86249 -23393314.09249  19135291.7594   19135298.6304
  21039197.116     1282338.62349   1001051.72849  21039200.9114   21039208.7674
  17824221.438   -30031513.20449 -23375485.53449  17824224.8424   17824232.4484
  21733085.500     3275264.86849   2555237.07649  21733088.4164   21733098.6724
 95  2  5 18  6 29.9920000  0  7 18 19 22 29 25 14 15
  21177250.283   -12301735.73349  -9562795.77949  21177254.0724   21177263.5814
  22214644.413    -7028033.23649  -5457883.08749  22214644.9764   22214655.6834
  18829442.252   -33767148.01449 -26295784.65749  18829444.8724   18829453.1934
  19114014.812   -30145047.14249 -23480423.40449  19114018.8264   19114025.7114
  21043501.209     1304958.73249   1018677.72149  21043505.4184   21043513.5634
  17810644.769   -30102859.85149 -23431080.33549  17810648.0194   17810655.5604
  21739266.675     3307750.68549   2580550.59149  21739270.7764   21739280.7904
 95  2  5 18  6 59.9920000  0  7 18 19 22 29 25 14 15
  21149640.062   -12446830.47049  -9675856.59949  21149643.5574   21149652.6184
  22184442.310    -7186740.69849  -5581551.19549  22184443.5554   22184454.6324
  18812963.303   -33853749.34549 -26363266.21449  18812965.3074   18812973.5124
  19092749.391   -30256803.32749 -23567506.14849  19092752.4274   19092759.2264
  21047803.833     1327567.93949   1036295.22449  21047807.9914   21047816.0214
  17797161.960   -30173712.37649 -23486290.10649  17797165.3444   17797172.8474
  21745429.371     3340141.37649   2605789.98849  21745433.8644   21745444.2274
 95  2  5 18  7 29.9920000  0  7 18 19 22 29 25 14 15
  21122019.202   -12591977.61249  -9788958.24049  21122022.5054   21122032.0654
  22154256.323    -7345373.89049  -5705161.42049  22154257.3524   22154267.4464
  18796585.479   -33939812.31749 -26430328.26949  18796588.0514   18796596.2584
  19071498.554   -30368476.88749 -23654524.50849  19071501.5994   19071508.5704
  21052107.845     1350184.45849   1053918.42249  21052111.6654   21052119.9834
  17783775.080   -30244055.73149 -23541103.11949  17783779.3254   17783786.9334
  21751579.292     3372451.32949   2630966.45949  21751582.9934   21751592.5294
 95  2  5 18  7 59.9920000  0  7 18 19 22 29 25 14 15
  21094388.560   -12737174.72749  -9902098.83249  21094392.7244   21094402.2224
  22124087.139    -7503911.25249  -5828696.97349  22124088.5674   22124098.6434
  18780310.317   -34025340.30849 -26496973.45249  18780312.8234   18780321.1094
  19050267.998   -30480041.90149 -23741458.28649  19050271.4594   19050278.3954
  21056414.211     1372819.07849   1071555.71649  21056419.1504   21056427.3854
  17770484.843   -30313898.99049 -23595526.44649  17770488.5424   17770496.0934
  21757711.954     3404680.31049   2656079.85049  21757716.0044   21757725.2514
 95  2  5 18  8 29.9910000  0  7 18 19 22 29 25 14 15
  21066749.670   -12882424.69449 -10015280.61349  21066752.6874   21066761.2954
  22093929.996    -7662364.57049  -5952167.04649  22093935.7594   22093945.4564
  18764134.007   -34110347.41849 -26563212.75549  18764136.3674   18764144.6744
  19029053.594   -30591524.08749 -23828327.52549  19029057.2044   19029064.1894
  21060720.974     1395458.11749   1089196.46349  21060727.3154   21060735.2804
  17757283.034   -30383273.96749 -23649584.88149  17757287.0264   17757294.5584
  21763826.773     3436805.51049   2681112.37349  21763829.5314   21763839.0314
 95  2  5 18  8 59.9910000  0  7 18 19 22 29 25 14 15
  21039101.388   -13027716.30549 -10128494.84449  21039104.7064   21039113.3904
  22063793.410    -7820742.72349  -6075578.54449  22063796.7144   22063807.7914
  18748057.705   -34194828.54749 -26629042.20149  18748060.1694   18748068.4494
  19007855.395   -30702920.02149 -23915129.55449  19007859.1934   19007866.1614
  21065031.432     1418092.26249   1106833.38849  21065034.4844   21065042.8534
  17744167.913   -30452197.02649 -23703291.17049  17744171.4824   17744178.9554
  21769917.492     3468824.57549   2706062.18649  21769921.9634   21769932.3054
 95  2  5 18  9 29.9910000  0  7 18 19 22 29 25 14 15
  21011448.456   -13173034.57549 -10241729.85549  21011452.0194   21011460.2244
  22033663.298    -7979034.25249  -6198922.54849  22033675.2414   22033685.4554
  18732082.861   -34278777.72049 -26694457.13849  18732085.1204   18732093.4684
  18986673.217   -30814234.56249 -24001868.16349  18986676.7754   18986683.8044
  21069333.050     1440708.81549   1124456.60049  21069338.4194   21069346.7714
  17731142.142   -30520647.67549 -23756629.35249  17731145.6404   17731153.1964
  21775993.482     3500739.55349   2730930.89249  21775995.5084   21776005.7334
 95  2  5 18  9 59.9910000  0  7 18 19 22 29 25 14 15
  20983788.457   -13318389.81949 -10354993.67249  20983791.4244   20983799.5864
  22003560.700    -8137258.17649  -6322213.87549  22003565.8604   22003577.1224
  18716205.924   -34362210.70749 -26759469.85149  18716208.2954   18716216.6504
  18965496.149   -30925520.81949 -24088584.73149  18965499.5894   18965506.7454
  21073634.639     1463297.81849   1142058.35149  21073636.9794   21073645.3624
  17718203.020   -30588643.12249 -23809612.82849  17718206.4724   17718213.9914
  21782042.857     3532529.70849   2755702.33749  21782044.7444   21782055.9034
 95  2  5 18 10 29.9910000  0  7 18 19 22 29 25 14 15
  20956125.030   -13463778.74849 -10468283.74249  20956124.7944   20956133.0144
  21973464.101    -8295420.57249  -6445457.25949  21973468.2434   21973478.7814
  18700426.052   -34445128.61549 -26824081.20749  18700429.5544   18700437.8614
  18944319.507   -31036802.82549 -24175297.98449  18944323.3414   18944330.5354
  21077922.923     1485842.65449   1159625.68049  21077927.1404   21077935.4094
  17705352.084   -30656177.56749 -23862237.08349  17705355.2024   17705362.8274
  21788065.815     3564191.83849   2780374.01849  21788069.5874   21788080.2124
 95  2  5 18 10 59.9910000  0  7 18 19 22 29 25 14 15
  20928450.718   -13609194.09149 -10581594.39549  20928453.3434   20928461.6864
  21943392.127    -8453487.47949  -6568626.22649  21943389.4184   21943399.8224
  18684749.334   -34527514.20849 -26888277.77149  18684751.9874   18684760.4184
  18923148.123   -31148061.46749 -24261993.03449  18923151.5924   18923158.7954
  21082209.068     1508362.36149   1177173.42749  21082212.6684   21082221.1584
  17692596.727   -30723207.44449 -23914468.16949  17692599.8284   17692607.4354
  21794071.902     3595747.00549   2804962.32749  21794074.4144   21794085.8784
 95  2  5 18 11 29.9910000  0  7 18 19 22 29 25 14 15
  20900773.247   -13754637.82549 -10694927.16049  20900776.1394   20900784.6054
  21913327.437    -8611461.71349  -6691723.00949  21913327.2884   21913337.0484
  18669173.262   -34609367.85549 -26952059.82849  18669175.7664   18669184.1544
  18901978.369   -31259307.99549 -24348678.64649  18901982.0914   18901989.3094
  21086493.590     1530877.83949   1194717.87749  21086497.3584   21086505.6514
  17679939.972   -30789717.89749 -23966294.50849  17679943.2874   17679951.0154
  21800055.687     3627200.64949   2829471.53649  21800060.4494   21800070.5124
 95  2  5 18 11 59.9910000  0  7 18 19 22 29 25 14 15
  20873089.755   -13900113.53649 -10808284.85249  20873092.9544   20873101.3414
  21883273.556    -8769359.70349  -6814760.36449  21883280.5374   21883290.8814
  18653697.284   -34690696.54949 -27015432.83449  18653699.5064   18653707.8464
  18880811.226   -31370541.28149 -24435353.94049  18880815.0654   18880822.2934
  21090773.799     1553379.84549   1212251.83349  21090779.2844   21090787.8614
  17667377.261   -30855735.75149 -24017737.00749  17667380.4944   17667388.3224
  21806019.019     3658537.01349   2853889.37049  21806023.6334   21806033.4784
 95  2  5 18 12 29.9910000  0  7 18 19 22 29 25 14 15
  20845405.456   -14045599.10049 -10921650.22049  20845407.8644   20845416.2694
  21853249.229    -8927161.96949  -6937723.11749  21853252.0404   21853261.0524
  18638327.052   -34771469.64849 -27078372.90749  18638328.8394   18638337.1784
  18859658.699   -31481701.95649 -24521972.65249  18859661.9764   18859669.1264
  21095062.097     1575893.14849   1229794.59049  21095063.3834   21095072.2084
  17654912.716   -30921234.14049 -24068774.72549  17654916.6084   17654924.4414
  21811963.427     3689777.80449   2878232.72049  21811968.7284   21811979.9804
 95  2  5 18 12 59.9910000  0  7 18 19 22 29 25 14 15
  20817715.229   -14191106.58749 -11035032.66749  20817718.6674   20817727.3684
  21823227.641    -9084895.23549  -7060632.10349  21823235.7964   21823244.5714
  18623056.560   -34851712.47349 -27140899.77749  18623059.1364   18623067.4864
  18838518.096   -31592794.98949 -24608538.65249  18838521.5574   18838528.8264
  21099342.809     1598410.85149   1247340.78249  21099348.1834   21099356.9624
  17642545.827   -30986225.34449 -24119417.23349  17642549.1554   17642556.8654
  21817890.306     3720897.19549   2902481.47849  21817890.4184   21817901.7104
 95  2  5 18 13 29.9910000  0  7 18 19 22 29 25 14 15
  20790024.944   -14336625.37449 -11148423.91549  20790027.4474   20790036.4854
  21793229.592    -9242550.89749  -7183480.63949  21793235.4004   21793244.7384
  18607888.623   -34931420.44749 -27203009.88649  18607891.1804   18607899.4954
  18817394.559   -31703801.03349 -24695036.87449  18817398.0254   18817405.3874
  21103628.805     1620929.36249   1264887.60049  21103633.2564   21103642.3884
  17630274.009   -31050715.55749 -24169669.36149  17630277.1034   17630284.7204
  21823790.120     3751896.11449   2926636.33049  21823789.9964   21823800.5944
 95  2  5 18 13 59.9910000  0  7 18 19 22 29 25 14 15
  20762329.690   -14482168.64249 -11261834.25049  20762331.5454   20762340.2714
  21763252.706    -9400116.25649  -7306258.80549  21763251.8544   21763262.3014
  18592821.640   -35010597.44449 -27264706.24449  18592824.2224   18592832.6284
  18796288.808   -31814712.27649 -24781461.22049  18796292.2024   18796299.3714
  21107910.917     1643431.58249   1282421.71449  21107915.2514   21107924.3044
  17618094.566   -31114717.78849 -24219541.23849  17618098.0424   17618105.6694
  21829663.714     3782766.70049   2950691.23149  21829664.1954   21829675.3664
 95  2  5 18 14 29.9910000  0  7 18 19 22 29 25 14 15
  20734628.092   -14627738.66249 -11375265.42549  20734630.5064   20734639.2704
  21733288.419    -9557561.09349  -7428943.02949  21733291.3214   21733299.5664
  18577857.446   -35089234.60449 -27325981.95249  18577860.0864   18577868.4374
  18775201.481   -31925525.76749 -24867809.39849  18775205.1264   18775212.4504
  21112192.281     1665928.09849   1299951.39049  21112196.3034   21112205.5964
  17606012.951   -31178208.54349 -24269014.56349  17606016.1654   17606023.7234
  21835514.035     3813525.24749   2974658.84349  21835517.7364   21835527.8494
 95  2  5 18 14 59.9910000  0  7 18 19 22 29 25 14 15
  20706916.950   -14773356.91749 -11488734.18649  20706920.1134   20706929.1504
  21703354.257    -9714871.71849  -7551522.70349  21703356.3744   21703365.1944
  18562993.337   -35167346.39149 -27386848.27949  18562995.8924   18563004.3524
  18754128.855   -32036264.18949 -24954099.08349  18754132.3734   18754139.7414
  21116471.318     1688401.64049   1317463.15649  21116472.8174   21116482.3484
  17594026.196   -31241196.51249 -24318096.10949  17594029.9694   17594037.5534
  21841348.446     3844166.83149   2998535.29449  21841349.0514   21841359.5884
 95  2  5 18 15 29.9910000  0  7 18 19 22 29 25 14 15
  20679195.245   -14919038.49149 -11602252.28749  20679197.8394   20679206.6294
  21673448.168    -9872029.31449  -7673983.12149  21673450.3284   21673459.3664
  18548233.614   -35244912.42749 -27447289.34849  18548235.5664   18548243.9704
  18733072.038   -32146916.35249 -25040321.55249  18733075.7984   18733083.2584
  21120739.458     1710839.25049   1334946.91849  21120742.5564   21120751.9544
  17582132.971   -31303697.13449 -24366797.90449  17582136.5064   17582144.0884
  21847155.102     3874696.92449   3022324.81749  21847158.3824   21847169.2784
 95  2  5 18 15 59.9910000  0  7 18 19 22 29 25 14 15
  20651461.963   -15064779.37349 -11715816.60149  20651464.5814   20651473.4744
  21643570.314   -10029035.10349  -7796325.23549  21643573.0644   21643582.0524
  18533578.468   -35321920.98049 -27507296.01549  18533581.3094   18533589.8094
  18712030.124   -32257491.57449 -25126484.06749  18712034.1904   18712041.6264
  21125002.903     1733250.55249   1352410.19449  21125007.0384   21125016.7254
  17570333.027   -31365705.47649 -24415116.10649  17570336.5664   17570344.2314
  21852942.278     3905115.57249   3046027.56249  21852947.9454   21852957.1094
 95  2  5 18 16 29.9910000  0  7 18 19 22 29 25 14 15
  20623718.991   -15210570.69849 -11829420.21549  20623721.5854   20623730.1844
  21613719.343   -10185901.84749  -7918559.01849  21613721.9994   21613731.5344
  18519031.443   -35398368.99449 -27566865.90249  18519033.6824   18519042.1264
  18691000.668   -32368003.63249 -25212597.36349  18691004.3094   18691011.6454
  21129261.710     1755627.34349   1369846.56649  21129265.1994   21129275.4954
  17558627.761   -31427219.27349 -24463048.94849  17558630.9624   17558638.6154
  21858711.129     3935413.13349   3069635.97649  21858711.9484   21858723.1734
 95  2  5 18 16 59.9910000  0  7 18 19 22 29 25 14 15
  20595966.850   -15356401.41049 -11943054.52249  20595970.6844   20595979.4664
  21583889.970   -10342658.19149  -8040706.76649  21583892.1704   21583902.0524
  18504589.672   -35474261.10049 -27626002.61149  18504591.9614   18504600.3724
  18669980.516   -32478465.69749 -25298671.70549  18669984.3924   18669991.7414
  21133511.990     1777962.30949   1387250.34349  21133515.5314   21133525.7574
  17547013.657   -31488246.16349 -24510602.37849  17547017.8684   17547025.5374
  21864446.847     3965568.80749   3093133.78849  21864451.1454   21864461.7274
 95  2  5 18 17 29.9910000  0  7 18 19 22 29 25 14 15
  20568217.198   -15502233.78749 -12056690.11649  20568220.0064   20568228.6024
  21554083.027   -10499309.46749  -8162772.64449  21554082.6484   21554092.5164
  18490255.114   -35549587.87949 -27684698.80449  18490257.6974   18490266.2974
  18648972.274   -32588867.58249 -25384699.15349  18648975.5874   18648982.8564
  21137758.555     1800270.95649   1404633.61949  21137761.0254   21137770.8404
  17535497.851   -31548763.47549 -24557758.73749  17535501.9504   17535509.5794
  21870160.220     3995587.36749   3116524.72649  21870163.1454   21870174.4994
 95  2  5 18 17 59.9910000  0  7 18 19 22 29 25 14 15
  20540468.769   -15648049.54749 -12170312.76249  20540471.7844   20540480.6704
  21524281.820   -10655885.34149  -8284779.77049  21524287.1384   21524296.8434
  18476023.370   -35624374.02949 -27742973.72749  18476026.4184   18476034.9454
  18627972.269   -32699221.72549 -25470689.40049  18627975.6614   18627982.8974
  21141997.795     1822550.27149   1421994.02849  21142000.6934   21142010.5074
  17524082.086   -31608759.22749 -24604508.69049  17524085.2164   17524092.7164
  21875840.799     4025451.36949   3139795.23049  21875846.8334   21875857.0654
 95  2  5 18 18 29.9910000  0  7 18 19 22 29 25 14 15
  20512726.634   -15793841.98649 -12283917.24049  20512728.5854   20512737.2254
  21494505.143   -10812375.95049  -8406720.45249  21494507.8014   21494517.5564
  18461894.002   -35698624.30149 -27800831.08249  18461896.9774   18461905.5974
  18606983.805   -32809515.94849 -25556632.95649  18606987.5154   18606994.8354
  21146229.356     1844797.69849   1439329.59949  21146234.1514   21146244.2444
  17512766.239   -31668223.58449 -24650844.56549  17512769.4224   17512777.0194
  21881495.497     4055165.32149   3162948.84149  21881500.9704   21881511.3744
 95  2  5 18 18 59.9910000  0  8  4 18 19 22 29 25 14 15
  22103695.478    -5779816.58259  -4490551.92659  22103695.1524   22103703.7944
  20484987.667   -15939606.06049 -12397499.61749  20484990.5784   20484999.2904
  21464740.347   -10968772.55949  -8528587.89349  21464746.2674   21464756.5804
  18447866.938   -35772337.98649 -27858270.32349  18447869.7754   18447878.2214
  18586009.467   -32919737.25949 -25642519.69749  18586013.1644   18586020.4094
  21150459.052     1867020.65649   1456646.09349  21150463.1324   21150473.6214
  17501552.599   -31727150.40249 -24696761.58249  17501556.0864   17501563.6294
  21887120.852     4084735.89449   3185990.73549  21887127.7114   21887137.8444
 95  2  5 18 19 29.9910000  0  8  4 18 19 22 29 25 14 15
  22085969.243    -5872947.23449  -4563121.27749  22085973.2404   22085982.9074
  20457253.073   -16085348.83949 -12511065.39749  20457256.4524   20457265.4904
  21435002.367   -11125065.78449  -8650374.77649  21435004.8464   21435015.0314
  18433943.625   -35845506.71049 -27915284.91849  18433946.3894   18433954.8124
  18565053.376   -33029862.70449 -25728331.73549  18565056.9304   18565064.0954
  21154682.686     1889216.64049   1473941.57749  21154687.3924   21154697.2914
  17490441.920   -31785537.02849 -24742257.66649  17490445.4574   17490453.1364
  21892724.608     4114170.80249   3208926.90249  21892729.1354   21892739.9104
 95  2  5 18 19 59.9900000  0  8  4 18 19 22 29 25 14 15
  22068327.445    -5965634.83249  -4635345.39049  22068335.6354   22068344.4104
  20429523.049   -16231077.94549 -12624620.51249  20429525.2754   20429534.1464
  21405284.672   -11281238.47149  -8772067.73349  21405286.1084   21405296.2114
  18420128.200   -35918104.83549 -27971854.89149  18420131.4404   18420139.7714
  18544117.861   -33139880.24049 -25814059.68849  18544121.3454   18544128.5114
  21158905.098     1911389.33149   1491218.91049  21158906.9564   21158916.6664
  17479435.373   -31843376.73249 -24787327.58249  17479438.9684   17479446.7424
  21898305.083     4143476.99849   3231762.76849  21898306.6054   21898317.7054
 95  2  5 18 20 29.9900000  0  8  4 18 19 22 29 25 14 15
  22050787.227    -6057901.27249  -4707241.32649  22050777.8044   22050786.8494
  20401782.686   -16376852.17049 -12738210.79349  20401785.1634   20401793.8404
  21375576.631   -11437307.07549  -8893679.58849  21375586.7864   21375597.2514
  18406418.911   -35990149.41649 -28027993.53249  18406421.7234   18406430.0774
  18523194.144   -33249833.44849 -25899737.51449  18523197.7694   18523205.0274
  21163113.635     1933522.67049   1508465.58049  21163119.0324   21163128.6874
  17468523.687   -31900714.22049 -24832006.16149  17468527.9494   17468535.7964
  21903849.169     4172632.66149   3254481.33749  21903855.0674   21903865.9464
 95  2  5 18 20 59.9900000  0  8  4 18 19 22 29 25 14 15
  22033295.382    -6149751.85949  -4778813.22849  22033299.0234   22033309.2794
  20374029.604   -16522686.69049 -12851848.05749  20374033.9324   20374042.8844
  21345902.094   -11593285.28449  -9015221.00049  21345905.2324   21345915.7354
  18392816.059   -36061633.06249 -28083695.08049  18392818.9584   18392827.3304
  18502283.521   -33359719.26449 -25985362.82849  18502287.3144   18502294.5194
  21167317.570     1955608.42049   1525675.17449  21167321.8374   21167331.2914
  17457707.090   -31957556.12449 -24876298.56949  17457711.2454   17457719.1064
  21909368.343     4201623.02449   3277071.09349  21909370.6824   21909381.8894
 95  2  5 18 21 29.9900000  0  8  4 18 19 22 29 25 14 15
  22015895.813    -6241196.32949  -4850068.66249  22015897.4894   22015907.3144
  20346269.547   -16668571.21549 -12965524.29349  20346272.7344   20346281.8014
  21316240.144   -11749162.37249  -9136683.62249  21316242.8654   21316253.2054
  18379323.854   -36132533.56049 -28138942.22949  18379326.8394   18379335.3894
  18481389.422   -33469521.84549 -26070923.28649  18481392.5794   18481399.6504
  21171513.605     1977660.47049   1542858.50249  21171518.4134   21171528.0014
  17446988.458   -32013885.61149 -24920191.69449  17446992.1454   17446999.9954
  21914858.196     4230456.63349   3299538.67749  21914857.6694   21914869.0044
 95  2  5 18 21 59.9900000  0  8  4 18 19 22 29 25 14 15
  21998577.396    -6332228.88749  -4921003.14649  21998574.1994   21998584.3854
  20318498.850   -16814505.85149 -13079239.57049  20318502.4364   20318511.3614
  21286591.212   -11904926.98049  -9258058.58449  21286600.9394   21286611.7944
  18365942.363   -36202854.51449 -28193737.78249  18365945.1974   18365953.6394
  18460507.739   -33579252.62449 -26156427.79149  18460511.6564   18460518.6204
  21175705.487     1999688.22449   1560022.90149  21175710.3064   21175719.4974
  17436365.934   -32069708.04249 -24963689.70549  17436369.4784   17436377.1984
  21920313.478     4259128.41349   3321880.17749  21920314.4204   21920326.3104
 95  2  5 18 22 29.9900000  0  8  4 18 19 22 29 25 14 15
  21981312.698    -6422827.34849  -4991599.36049  21981334.0374   21981343.7884
  20290722.039   -16960474.95749 -13192981.70549  20290725.4924   20290734.4124
  21256980.869   -12060566.02049  -9379335.71549  21256983.9544   21256994.4614
  18352669.603   -36272603.12449 -28248087.35249  18352672.5494   18352681.0704
  18439643.353   -33688895.73449 -26241863.98149  18439647.2164   18439654.2204
  21179896.955     2021702.09849   1577176.48749  21179899.4554   21179908.8004
  17425840.851   -32125017.98049 -25006788.37049  17425844.3234   17425852.0554
  21925735.458     4287640.49149   3344097.28049  21925741.3844   21925750.5334
 95  2  5 18 22 59.9900000  0  8  4 18 19 22 29 25 14 15
  21964174.143    -6512987.30149  -5061853.89349  21964177.3944   21964187.3234
  20262941.623   -17106471.16449 -13306744.96049  20262943.1134   20262952.0544
  21227386.094   -12216091.72849  -9500524.53949  21227388.9494   21227398.6334
  18339502.460   -36341799.37749 -28302006.51249  18339504.9624   18339513.4524
  18418798.423   -33798436.51849 -26327220.44149  18418802.2914   18418809.2714
  21184079.595     2043690.39949   1594310.14549  21184083.6214   21184092.9694
  17415414.174   -32179808.50849 -25049482.29949  17415417.8814   17415425.6124
  21931137.565     4315984.59049   3366183.44949  21931133.3334   21931145.7794
 95  2  5 18 23 29.9900000  0  7  4 18 19 22 29 25 14
  21947107.267    -6602715.58549  -5131772.06549  21947103.0474   21947112.4874
  20235151.134   -17252498.07649 -13420532.14149  20235155.3434   20235164.2514
  21197807.695   -12371514.08249  -9621632.83849  21197812.2894   21197822.3894
  18326432.488   -36410483.61549 -28355526.69749  18326434.8254   18326443.1124
  18397967.741   -33907906.43549 -26412521.68149  18397970.7854   18397977.7984
  21188256.591     2065639.88349   1611413.55849  21188260.1214   21188269.8724
  17405081.894   -32234107.06649 -25091792.87949  17405085.3204   17405093.2304
 95  2  5 18 23 59.9900000  0  7  4 18 19 22 29 25 14
  21930112.669    -6691994.35749  -5201339.95549  21930114.0454   21930123.3534
  20207360.851   -17398547.77349 -13534337.08249  20207363.0594   20207371.6764
  21168256.733   -12526818.20449  -9742649.00849  21168259.0854   21168268.6824
  18313458.245   -36478661.87949 -28408652.62049  18313461.0004   18313469.3524
  18377151.221   -34017296.37349 -26497760.59549  18377154.6434   18377161.6184
  21192427.249     2087559.64749   1628493.80449  21192431.7044   21192440.8444
  17394843.309   -32287911.59449 -25133718.50149  17394846.6464   17394854.6174
 95  2  5 18 24 29.9900000  0  7  4 18 19 22 29 25 14
  21913193.607    -6780836.09449  -5270567.31249  21913207.6144   21913217.4014
  20179562.755   -17544622.98349 -13648161.89549  20179565.8344   20179574.3894
  21138721.005   -12682022.87349  -9863587.70649  21138724.9494   21138733.2074
  18300580.193   -36546337.89249 -28461387.18749  18300582.7394   18300591.0084
  18356349.369   -34126610.06549 -26582940.10149  18356353.0094   18356359.9624
  21196587.914     2109425.12149   1645531.74849  21196592.5034   21196602.1314
  17384698.627   -32341221.66749 -25175258.83049  17384702.1544   17384710.1304
 95  2  5 18 24 59.9900000  0  7  4 18 19 22 29 25 14
  21896378.500    -6869257.56649  -5339467.17549  21896381.6684   21896391.3534
  20151761.494   -17690718.58049 -13762002.60149  20151764.8474   20151773.4084
  21109206.373   -12837133.65649  -9984453.23649  21109208.5354   21109217.4274
  18287800.299   -36613496.61249 -28513718.66849  18287802.8504   18287811.1404
  18335559.902   -34235857.81049 -26668068.22349  18335563.9074   18335570.7334
  21200736.717     2131228.78749   1662521.52149  21200742.0744   21200751.3094
  17374647.638   -32394041.58349 -25216417.22349  17374651.0194   17374658.8454
 95  2  5 18 25 29.9900000  0  7  4 18 19 22 29 25 14
  21879639.572    -6957257.50849  -5408038.58249  21879636.0014   21879645.1574
  20123962.912   -17836807.25949 -13875837.91749  20123965.0974   20123973.2414
  21079711.658   -12992132.66249 -10105231.67349  21079713.3154   21079722.0974
  18275127.873   -36680092.16149 -28565611.30849  18275130.3354   18275138.6074
  18314783.502   -34345038.04949 -26753143.73849  18314787.5004   18314794.3604
  21204878.044     2152974.98749   1679466.51949  21204879.8434   21204889.2374
  17364690.748   -32446365.20349 -25257188.88749  17364694.1484   17364701.9344
 95  2  5 18 25 59.9900000  0  7  4 18 19 22 29 25 14
  21862965.275    -7044831.26649  -5476277.89549  21862970.9214   21862980.6904
  20096164.989   -17982880.35849 -13989661.10249  20096168.4624   20096176.4834
  21050235.215   -13147005.62949 -10225911.90949  21050242.4924   21050250.8024
  18262569.923   -36746085.17949 -28617034.44649  18262572.1694   18262580.4564
  18294023.799   -34454131.23149 -26838151.42049  18294027.8324   18294034.6414
  21209002.050     2174665.77949   1696368.33349  21209007.4424   21209017.1674
  17354833.092   -32498166.82649 -25297553.80249  17354836.5734   17354844.2664
 95  2  5 18 26 29.9900000  0  7  4 18 19 22 29 25 14
  21846386.379    -7132004.56749  -5544205.16649  21846382.7824   21846392.2014
  20068365.220   -18128965.55249 -14103493.71049  20068369.2454   20068377.1334
  21020786.962   -13301774.31949 -10346510.87149  21020790.5824   21020799.1264
  18250123.868   -36811491.92149 -28668000.74949  18250125.5854   18250133.9234
  18273276.705   -34563158.45149 -26923107.70149  18273280.6414   18273287.4014
  21213115.741     2196266.40349   1713199.88949  21213117.7884   21213127.1464
  17345068.601   -32549477.66449 -25337536.28949  17345072.3734   17345080.1474
 95  2  5 18 26 59.9900000  0  7  4 18 19 22 29 25 14
  21829878.126    -7218748.47449  -5611797.83749  21829876.3314   21829885.1954
  20040568.173   -18275044.18949 -14217321.21649  20040571.3954   20040579.5404
  20991359.042   -13456404.57149 -10467001.96249  20991365.5654   20991373.9054
  18237791.156   -36876300.14849 -28718500.67649  18237793.0204   18237801.4544
  18252547.081   -34672093.76449 -27007992.36749  18252550.9294   18252557.6744
  21217211.045     2217804.22749   1729982.50349  21217216.3454   21217225.8924
  17335400.593   -32600281.78549 -25377123.93249  17335404.7894   17335412.6604
 95  2  5 18 27 29.9900000  0  7  4 18 19 22 29 25 14
  21813449.334    -7305068.06449  -5679059.87849  21813450.5484   21813459.6434
  20012767.289   -18421141.61549 -14331163.35449  20012769.6054   20012778.1464
  20961960.741   -13610901.99249 -10587389.54949  20961965.8354   20961974.3044
  18225565.303   -36940546.03849 -28768562.41849  18225567.4934   18225575.8794
  18231833.097   -34780944.53449 -27092811.15549  18231837.0644   18231843.8284
  21221295.180     2239262.22649   1746702.92449  21221299.5514   21221309.4234
  17325828.533   -32650585.59949 -25416321.72749  17325832.1924   17325840.0804
 95  2  5 18 27 59.9900000  0  7  4 18 19 22 29 25 14
  21797100.985    -7390955.23249  -5745984.95849  21797106.0744   21797115.6004
  19984955.792   -18567284.56749 -14445040.96249  19984959.6344   19984968.0304
  20932588.963   -13765265.55449 -10707672.82149  20932591.5034   20932600.5074
  18213438.271   -37004272.02049 -28818219.03649  18213440.7314   18213449.2554
  18211136.602   -34889705.73549 -27177560.14849  18211140.7254   18211147.4434
  21225364.010     2260642.47849   1763362.75549  21225367.8364   21225378.0144
  17316351.839   -32700385.53849 -25455126.88949  17316355.5754   17316363.6074
 95  2  5 18 28 29.9900000  0  7  4 18 19 22 29 25 14
  21780853.380    -7476391.82149  -5812558.93649  21780848.4664   21780857.8334
  19957140.782   -18713448.18049 -14558934.65949  19957145.2624   19957154.2244
  20903242.864   -13919475.24749 -10827836.19149  20903246.3514   20903255.4804
  18201409.253   -37067481.65049 -28867473.30349  18201412.4524   18201420.9004
  18190461.082   -34998357.42549 -27262223.81249  18190465.0564   18190471.8164
  21229421.462     2281963.75549   1779976.63349  21229425.5994   21229435.0434
  17306973.449   -32749670.94949 -25493531.12249  17306977.1184   17306984.9724
 95  2  5 18 28 59.9900000  0  7  4 18 19 22 29 25 14
  21764675.461    -7561364.52849  -5878771.45049  21764677.9754   21764688.1924
  19929328.912   -18859610.75749 -14672827.55749  19929331.4794   19929340.2144
  20873924.146   -14073525.75049 -10947875.51249  20873931.4094   20873940.6144
  18189481.559   -37130167.15349 -28916319.15849  18189483.9784   18189492.2784
  18169807.561   -35106892.57949 -27346796.66749  18169811.5344   18169818.2594
  21233471.645     2303252.11849   1796564.86349  21233477.0414   21233486.3824
  17297698.645   -32798411.99249 -25531511.17149  17297701.7194   17297709.5704
 95  2  5 18 29 29.9900000  0  7  4 18 19 22 29 25 14
  21748591.536    -7645906.14549  -5944648.04749  21748590.7624   21748599.9234
  19901511.644   -19005785.67949 -14786730.07149  19901515.1584   19901523.7484
  20844635.189   -14227451.29549 -11067817.46649  20844640.1294   20844649.4954
  18177649.207   -37192343.88449 -28964768.57049  18177652.0404   18177660.3034
  18149172.234   -35215334.19249 -27431296.63249  18149175.7724   18149182.4384
  21237518.352     2324493.62649   1813116.58549  21237519.1094   21237529.0554
  17288523.670   -32846623.43049 -25569078.54049  17288527.6214   17288535.5364
 95  2  5 18 29 59.9900000  0  7  4 18 19 22 29 25 14
  21732584.944    -7730020.85549  -6010191.99149  21732584.3544   21732594.0044
  19873696.679   -19151953.16649 -14900626.79449  19873700.4004   19873709.0044
  20815366.391   -14381264.52749 -11187671.89849  20815370.4214   20815379.8304
  18165918.132   -37253991.82249 -29012805.93849  18165920.6774   18165929.1634
  18128554.307   -35323680.56149 -27515722.38549  18128557.9894   18128564.6454
  21241550.601     2345697.04449   1829638.62749  21241554.2964   21241564.2784
  17279448.588   -32894312.20149 -25606238.63749  17279452.6924   17279460.5614
 95  2  5 18 30 29.9900000  0  7  4 18 19 22 29 25 14
  21716667.641    -7813725.11049  -6075416.10549  21716655.5234   21716665.2094
  19845885.374   -19298107.52249 -15014513.28449  19845887.8634   19845896.8324
  20786118.196   -14534974.99449 -11307446.26549  20786120.3044   20786130.1124
  18154291.792   -37315089.29749 -29060414.37049  18154294.3244   18154302.6564
  18107954.293   -35431934.24949 -27600075.91649  18107958.1684   18107964.8424
  21245577.997     2366856.60849   1846126.49849  21245581.0904   21245591.0734
  17270469.654   -32941497.06549 -25643006.08049  17270473.6554   17270481.5924
 95  2  5 18 30 59.9900000  0  7  4 18 19 22 29 25 14
  21700797.071    -7897005.44049  -6140309.89649  21700807.7064   21700817.4364
  19818074.895   -19444248.71149 -15128389.52049  19818078.5684   19818087.0104
  20756881.379   -14688586.19249 -11427143.28149  20756888.7464   20756898.2644
  18142772.773   -37375616.46049 -29107578.40549  18142776.3874   18142784.7984
  18087373.187   -35540091.28249 -27684354.13149  18087376.5194   18087383.2214
  21249595.140     2387975.00449   1862582.29049  21249600.0584   21249609.4114
  17261586.824   -32988178.64149 -25679381.35249  17261590.3874   17261598.4364
 95  2  5 18 31 29.9890000  0  7  4 18 19 22 29 25 14
  21685039.764    -7979842.07849  -6204857.94049  21685044.8234   21685054.1844
  19790270.354   -19590361.30149 -15242243.47549  19790274.2624   19790282.6014
  20727673.858   -14842073.35349 -11546743.64049  20727681.2054   20727690.7724
  18131367.007   -37435560.70049 -29154288.21649  18131369.4274   18131377.7584
  18066814.416   -35648125.63649 -27768536.75349  18066818.3234   18066825.0134
  21253607.648     2409042.46749   1878998.39549  21253609.6724   21253619.0054
  17252799.970   -33034354.27349 -25715362.38149  17252803.5384   17252811.5604
 95  2  5 18 31 59.9890000  0  7  4 18 19 22 29 25 14
  21669362.591    -8062241.98049  -6269065.67949  21669364.7944   21669374.1764
  19762464.389   -19736482.33249 -15356104.00149  19762468.2244   19762476.5944
  20698496.003   -14995442.72549 -11666252.23249  20698495.6884   20698505.3774
  18120067.646   -37494937.39849 -29200555.78249  18120070.2534   18120078.7334
  18046276.310   -35756055.78149 -27852638.17049  18046279.7514   18046286.5604
  21257598.675     2430026.10549   1895349.19049  21257602.4904   21257612.2314
  17244105.252   -33080047.72749 -25750967.68949  17244108.4984   17244116.4414
 95  2  5 18 32 29.9890000  0  7  4 18 19 22 29 25 14
  21653773.172    -8144203.97849  -6332932.19149  21653767.5894   21653777.2104
  19734655.250   -19882631.40749 -15469986.38549  19734657.1174   19734665.5214
  20669329.583   -15148687.91549 -11785664.05649  20669334.0574   20669344.0564
  18108873.581   -37553764.15349 -29246394.82549  18108875.9944   18108884.3874
  18025755.149   -35863891.20049 -27936665.77549  18025759.4394   18025766.2454
  21261572.111     2450898.58749   1911613.37049  21261574.2154   21261584.4574
  17235501.255   -33125259.58649 -25786197.72949  17235505.0354   17235512.9164
 95  2  5 18 32 59.9890000  0  7  4 18 19 22 29 25 14
  21638256.358    -8225731.79749  -6396460.38949  21638253.4014   21638262.9524
  19706836.574   -20028817.00349 -15583897.22649  19706839.0964   19706847.4034
  20640191.305   -15301816.19749 -11904984.78849  20640194.7284   20640204.3574
  18097778.636   -37612061.32749 -29291821.20549  18097782.3704   18097790.8204
  18005250.215   -35971648.58449 -28020632.57449  18005253.9294   18005260.7324
  21265520.596     2471652.55049   1927785.18749  21265523.8254   21265534.1554
  17226992.533   -33169973.86549 -25821040.04349  17226996.1444   17227004.1084
 95  2  5 18 33 29.9890000  0  7  4 18 19 22 29 25 14
  21622822.612    -8306840.72949  -6459662.17249  21622819.4594   21622828.1764
  19679010.278   -20175043.97849 -15697840.30749  19679013.0654   19679021.2984
  20611079.074   -15454815.70649 -12024205.18049  20611079.5234   20611089.4914
  18086787.244   -37669828.70549 -29336834.75649  18086789.5744   18086798.0304
  17984760.623   -36079322.20149 -28104534.09649  17984764.3454   17984771.2064
  21269448.068     2492295.23249   1943870.30549  21269452.1554   21269462.4744
  17218580.518   -33214177.40749 -25855484.38449  17218584.4104   17218592.4144
 95  2  5 18 33 59.9890000  0  7  4 18 19 22 29 25 14
  21607471.178    -8387520.19149  -6522529.30449  21607466.8454   21607476.1054
  19651179.789   -20321289.18149 -15811797.59549  19651183.2884   19651191.6244
  20581991.547   -15607671.42549 -12143313.52349  20581992.2794   20582002.4564
  18075900.849   -37727032.96249 -29381409.51449  18075904.0724   18075912.4334
  17964288.289   -36186906.10149 -28188365.71349  17964291.7504   17964298.6984
  21273359.989     2512868.48349   1959901.31349  21273366.7194   21273376.9784
  17210270.270   -33257851.53249 -25889516.19049  17210273.4114   17210281.2734
 95  2  5 18 34 29.9890000  0  7  4 18 19 22 29 25 14
  21592190.722    -8467785.56249  -6585073.76349  21592193.0564   21592201.4224
  19623347.679   -20467545.74449 -15925763.73149  19623351.7234   19623360.0324
  20552927.015   -15760401.81749 -12262324.21449  20552928.7704   20552938.6964
  18065121.126   -37783684.77349 -29425553.79449  18065123.6624   18065131.9054
  17943831.420   -36294405.28649 -28272131.31849  17943835.3624   17943842.2794
  21277267.442     2533389.87749   1975891.90749  21277271.9384   21277282.2324
  17202059.038   -33300996.62749 -25923135.76649  17202063.4384   17202071.2824
 95  2  5 18 34 59.9890000  0  7  4 18 19 22 29 25 14
  21576994.587    -8547624.21749  -6647285.71449  21576999.9814   21577008.6574
  19595518.731   -20613787.26449 -16039718.14849  19595522.8534   19595531.1684
  20523888.731   -15912984.09149 -12381219.48949  20523893.2664   20523902.9164
  18054450.376   -37839760.31449 -29469249.03249  18054452.9984   18054461.1484
  17923397.542   -36401785.76249 -28355804.42149  17923401.5014   17923408.5604
  21281171.441     2553898.34849   1991872.43849  21281174.7754   21281184.7424
  17193952.841   -33343596.52149 -25956330.50949  17193956.9554   17193964.8374
 95  2  5 18 35 29.9890000  0  7  4 18 19 22 29 25 14
  21561874.344    -8627045.58149  -6709172.50649  21561886.6654   21561894.9134
  19567691.070   -20760026.12249 -16153670.49249  19567694.4844   19567702.8454
  20494877.294   -16065437.92149 -12500014.67349  20494882.1394   20494892.2444
  18043885.442   -37895275.02949 -29512507.26649  18043888.7994   18043897.0214
  17902983.344   -36509062.77349 -28439396.90749  17902987.4124   17902994.5414
  21285065.083     2574366.55649   2007821.58849  21285069.6664   21285079.9874
  17185942.834   -33385690.56749 -25989131.08549  17185946.7484   17185954.6194
 95  2  5 18 35 59.9890000  0  7  4 18 19 22 29 25 14
  21546861.506    -8706022.93849  -6770713.32849  21546858.1184   21546866.6604
  19539868.382   -20906241.97049 -16267604.90549  19539870.5744   19539878.9534
  20465893.942   -16217762.93249 -12618709.48949  20465895.6304   20465905.3714
  18033425.282   -37950241.29749 -29555338.14049  18033429.0194   18033437.2534
  17882588.339   -36616240.46849 -28522912.00349  17882592.1174   17882599.2474
  21288951.218     2594781.50349   2023729.23949  21288954.9534   21288964.8284
  17178027.431   -33427287.46449 -26021544.27549  17178031.2174   17178039.0334
 95  2  5 18 36 29.9890000  0  7  4 18 19 22 29 25 14
  21531913.726    -8784543.84549  -6831898.46449  21531916.0654   21531924.5724
  19512047.610   -21052429.60949 -16381517.33249  19512051.9814   19512060.4294
  20436930.884   -16369945.04249 -12737292.94049  20436936.1644   20436946.3724
  18023069.190   -38004672.24049 -29597751.87849  18023071.2614   18023079.5874
  17862216.416   -36723296.35249 -28606332.17949  17862220.0444   17862227.3364
  21292823.654     2615132.14049   2039586.78149  21292827.5354   21292837.3144
  17170209.422   -33468371.72149 -26053558.00349  17170212.9474   17170220.8664
 95  2  5 18 36 59.9890000  0  7  4 18 19 22 29 25 14
  21517062.822    -8862586.96149  -6892711.30649  21517064.8354   21517073.5594
  19484237.062   -21198577.96249 -16495399.15549  19484240.8644   19484249.3924
  20408002.773   -16521964.63149 -12855749.75949  20408008.0284   20408017.9924
  18012813.697   -38058559.67549 -29639742.10249  18012816.7574   18012825.1514
  17841868.500   -36830221.62649 -28689650.58049  17841872.7734   17841880.0004
  21296683.131     2635406.85849   2055385.16149  21296685.3274   21296695.7394
  17162489.223   -33508941.86249 -26085171.12449  17162492.7514   17162500.7594
 95  2  5 18 37 29.9890000  0  7  4 18 19 22 29 25 14
  21502299.332    -8940169.74449  -6953165.45049  21502300.7704   21502309.9154
  19456431.349   -21344700.67849 -16609261.00049  19456434.7764   19456443.2344
  20379104.234   -16673837.98549 -12974092.62349  20379107.8294   20379117.2034
  18002658.271   -38111925.39449 -29681325.79549  18002661.6154   18002670.0484
  17821540.589   -36937047.42449 -28772891.47049  17821544.5594   17821551.8814
  21300521.007     2655577.80649   2071102.68449  21300524.1344   21300534.1534
  17154862.286   -33549019.87549 -26116400.76649  17154866.2854   17154874.1884
 95  2  5 18 37 59.9890000  0  7  4 18 19 22 29 25 14
  21487621.188    -9017300.24849  -7013267.16049  21487623.3024   21487632.9514
  19428632.585   -21490785.96549 -16723093.67849  19428635.5534   19428643.9974
  20350233.421   -16825549.56049 -13092309.43049  20350237.8454   20350247.3534
  17992604.995   -38164759.92949 -29722495.57849  17992607.5514   17992615.9314
  17801236.126   -37043748.78849 -28856035.40149  17801239.8934   17801247.2134
  21304346.466     2675671.42549   2086759.93449  21304348.2024   21304357.7364
  17147335.849   -33588577.06049 -26147224.56549  17147338.8524   17147346.7164
 95  2  5 18 38 29.9890000  0  7  4 18 19 22 29 25 14
  21473020.169    -9093990.63649  -7073025.93349  21473029.5404   21473039.5704
  19400840.037   -21636839.12949 -16836901.32849  19400842.5134   19400850.8164
  20321397.175   -16977093.77749 -13210395.82149  20321400.3604   20321409.5944
  17982658.864   -38217028.62749 -29763224.44649  17982661.1864   17982669.6804
  17780959.942   -37150300.86749 -28939063.00249  17780963.5624   17780970.9374
  21308159.915     2695712.30049   2102376.09049  21308161.6934   21308171.6194
  17139910.017   -33627593.17949 -26177626.75349  17139914.3204   17139922.1674
 95  2  5 18 38 59.9890000  0  7  4 18 19 22 29 25 14
  21458515.264    -9170249.78549  -7132448.67349  21458517.7284   21458527.7574
  19373052.063   -21782862.38749 -16950685.67849  19373055.2834   19373063.5194
  20292588.326   -17128475.28749 -13328355.43849  20292593.1324   20292602.5054
  17972820.882   -38268724.92849 -29803507.29449  17972823.8564   17972832.0804
  17760710.186   -37256712.60449 -29021981.24649  17760714.2664   17760721.5974
  21311964.991     2715707.62149   2117956.74349  21311966.6144   21311976.7564
  17132586.435   -33666082.52849 -26207618.47349  17132590.1584   17132597.9774
 95  2  5 18 39 29.9890000  0  7  4 18 19 22 29 25 14
  21444081.530    -9246078.02949  -7191535.64349  21444087.7114   21444098.5684
  19345271.823   -21928842.09049 -17064436.08749  19345276.1624   19345284.4724
  20263811.667   -17279691.49249 -13446186.23549  20263817.7274   20263826.8624
  17963096.088   -38319833.45549 -29843332.13649  17963098.1334   17963106.3864
  17740490.819   -37362968.35249 -29104777.94149  17740494.3714   17740501.7974
  21315757.623     2735675.60049   2133516.10049  21315766.3414   21315776.9454
  17125365.466   -33704028.35049 -26237186.66549  17125369.1584   17125377.1804
 95  2  5 18 39 59.9890000  0  7  4 18 19 22 29 25 14
  21429741.779    -9321443.92549  -7250262.33749  21429746.4694   21429756.2554
  19317507.389   -22074751.60949 -17178131.80649  19317510.6394   19317519.0034
  20235074.794   -17430717.05149 -13563868.48249  20235078.4384   20235088.0154
  17953487.126   -38370325.41449 -29882676.53249  17953489.8274   17953498.0234
  17720307.353   -37469036.41549 -29187428.38549  17720310.3374   17720317.7284
  21319567.357     2755636.72449   2149070.11249  21319565.1784   21319575.3654
  17118252.693   -33741404.48449 -26266310.94549  17118256.7324   17118264.8104
 95  2  5 18 40 29.9890000  0  7  4 18 19 22 29 25 14
  21415485.767    -9396361.48449  -7308639.69449  21415490.0284   21415500.3794
  19289752.066   -22220607.24749 -17291785.54549  19289755.5544   19289763.6434
  20206366.276   -17581569.59149 -13681415.91349  20206372.2324   20206381.7024
  17943992.121   -38420218.41449 -29921554.21049  17943995.4994   17944003.5984
  17700152.070   -37574947.27349 -29269956.33449  17700156.1734   17700163.6214
  21323356.546     2775559.86049   2164594.52149  21323357.0334   21323366.1894
  17111243.305   -33778242.97649 -26295016.28849  17111246.7514   17111254.7884
 95  2  5 18 40 59.9890000  0  7  4 18 19 22 29 25 14
  21401317.514    -9470807.76849  -7366649.80549  21401323.4334   21401334.1134
  19262012.628   -22366383.70449 -17405377.58049  19262015.0164   19262023.1134
  20177701.640   -17732223.29549 -13798808.40549  20177703.8484   20177712.9914
  17934608.898   -38469528.98749 -29959978.04749  17934612.0394   17934620.2284
  17680029.176   -37680698.19049 -29352359.65249  17680032.4784   17680039.8964
  21327135.782     2795443.43849   2180088.09649  21327139.7574   21327150.1034
  17104337.496   -33814532.74549 -26323294.05249  17104341.0334   17104349.0754
 95  2  5 18 41 29.9890000  0  6  4 18 19 22 29 14
  21387239.531    -9544793.74649  -7424301.25249  21387244.4794   21387254.6284
  19234282.673   -22512099.99949 -17518922.73349  19234286.1264   19234294.1754
  20149063.325   -17882704.71149 -13916066.65249  20149068.3544   20149077.3704
  17925333.153   -38518276.44849 -29997963.09849  17925335.7924   17925343.9654
  17659933.438   -37786297.62749 -29434644.93549  17659937.4464   17659944.9384
  17097533.418   -33850290.50249 -26351157.26249  17097536.5914   17097544.6334
 95  2  5 18 41 59.9890000  0  6  4 18 19 22 29 14
  21373251.492    -9618304.59549  -7481582.45249  21373256.3424   21373266.1104
  19206565.415   -22657756.46849 -17632421.27149  19206568.5784   19206576.5514
  20120466.004   -18033000.03249 -14033179.88949  20120468.2194   20120477.1544
  17916166.117   -38566450.43649 -30035501.28349  17916168.6714   17916176.8084
  17639871.390   -37891726.40749 -29516797.24049  17639875.2374   17639882.6054
  17090832.130   -33885501.90049 -26378594.73849  17090836.1294   17090844.1854
 95  2  5 18 42 29.9880000  0  6  4 18 19 22 29 14
  21359356.100    -9691346.41249  -7538498.17949  21359356.8244   21359366.5424
  19178855.977   -22803368.30749 -17745885.02449  19178859.5954   19178867.6804
  20091898.026   -18183111.85949 -14150150.13849  20091902.7414   20091912.0654
  17907106.040   -38614063.08649 -30072602.06549  17907108.3704   17907116.4494
  17619841.275   -37996987.30749 -29598818.72949  17619844.7584   17619852.1394
  17084235.024   -33920172.35449 -26405610.69849  17084238.4554   17084246.4574
 95  2  5 18 42 59.9880000  0  6  4 18 19 22 29 14
  21345545.877    -9763916.75749  -7595046.51549  21345547.9414   21345556.6574
  19151149.726   -22948968.77549 -17859339.91849  19151152.5674   19151160.4504
  20063362.832   -18333059.70749 -14266992.61149  20063368.5544   20063377.5514
  17898149.706   -38661126.02449 -30109274.49949  17898152.6014   17898160.7224
  17599840.677   -38102088.09049 -29680715.45349  17599844.7654   17599852.0754
  17077737.399   -33954315.42049 -26432215.70749  17077741.1984   17077749.1814
 95  2  5 18 43 29.9880000  0  6  4 18 19 22 29 14
  21331824.561    -9836016.86749  -7651228.44249  21331827.7064   21331836.7754
  19123446.032   -23094552.42449 -17972781.71049  19123448.9904   19123456.9164
  20034859.077   -18482852.83949 -14383714.53549  20034863.8344   20034873.1094
  17889303.502   -38707612.23749 -30145497.53649  17889306.5394   17889314.7124
  17579873.156   -38207022.00149 -29762482.14649  17579876.5814   17579883.8984
  17071341.930   -33987924.85149 -26458404.89749  17071345.6114   17071353.5674
 95  2  5 18 43 59.9880000  0  6  4 18 19 22 29 14
  21318191.971    -9907665.57949  -7707058.63849  21318193.3944   21318202.1684
  19095744.401   -23240120.35049 -18086211.24549  19095748.4904   19095756.1934
  20006383.813   -18632491.22949 -14500315.87949  20006388.4994   20006397.5544
  17880567.132   -38753525.39849 -30181274.04449  17880569.4514   17880577.5644
  17559932.308   -38311811.45449 -29844136.27549  17559935.7664   17559943.0924
  17065046.840   -34021005.17049 -26484181.79349  17065050.6804   17065058.5754
 95  2  5 18 44 29.9880000  0  6  4 18 19 22 29 14
  21304643.872    -9978849.92549  -7762526.98149  21304647.5404   21304655.7804
  19068052.616   -23385643.02249 -18199605.52349  19068056.2734   19068063.9264
  19977943.489   -18781948.34949 -14616775.97249  19977948.3214   19977957.0544
  17871940.338   -38798854.71849 -30216595.61149  17871943.5594   17871951.5984
  17540018.610   -38416456.88549 -29925678.17749  17540022.5264   17540029.7774
  17058852.391   -34053556.35649 -26509546.37649  17058856.4944   17058864.3914
 95  2  5 18 44 59.9880000  0  6  4 18 19 22 29 14
  21291183.263   -10049580.75049  -7817641.93649  21291187.9234   21291196.6304
  19040373.044   -23531101.29949 -18312949.62049  19040376.6174   19040384.4104
  19949537.291   -18931232.26649 -14733101.09749  19949539.6514   19949549.3874
  17863428.769   -38843592.91749 -30251456.56349  17863430.2984   17863438.3204
  17520130.544   -38520964.44349 -30007112.64649  17520135.4514   17520142.7664
  17052757.954   -34085586.76749 -26534505.16049  17052761.3794   17052769.2984
 95  2  5 18 45 29.9880000  0  6  4 18 19 22 29 14
  21277811.142   -10119876.08149  -7872417.54549  21277811.0264   21277819.8034
  19012709.218   -23676474.07849 -18426227.09749  19012713.1574   19012720.6984
  19921162.200   -19080342.31449 -14849290.73649  19921164.9234   19921174.4924
  17855026.315   -38887736.27749 -30285854.00049  17855030.0684   17855038.2514
  17500270.074   -38625338.45649 -30088443.05449  17500273.6934   17500280.9364
  17046761.624   -34117094.91749 -26559056.98849  17046765.5024   17046773.4794
 95  2  5 18 45 59.9880000  0  6  4 18 19 22 29 14
  21264506.826   -10189736.41549  -7926854.19249  21264517.0024   21264525.8304
  18985062.661   -23821762.23849 -18539438.63549  18985065.6604   18985073.3044
  19892822.422   -19229263.68149 -14965333.34649  19892826.3094   19892836.0784
  17846737.802   -38931296.79249 -30319797.27449  17846740.7374   17846748.9004
  17480434.283   -38729574.39549 -30169665.87249  17480438.2484   17480445.5764
  17040861.990   -34148099.85149 -26583216.70149  17040865.3774   17040873.4344
 95  2  5 18 46 29.9880000  0  6  4 18 19 22 29 14
  21251303.263   -10259163.29749  -7980953.08949  21251305.4244   21251314.4534
  18957429.673   -23966972.20849 -18652589.25249  18957433.4044   18957440.8974
  19864517.174   -19378015.06949 -15081243.50049  19864519.9674   19864529.3524
  17838557.332   -38974285.72949 -30353295.16149  17838560.2184   17838568.5184
  17460626.701   -38833664.11949 -30250774.75649  17460630.7094   17460637.9314
  17035056.862   -34178605.21149 -26606987.13349  17035060.5984   17035068.4784
 95  2  5 18 46 59.9880000  0  6  4 18 19 22 29 14
  21238177.081   -10328158.52149  -8034715.63049  21238176.2274   21238185.1224
  18929812.059   -24112107.01849 -18765681.29049  18929814.9234   18929822.7054
  19836238.671   -19526624.68349 -15197043.18149  19836240.5434   19836249.8424
  17830485.015   -39016707.60849 -30386351.18349  17830487.4354   17830495.9994
  17440849.858   -38937594.83449 -30331759.73449  17440853.3304   17440860.5384
  17029348.552   -34208600.91849 -26630360.43149  17029352.5074   17029360.4864
 95  2  5 18 47 29.9880000  0  6  4 18 19 22 29 14
  21225130.292   -10396695.19649  -8088120.86049  21225133.5224   21225143.1194
  18902210.031   -24257156.41849 -18878706.79149  18902213.1684   18902220.8054
  19807987.518   -19675068.78949 -15312713.89949  19807992.4534   19808002.0184
  17822521.575   -39058553.92249 -30418958.71949  17822524.4164   17822532.8624
  17421109.215   -39041331.25649 -30412593.32349  17421112.9724   17421120.2554
  17023743.470   -34238055.96849 -26653312.44349  17023747.3264   17023755.4194
 95  2  5 18 47 59.9880000  0  6  4 18 19 22 29 14
  21212153.492   -10464871.38849  -8141245.21349  21212159.7284   21212169.8454
  18874602.304   -24402240.38849 -18991759.22849  18874604.4414   18874611.9544
  19779753.497   -19823450.98449 -15428336.37349  19779756.2754   19779765.6174
  17814644.089   -39099951.16149 -30451216.33249  17814646.9004   17814655.2874
  17401385.724   -39144978.10849 -30493357.12049  17401389.6974   17401396.8004
  17018221.640   -34267074.31649 -26675924.17449  17018225.5334   17018233.4044
 95  2  5 18 48 29.9880000  0  6  4 18 19 22 29 14
  21199249.824   -10532690.92849  -8194091.63849  21199254.5534   21199264.1774
  18846987.108   -24547358.74949 -19104838.45049  18846989.1964   18846996.9754
  19751527.302   -19971775.47949 -15543913.87649  19751530.8094   19751540.2974
  17806848.424   -39140918.74249 -30483139.13049  17806851.0164   17806859.3394
  17381677.962   -39248545.94349 -30574059.32649  17381681.4864   17381688.5444
  17012783.451   -34295654.07649 -26698194.12849  17012786.7974   17012794.8414
 95  2  5 18 48 59.9880000  0  6  4 18 19 22 29 14
  21186464.258   -10599932.30549  -8246487.54749  21186458.7364   21186468.6104
  18819402.155   -24692308.59849 -19217786.36349  18819406.2434   18819413.9924
  19723361.783   -20119802.63049 -15659259.69349  19723362.2654   19723371.6124
  17799172.361   -39181255.50349 -30514570.38949  17799175.2254   17799183.5474
  17362024.036   -39351825.20149 -30654536.67249  17362028.0674   17362035.0944
  17007465.695   -34323596.98649 -26719967.84249  17007469.5364   17007477.6604
 95  2  5 18 49 29.9880000  0  6  4 18 19 22 29 14
  21173773.581   -10666589.66149  -8298428.37549  21173775.0634   21173783.6624
  18791852.110   -24837092.16449 -19330604.70949  18791854.7414   18791862.5014
  19695252.750   -20267486.83449 -15774338.27749  19695258.4724   19695268.2194
  17791617.374   -39220960.72949 -30545509.54549  17791619.8004   17791627.9504
  17342424.930   -39454819.29349 -30734791.81149  17342428.8644   17342435.8934
  17002269.103   -34350903.96449 -26741246.03049  17002273.1664   17002281.3204
 95  2  5 18 49 59.9880000  0  6  4 18 19 22 29 14
  21161208.457   -10732561.83749  -8349835.29049  21161220.2454   21161229.5904
  18764351.752   -24981602.11549 -19443209.84749  18764355.2234   18764363.1004
  19667239.213   -20414717.35349 -15889063.34249  19667241.6804   19667251.2794
  17784203.146   -39259920.88849 -30575868.12949  17784205.8764   17784213.9954
  17322898.347   -39557431.91149 -30814749.69849  17322902.3094   17322909.3854
  16997212.994   -34377475.69349 -26761951.29449  16997216.6834   16997224.9134
 95  2  5 18 50 29.9880000  0  6  4 18 19 22 29 14
  21148801.195   -10797803.33849  -8400672.85649  21148805.5404   21148815.2194
  18736915.216   -25125782.78849 -19555558.41149  18736918.6234   18736926.7684
  19639317.962   -20561438.38849 -16003391.40949  19639321.5094   19639331.0664
  17776944.916   -39298064.67249 -30605590.57849  17776947.3564   17776955.5184
  17303456.545   -39659602.68949 -30894363.29549  17303459.8764   17303466.8584
  16992307.171   -34403256.81849 -26782040.50349  16992310.6974   16992318.8804
 95  2  5 18 50 59.9880000  0  6  4 18 19 22 29 14
  21136521.121   -10862362.21649  -8450978.50649  21136520.1414   21136530.2524
  18709531.285   -25269688.01749 -19667692.34049  18709534.3884   18709542.3874
  19611484.888   -20707700.04349 -16117361.52149  19611489.0094   19611498.6784
  17769838.105   -39335409.27049 -30634690.29149  17769840.9004   17769849.0964
  17284092.306   -39761361.24149 -30973655.67849  17284095.8304   17284102.8674
  16987546.160   -34428276.04749 -26801536.03049  16987549.6674   16987557.9524
 95  2  5 18 51 29.9880000  0  6  4 18 19 22 29 14
  21124366.893   -10926218.29849  -8500736.52549  21124368.3654   21124378.8324
  18682209.191   -25413263.57549 -19779569.39849  18682212.7054   18682220.7634
  19583744.170   -20853482.49449 -16230958.23149  19583747.6694   19583757.2704
  17762895.960   -39371892.25449 -30663118.61949  17762898.5044   17762906.7434
  17264815.725   -39862657.66049 -31052587.96149  17264819.7124   17264826.8074
  16982941.407   -34452476.91849 -26820393.87749  16982944.5074   16982952.7364
 95  2  5 18 51 59.9880000  0  6  4 18 19 22 29 14
  21112353.096   -10989378.37249  -8549952.20649  21112349.9884   21112359.9654
  18654953.693   -25556501.24949 -19891183.16249  18654955.4134   18654963.6804
  19556087.255   -20998822.54949 -16344210.21949  19556090.2204   19556099.9294
  17756117.204   -39407509.33649 -30690872.21649  17756120.7494   17756128.9814
  17245630.323   -39963477.72649 -31131149.05649  17245634.2624   17245641.3404
  16978490.247   -34475863.83149 -26838617.46749  16978494.2054   16978502.3324
 95  2  5 18 52 29.9880000  0  6  4 18 19 22 29 14
  21100465.140   -11051803.48849  -8598595.19849  21100470.9814   21100480.9084
  18627767.826   -25699357.37549 -20002499.61849  18627770.7584   18627779.1174
  19528516.071   -21143695.20349 -16457097.99849  19528521.9684   19528531.5954
  17749511.102   -39442230.13949 -30717927.41349  17749513.6854   17749521.8464
  17226544.615   -40063776.45449 -31209303.91849  17226548.1274   17226555.1884
  16974200.564   -34498410.30849 -26856186.17249  16974203.8234   16974211.8724
 95  2  5 18 52 59.9880000  0  6  4 18 19 22 29 14
  21088714.500   -11113509.57249  -8646677.90149  21088728.7324   21088738.6204
  18600653.080   -25841843.03849 -20113527.40249  18600656.7414   18600665.0864
  19501032.768   -21288135.93849 -16569649.21649  19501035.6574   19501045.0404
  17743068.171   -39476089.89249 -30744311.66249  17743070.2884   17743078.5534
  17207552.635   -40163577.96149 -31287071.33449  17207556.5174   17207563.6454
  16970063.175   -34520150.72949 -26873126.78249  16970066.7664   16970074.8164
 95  2  5 18 53 29.9880000  0  6  4 18 19 22 29 14
  21077083.657   -11174629.83149  -8694304.11749  21077097.9824   21077107.3354
  18573585.008   -25984088.10649 -20224367.70949  18573588.2094   18573596.6894
  19473600.373   -21432287.68649 -16681975.25249  19473604.7154   19473614.1914
  17736755.861   -39509258.37349 -30770157.25949  17736758.4944   17736766.8464
  17188625.939   -40263037.55849 -31364572.32549  17188629.9924   17188637.0884
  16966050.424   -34541237.81949 -26889558.30449  16966054.0244   16966062.1654
 95  2  5 18 53 59.9870000  0  6  4 18 19 22 29 14
  21065609.559   -11235015.69849  -8741358.08249  21065607.3514   21065616.7744
  18546587.935   -26125956.33049 -20334914.37049  18546591.4864   18546600.1924
  19446253.873   -21576005.31249 -16793963.00649  19446256.0254   19446265.6724
  17730597.319   -39541621.71749 -30795375.47949  17730599.8804   17730608.2434
  17169787.556   -40362036.28049 -31441714.19149  17169791.1634   17169798.2974
  16962185.269   -34561549.12449 -26905385.31949  16962188.8934   16962197.0884
 95  2  5 18 54 29.9870000  0  6  4 18 19 22 29 14
  21054235.624   -11294794.30149  -8787938.86849  21054231.4524   21054241.0214
  18519638.285   -26267576.59549 -20445267.81749  18519641.9904   18519650.6824
  19418965.304   -21719399.75649 -16905698.93049  19418968.7714   19418978.5254
  17724569.703   -39573298.99149 -30820059.09849  17724571.9684   17724580.3394
  17151009.599   -40460716.20449 -31518607.65049  17151013.0304   17151020.1444
  16958446.571   -34581194.64549 -26920693.54749  16958450.5234   16958458.7414
 95  2  5 18 54 59.9870000  0  6  4 18 19 22 29 14
  21042965.647   -11353943.24349  -8834028.99649  21042976.1884   21042985.5794
  18492742.330   -26408917.01149 -20555403.19849  18492746.1594   18492754.6374
  19391750.105   -21862417.70949 -17017141.47749  19391753.5364   19391762.9504
  17718676.861   -39604264.42249 -30844188.03049  17718679.5194   17718687.9704
  17132296.624   -40559053.17649 -31595233.86949  17132300.0074   17132307.0834
  16954842.669   -34600135.49149 -26935452.67449  16954846.2824   16954854.4324
 95  2  5 18 55 29.9870000  0  6  4 18 19 22 29 14
  21031813.947   -11412563.33749  -8879707.03849  21031820.6844   21031830.9334
  18465881.536   -26550069.84549 -20665392.41349  18465885.4524   18465894.1824
  19364588.809   -22005138.99149 -17128352.85649  19364594.7184   19364603.9144
  17712902.707   -39634606.39149 -30867831.15249  17712905.7754   17712914.0864
  17113630.501   -40657141.24149 -31671666.13949  17113634.5174   17113641.5904
  16951355.832   -34618459.36349 -26949731.04749  16951359.3904   16951367.5574
 95  2  5 18 55 59.9870000  0  6  4 18 19 22 29 14
  21020755.151   -11470680.18849  -8924992.94749  21020761.1564   21020771.0854
  18439054.366   -26691050.37849 -20775247.36949  18439057.6354   18439066.4844
  19337486.786   -22147562.06349 -17239331.87049  19337492.4174   19337501.6414
  17707251.081   -39664306.96149 -30890974.48349  17707253.9334   17707262.2664
  17095013.000   -40754976.33549 -31747901.28849  17095017.2504   17095024.4034
  16947983.881   -34636180.24549 -26963539.55749  16947987.2164   16947995.3364
 95  2  5 18 56 29.9870000  0  6  4 18 19 22 29 14
  21009794.798   -11528303.97449  -8969894.64949  21009796.0874   21009805.3574
  18412257.460   -26831868.20549 -20884975.53649  18412261.0374   18412269.7824
  19310443.734   -22289682.31649 -17350074.91949  19310447.8304   19310457.1444
  17701722.565   -39693363.17949 -30913615.72249  17701724.7314   17701733.1124
  17076448.278   -40852537.97149 -31823923.35049  17076451.9384   17076459.0214
  16944724.993   -34653303.25249 -26976882.18849  16944728.8694   16944737.0334
 95  2  5 18 56 59.9870000  0  6  4 18 19 22 29 14
  20998927.040   -11585411.38849  -9014393.99349  20998928.4134   20998939.2184
  18385491.288   -26972528.07149 -20994580.62249  18385494.3464   18385503.0594
  19283458.474   -22431495.82149 -17460578.93849  19283461.5034   19283470.9354
  17696315.185   -39721776.13749 -30935755.71949  17696317.9784   17696326.4724
  17057939.056   -40949806.13149 -31899716.73249  17057942.4144   17057949.4364
  16941580.921   -34669826.33649 -26989757.35249  16941584.6724   16941592.8424
 95  2  5 18 57 29.9870000  0  6  4 18 19 22 29 14
  20988164.929   -11641968.41449  -9058464.45949  20988166.7544   20988176.2474
  18358757.896   -27113012.46249 -21104048.97449  18358761.1414   18358769.7774
  19256533.828   -22572985.53749 -17570830.65949  19256537.1024   19256546.4304
  17691037.107   -39749509.92149 -30957366.48849  17691040.3404   17691048.8974
  17039491.287   -41046746.16049 -31975254.42749  17039495.2564   17039502.3504
  16938555.551   -34685723.65249 -27002144.90349  16938559.4964   16938567.7164
 95  2  5 18 57 59.9870000  0  6  4 18 19 22 29 14
  20977500.376   -11697999.68549  -9102125.23349  20977503.9534   20977514.7014
  18332050.874   -27253354.48249 -21213406.38649  18332054.8354   18332063.5954
  19229662.521   -22714184.41849 -17680855.74749  19229667.5724   19229677.0144
  17685884.836   -39776591.82649 -30978469.29549  17685886.8904   17685895.5644
  17021101.470   -41143385.22749 -32050557.60649  17021105.4614   17021112.5584
  16935642.266   -34701034.02049 -27014075.08949  16935646.0594   16935654.2594
 95  2  5 18 58 29.9870000  0  6  4 18 19 22 29 14
  20966943.847   -11753496.88649  -9145369.85449  20966943.2604   20966953.4424
  18305374.208   -27393546.73749 -21322647.09549  18305377.1734   18305385.9524
  19202849.108   -22855105.33749 -17790664.23849  19202851.2054   19202860.6714
  17680848.900   -39803054.44449 -30999089.54549  17680851.2814   17680859.8494
  17002767.491   -41239734.12249 -32125634.67849  17002770.9884   17002777.9804
  16932839.891   -34715763.61749 -27025552.72749  16932843.1664   16932851.4264
 95  2  5 18 58 59.9870000  0  6  4 18 19 22 29 14
  20956487.381   -11808439.28449  -9188182.16149  20956488.3784   20956498.4174
  18278735.190   -27533535.96649 -21431729.60249  18278738.0874   18278746.8134
  19176085.965   -22995736.24349 -17900246.75149  19176090.0444   19176099.6724
  17675936.890   -39828866.03549 -31019202.50149  17675939.4264   17675948.0964
  16984491.774   -41335773.39549 -32200470.49049  16984495.3014   16984502.2904
  16930153.855   -34729882.47349 -27036554.46449  16930156.5304   16930164.6644
 95  2  5 18 59 29.9870000  0  6  4 18 19 22 29 14
  20946138.832   -11862815.92049  -9230553.61849  20946141.3804   20946150.6964
  18252144.743   -27673270.79649 -21540613.87749  18252147.3284   18252155.9514
  19149384.938   -23136055.06849 -18009586.08049  19149388.4474   19149397.8234
  17671156.832   -39853986.69749 -31038777.07349  17671159.2054   17671167.7554
  16966279.005   -41431478.67249 -32275046.04149  16966283.2684   16966290.2574
  16927585.022   -34743377.85349 -27047070.37249  16927588.5324   16927596.6994
 95  2  5 18 59 59.9870000  0  6  4 18 19 22 29 14
  20935892.199   -11916651.69249  -9272503.62149  20935896.5974   20935905.9604
  18225601.767   -27812754.05649 -21649302.12649  18225604.6374   18225613.1204
  19122737.143   -23276086.68549 -18118701.61849  19122741.0964   19122750.7804
  17666501.088   -39878451.49949 -31057840.58649  17666503.6894   17666512.4184
  16948128.124   -41526867.26549 -32349374.82449  16948131.3444   16948138.2804
  16925128.754   -34756284.31249 -27057127.38049  16925132.4404   16925140.6094
 95  2  5 19  0 29.9870000  0  6  4 18 19 22 29 14
  20925746.831   -11969967.63849  -9314048.56849  20925750.6794   20925760.6534
  18199102.332   -27952003.40549 -21757808.10649  18199106.3854   18199114.8014
  19096141.369   -23415852.01649 -18227609.65649  19096144.3804   19096154.2054
  17661966.044   -39902284.28649 -31076411.62249  17661968.3434   17661977.0714
  16930033.481   -41621954.46149 -32423468.75649  16930036.9764   16930043.8804
  16922784.598   -34768604.95049 -27066727.90749  16922787.7584   16922796.0274
 95  2  5 19  0 59.9870000  0  6  4 18 19 22 29 14
  20915695.139   -12022797.67649  -9355214.88749  20915697.1304   20915707.5014
  18172641.428   -28091063.30849 -21866166.47149  18172644.1734   18172652.3694
  19069590.114   -23555382.67549 -18336334.83349  19069592.9354   19069602.3104
  17657544.688   -39925515.00649 -31094513.50849  17657547.7134   17657556.4774
  16911991.198   -41716766.12549 -32497347.98349  16911994.8514   16912002.0354
  16920546.086   -34780367.70049 -27075893.71149  16920549.5054   16920557.6694
 95  2  5 19  1 29.9870000  0  6  4 18 19 22 29 14
  20905724.773   -12075174.75749  -9396028.25749  20905729.9234   20905739.8254
  18146202.770   -28229996.42949 -21974426.03049  18146206.2024   18146214.2294
  19043076.357   -23694702.01549 -18444895.35049  19043081.2384   19043090.7594
  17653226.349   -39948209.24749 -31112197.36249  17653229.1384   17653238.0014
  16893994.902   -41811336.96149 -32571039.55649  16893998.6484   16894005.7194
  16918406.121   -34791615.90549 -27084658.57749  16918409.0224   16918417.2064
 95  2  5 19  1 59.9870000  0  6  4 18 19 22 29 14
  20895836.659   -12127082.78849  -9436476.11649  20895851.9974   20895862.9724
  18119790.496   -28368793.31149 -22082579.43749  18119794.1194   18119801.9464
  19016610.519   -23833782.51549 -18553269.75549  19016615.0344   19016624.1804
  17649008.755   -39970371.31449 -31129466.53249  17649011.9024   17649020.8364
  16876048.579   -41905646.05449 -32644527.17449  16876052.3174   16876059.1284
  16916368.654   -34802320.92449 -27093000.17949  16916372.1334   16916380.3434
 95  2  5 19  2 29.9870000  0  6  4 18 19 22 29 14
  20886076.249   -12178484.61349  -9476529.54949  20886070.6684   20886080.9074
  18093411.229   -28507422.56249 -22190602.22449  18093413.6314   18093421.6584
  18990200.339   -23972573.54749 -18661418.60649  18990203.8064   18990213.4104
  17644902.598   -39991951.29949 -31146282.13849  17644905.3494   17644914.1754
  16858158.942   -41999657.44249 -32717782.80549  16858162.4594   16858169.5704
  16914444.428   -34812434.69849 -27100881.07849  16914447.3034   16914455.5744
 95  2  5 19  2 59.9870000  0  6  4 18 19 22 29 14
  20876381.251   -12229393.82249  -9516199.13249  20876383.4674   20876394.1444
  18067060.737   -28645890.80149 -22298499.54649  18067064.1264   18067072.1204
  18963844.774   -24111078.69849 -18769344.70149  18963847.0734   18963856.8844
  17640903.282   -40012965.38549 -31162656.77649  17640906.5784   17640915.2954
  16840324.726   -42093375.20749 -32790809.64649  16840328.5814   16840335.7084
  16912624.501   -34821994.82149 -27108330.55549  16912628.3184   16912636.5074
 95  2  5 19  3 29.9870000  0  6  4 18 19 22 29 14
  20866792.839   -12279784.25449  -9555464.43049  20866795.3254   20866804.4834
  18040749.126   -28784160.35249 -22406242.05649  18040752.1244   18040760.1444
  18937551.467   -24249254.80449 -18877014.40149  18937553.2044   18937562.1704
  17637022.884   -40033361.03149 -31178549.51849  17637025.3024   17637034.2454
  16822553.062   -42186765.10049 -32863580.99849  16822557.0044   16822564.2234
  16910916.176   -34830971.30549 -27115325.25149  16910920.1854   16910928.2094
 95  2  5 19  3 59.9870000  0  6  4 18 19 22 29 14
  20857283.521   -12329741.63749  -9594392.35349  20857288.2024   20857297.8914
  18014457.715   -28922321.78649 -22513900.30349  18014461.0194   18014469.1614
  18911297.489   -24387203.53749 -18984506.90649  18911302.4384   18911311.9194
  17633244.992   -40053208.95149 -31194015.45849  17633248.5524   17633257.2774
  16804824.354   -42279932.21849 -32936178.76049  16804827.8304   16804834.9584
  16909301.309   -34839458.68649 -27121938.82149  16909305.0054   16909313.2024
 95  2  5 19  4 29.9870000  0  6  4 18 19 22 29 14
  20847860.108   -12379262.32549  -9632979.96449  20847864.6714   20847874.5474
  17988185.866   -29060382.22649 -22621479.86649  17988188.9484   17988197.1694
  18885088.597   -24524928.95749 -19091825.41449  18885093.9344   18885103.5044
  17629571.542   -40072515.27649 -31209059.37249  17629574.7584   17629583.5464
  16787136.192   -42372883.46649 -33008608.31649  16787139.9034   16787146.9694
  16907778.711   -34847466.19449 -27128178.47049  16907781.2244   16907789.3334
 95  2  5 19  4 59.9870000  0  6  4 18 19 22 29 14
  20838508.172   -12428381.12849  -9671254.41349  20838517.5024   20838527.4914
  17961928.539   -29198364.99549 -22728998.90549  17961931.5774   17961939.7464
  18858916.379   -24662470.62149 -19199000.73949  18858920.8754   18858930.4294
  17625992.965   -40091326.98449 -31223717.87549  17625994.9944   17626003.9864
  16769483.369   -42465648.16049 -33080892.49949  16769487.1524   16769494.2814
  16906340.802   -34855020.52249 -27134064.99149  16906343.7044   16906351.8024
 95  2  5 19  5 29.9860000  0  6  4 18 19 22 29 14
  20829243.652   -12477092.57749  -9709211.45349  20829248.5644   20829258.4634
  17935688.468   -29336255.48049 -22836446.03549  17935691.9504   17935700.0344
  18832778.857   -24799826.85949 -19306031.57849  18832782.5604   18832792.1834
  17622508.375   -40109635.42449 -31237984.22049  17622511.0034   17622519.9254
  16751866.245   -42558224.72749 -33153030.09549  16751870.4314   16751877.5674
  16904994.187   -34862091.93649 -27139575.21449  16904998.0954   16905006.2254
 95  2  5 19  5 59.9860000  0  6  4 18 19 22 29 14
  20820063.739   -12525329.45549  -9746798.69349  20820069.0584   20820079.3594
  17909482.201   -29473974.66949 -22943759.69149  17909484.9494   17909492.9204
  18806688.224   -24936940.84849 -19412873.64849  18806690.9404   18806700.4694
  17619131.083   -40127386.65049 -31251816.37049  17619133.0424   17619141.8734
  16734298.490   -42650545.18649 -33224968.12349  16734302.4534   16734309.7464
  16903756.026   -34868604.07749 -27144649.64249  16903758.9494   16903767.1224
 95  2  5 19  6 29.9860000  0  6  4 18 19 22 29 14
  20810975.237   -12573119.58149  -9784037.80049  20810974.6444   20810984.9214
  17883309.860   -29611510.08049 -23050930.14249  17883312.9044   17883320.9084
  18780641.514   -25073809.43849 -19519524.50149  18780645.5344   18780655.4394
  17615857.212   -40144587.26249 -31265219.47049  17615859.9014   17615868.7374
  16716782.624   -42742594.95049 -33296695.21749  16716786.0634   16716793.3194
  16902622.100   -34874558.76149 -27149289.68849  16902625.7864   16902633.9554
 95  2  5 19  6 59.9860000  0  6  4 18 19 22 29 14
  20801959.899   -12620458.57049  -9820925.37349  20801966.5774   20801976.8184
  17857176.557   -29748843.00649 -23157942.81249  17857179.3514   17857187.2904
  18754643.953   -25210431.10149 -19625982.94049  18754647.3334   18754657.1164
  17612694.208   -40161210.41049 -31278172.59949  17612696.7174   17612705.5154
  16699317.988   -42834369.25549 -33368207.67149  16699321.9974   16699329.2554
  16901597.776   -34879943.95949 -27153485.98149  16901601.0144   16901609.1994
 95  2  5 19  7 29.9860000  0  6  4 18 19 22 29 14
  20793035.995   -12667334.15949  -9857451.85949  20793046.9094   20793056.6974
  17831081.767   -29885968.47849 -23264793.82949  17831085.2984   17831093.2434
  18728694.365   -25346793.52549 -19732239.37249  18728698.5664   18728708.4944
  17609644.390   -40177236.84049 -31290660.75149  17609647.1624   17609655.9054
  16681907.818   -42925861.91149 -33439500.65549  16681911.4754   16681918.7734
  16900681.371   -34884758.91449 -27157237.92949  16900684.7864   16900693.0194
 95  2  5 19  7 59.9860000  0  6  4 18 19 22 29 14
  20784207.024   -12713751.90749  -9893621.57849  20784214.0934   20784224.2374
  17805025.009   -30022897.30549 -23371491.61449  17805028.5044   17805036.5494
  18702795.161   -25482898.14249 -19838294.91649  18702798.5554   18702808.2894
  17606707.312   -40192670.16149 -31302686.74249  17606710.1564   17606718.9764
  16664548.980   -43017083.11449 -33510582.11749  16664552.6734   16664559.9544
  16899870.836   -34889018.89949 -27160557.43149  16899874.0474   16899882.2454
 95  2  5 19  8 29.9860000  0  6  4 18 19 22 29 14
  20775469.337   -12759712.71149  -9929435.23649  20775467.2414   20775477.5214
  17779003.162   -30159644.72449 -23478048.04249  17779006.4734   17779014.3994
  18676941.937   -25618753.06849 -19944155.89649  18676946.5784   18676956.3134
  17603881.419   -40207519.65749 -31314257.80749  17603884.5024   17603893.2644
  16647241.384   -43108033.59149 -33581452.62649  16647245.4344   16647252.6004
  16899161.627   -34892744.52249 -27163460.55149  16899165.1944   16899173.3414
 95  2  5 19  8 59.9860000  0  6  4 18 19 22 29 14
  20766804.823   -12805208.70349  -9964886.71849  20766810.4424   20766819.9674
  17753013.040   -30296222.43749 -23584472.23049  17753016.3124   17753024.3424
  18651135.292   -25754372.59149 -20049833.44349  18651139.0074   18651148.5344
  17601162.184   -40221810.48949 -31325393.54649  17601165.1204   17601173.8184
  16629985.714   -43198711.65449 -33652110.86649  16629989.9014   16629997.1474
  16898553.451   -34895942.63149 -27165952.62049  16898556.6514   16898564.7394
 95  2  5 19  9 29.9860000  0  5 18 19 22 29 14
  17727059.594   -30432612.11949 -23690749.89949  17727062.3124   17727070.2394
  18625378.379   -25889723.82349 -20155301.93249  18625382.3174   18625391.7584
  17598551.638   -40235529.78749 -31336083.93249  17598554.3454   17598562.9674
  16612792.617   -43289066.10149 -33722516.93749  16612796.0264   16612803.2474
  16898048.882   -34898593.68749 -27168018.41049  16898052.1084   16898060.3494
 95  2  5 19  9 59.9860000  0  5 18 19 22 29 14
  17701133.947   -30568846.43549 -23796906.50449  17701137.8804   17701145.7344
  18599664.304   -26024847.12849 -20260592.81749  18599669.2944   18599678.7074
  17596042.280   -40248716.81449 -31346359.56249  17596045.0654   17596053.6254
  16595655.554   -43379122.76949 -33792690.97049  16595658.9154   16595666.0594
  16897638.472   -34900747.88449 -27169697.03849  16897642.3214   16897650.5504
 95  2  5 19 10 29.9860000  0  5 18 19 22 29 14
  17675237.807   -30704935.00249 -23902949.53849  17675240.9134   17675248.8374
  18573993.485   -26159752.93849 -20365714.22549  18573997.7214   18574007.1534
  17593629.768   -40261394.91549 -31356238.62649  17593632.5574   17593641.1364
  16578575.345   -43468879.05949 -33862630.94249  16578578.8634   16578586.0504
  16897317.773   -34902432.60449 -27171009.84049  16897321.6794   16897329.9884
 95  2  5 19 10 59.9860000  0  5 18 19 22 29 14
  17649367.875   -30840880.41749 -24008881.02149  17649371.4304   17649379.4584
  18548362.467   -26294443.30849 -20470667.75649  18548367.0214   18548376.3804
  17591316.023   -40273553.52749 -31365712.89449  17591318.7494   17591327.4214
  16561551.738   -43558340.31149 -33932341.01349  16561554.9814   16561562.1274
  16897087.930   -34903642.92449 -27171952.98349  16897091.4304   16897099.6984
 95  2  5 19 11 29.9860000  0  5 18 19 22 29 14
  17623522.567   -30976700.33749 -24114714.71449  17623525.6554   17623533.8844
  18522770.585   -26428930.58049 -20575463.02749  18522774.9414   18522784.4304
  17589099.638   -40285202.60149 -31374790.12249  17589102.0454   17589110.6644
  16544577.428   -43647536.20949 -34001844.31849  16544581.5374   16544588.7294
  16896943.451   -34904405.23749 -27172547.03049  16896946.4654   16896954.7094
 95  2  5 19 11 59.9860000  0  5 18 19 22 29 14
  17597706.599   -31112362.82949 -24220425.73749  17597710.0584   17597718.2564
  18497222.591   -26563190.34549 -20680081.02149  18497226.0084   18497235.3514
  17586981.952   -40296330.78849 -31383461.46449  17586984.4074   17586993.0484
  16527655.694   -43736461.94649 -34071137.10549  16527659.4804   16527666.7124
  16896888.175   -34904695.13049 -27172772.95649  16896891.2994   16896899.5244
 95  2  5 19 12 29.9860000  0  5 18 19 22 29 14
  17571918.580   -31247881.24649 -24326024.49049  17571921.5364   17571929.6164
  18471715.785   -26697225.00449 -20784523.60249  18471720.2074   18471729.5154
  17584958.105   -40306964.41449 -31391747.43049  17584960.9234   17584969.4964
  16510783.154   -43825127.80449 -34140227.38949  16510786.9424   16510794.1214
  16896924.184   -34904504.21249 -27172624.22249  16896927.8664   16896936.0574
 95  2  5 19 12 59.9860000  0  5 18 19 22 29 14
  17546152.701   -31383280.93349 -24431530.73149  17546155.9714   17546164.0484
  18446248.539   -26831060.77149 -20888811.20449  18446251.8644   18446261.2934
  17583021.616   -40317139.48049 -31399676.08049  17583024.7234   17583033.2774
  16493952.616   -43913572.69749 -34209145.49349  16493956.4384   16493963.5824
  16897049.671   -34903844.78149 -27172110.41549  16897053.4164   16897061.6824
 95  2  5 19 13 29.9860000  0  5 18 19 22 29 14
  17520424.579   -31518483.17449 -24536883.12149  17520427.8834   17520435.9774
  18420836.019   -26964606.66449 -20992872.93049  18420839.1304   18420848.4494
  17581185.376   -40326791.79749 -31407197.39349  17581188.0554   17581196.5344
  16477178.311   -44001724.02549 -34277834.84749  16477181.7644   16477188.9514
  16897278.753   -34902643.96449 -27171174.74949  16897281.8144   16897290.1044
 95  2  5 19 13 59.9860000  0  5 18 19 22 29 14
  17494725.612   -31653534.80949 -24642118.15449  17494728.3264   17494736.3244
  18395467.789   -27097917.28149 -21096751.32149  18395470.7134   18395480.0294
  17579439.722   -40335964.50549 -31414344.98149  17579442.4424   17579451.0074
  16460448.242   -44089638.19449 -34346339.39749  16460452.3314   16460459.4224
  16897596.323   -34900969.77749 -27169870.22349  16897600.3304   16897608.6864
 95  2  5 19 14 29.9860000  0  5 18 19 22 29 14
  17469065.743   -31788375.67349 -24747188.95049  17469068.8714   17469076.8304
  18370152.878   -27230937.52849 -21200403.45449  18370158.0014   18370167.2554
  17577798.896   -40344586.79249 -31421063.67149  17577801.6914   17577810.1614
  16443776.313   -44177254.29849 -34414611.69649  16443779.5104   16443786.7034
  16898014.927   -34898769.13349 -27168155.47049  16898019.2314   16898027.5954
 95  2  5 19 14 59.9860000  0  5 18 19 22 29 14
  17443443.212   -31923021.28749 -24852107.60249  17443446.7684   17443454.7944
  18344889.881   -27363706.60449 -21303859.86549  18344892.7164   18344901.9854
  17576259.610   -40352675.79349 -31427366.81149  17576262.4534   17576270.8514
  16427152.777   -44264609.47549 -34482680.66749  16427156.4634   16427163.6754
  16898523.675   -34896099.15649 -27166075.00649  16898527.4194   16898535.7664
 95  2  5 19 15 29.9860000  0  5 18 19 22 29 14
  17417857.990   -32057471.29949 -24956873.83549  17417861.7784   17417869.8204
  18319670.207   -27496233.35649 -21407127.45949  18319673.8544   18319683.2354
  17574823.599   -40360224.15749 -31433248.67849  17574826.1314   17574834.4744
  16410579.908   -44351697.38349 -34550541.38449  16410584.0584   16410591.2054
  16899116.089   -34892986.05749 -27163649.25549  16899119.8234   16899128.0764
 95  2  5 19 15 59.9860000  0  5 18 19 22 29 14
  17392306.834   -32191750.13149 -25061506.67949  17392309.3324   17392317.4314
  18294489.161   -27628553.99849 -21510234.43949  18294494.0394   18294503.3694
  17573482.207   -40367269.94349 -31438738.92249  17573485.2404   17573493.7244
  16394055.399   -44438535.77149 -34618207.66749  16394059.3614   16394066.4814
  16899789.310   -34889447.08849 -27160891.65749  16899793.2244   16899801.6114
 95  2  5 19 16 29.9860000  0  5 18 19 22 29 14
  17366784.861   -32325865.76449 -25166012.35749  17366788.0734   17366796.2644
  18269351.904   -27760658.34549 -21613172.88549  18269355.3504   18269364.6044
  17572234.300   -40373832.53249 -31443852.65449  17572236.5174   17572244.9504
  16377580.053   -44525113.82849 -34685671.09449  16377584.0494   16377591.2064
  16900546.089   -34885471.04149 -27157793.47849  16900549.8104   16900558.3824
 95  2  5 19 16 59.9850000  0  6 18 19 28 22 29 14
  17341293.205   -32459824.60449 -25270395.85449  17341296.4984   17341304.6594
  18244253.625   -27892550.42749 -21715945.92249  18244257.2804   18244266.4784
  20570772.907    -8400311.07659  -6526940.98059  20570775.1874   20570786.3294
  17571073.463   -40379931.69249 -31448605.27149  17571075.6944   17571084.2124
  16361155.410   -44611427.78449 -34752928.72949  16361159.1214   16361166.2384
  16901382.522   -34881074.49049 -27154367.63549  16901386.3684   16901394.8914
 95  2  5 19 17 29.9850000  0  6 18 19 28 22 29 14
  17315826.797   -32593651.67149 -25374676.67549  17315830.0554   17315838.2074
  18219193.996   -28024235.73349 -21818557.83449  18219198.1554   18219207.4854
  20544382.738    -8538977.07449  -6634992.36149  20544388.3524   20544398.9964
  17569998.813   -40385578.04349 -31453005.04949  17570001.2834   17570009.7504
  16344779.094   -44697486.11749 -34819987.17749  16344782.8024   16344789.8394
  16902302.573   -34876241.99849 -27150602.09949  16902306.1224   16902314.6444
 95  2  5 19 17 59.9850000  0  6 18 19 28 22 29 14
  17290385.442   -32727340.28049 -25478849.60649  17290389.8934   17290397.9594
  18194174.330   -28155717.64449 -21921011.25849  18194178.1014   18194187.3394
  20518005.283    -8677587.16149  -6743000.14649  20518011.1394   20518022.4244
  17569008.907   -40390784.01249 -31457061.67149  17569010.6174   17569019.1824
  16328449.310   -44783298.36349 -34886853.87049  16328453.2844   16328460.3164
  16903305.200   -34870975.19349 -27146498.13749  16903308.2024   16903316.7234
 95  2  5 19 18 29.9850000  0  6 18 19 28 22 29 14
  17264973.933   -32860886.22149 -25582911.36949  17264976.9434   17264984.8784
  18169191.395   -28287004.43849 -22023312.64249  18169194.9534   18169204.2294
  20491643.091    -8816138.09249  -6850961.84949  20491646.9994   20491656.5574
  17568101.524   -40395547.36249 -31460773.39449  17568104.2364   17568112.7904
  16312165.099   -44868873.51449 -34953535.81149  16312168.8904   16312175.9834
  16904384.346   -34865300.09549 -27142076.02549  16904388.1944   16904396.7724
 95  2  5 19 18 59.9850000  0  6 18 19 28 22 29 14
  17239584.794   -32994307.44149 -25686875.94749  17239587.7764   17239595.8904
  18144238.215   -28418133.17149 -22125490.86149  18144241.7874   18144251.3114
  20465292.474    -8954644.82749  -6958889.10249  20465289.6444   20465300.0444
  17567276.996   -40399883.47949 -31464152.21049  17567279.2844   17567287.8944
  16295920.112   -44954239.05249 -35020054.41849  16295924.3014   16295931.4604
  16905540.561   -34859227.54549 -27137344.20949  16905543.7834   16905552.3344
 95  2  5 19 19 29.9850000  0  6 18 19 28 22 29 14
  17214217.702   -33127610.56749 -25790748.50649  17214220.9744   17214228.9834
  18119315.427   -28549100.82149 -22227543.56549  18119319.7524   18119329.0634
  20438939.442    -9093096.56349  -7066773.51049  20438942.8554   20438953.8064
  17566534.391   -40403783.50849 -31467191.22049  17566537.1424   17566545.7794
  16279716.709   -45039389.95049 -35086405.77449  16279720.6164   16279727.8244
  16906773.475   -34852746.29849 -27132293.93149  16906777.0864   16906785.7324
 95  2  5 19 19 59.9850000  0  6 18 19 28 22 29 14
  17188875.928   -33260782.20749 -25894518.60949  17188879.3284   17188887.3474
  18094425.069   -28679897.71749 -22329463.21649  18094429.9344   18094439.1714
  20412606.270    -9231477.70149  -7174602.88849  20412610.1124   20412620.5014
  17565876.689   -40407239.18549 -31469883.98149  17565879.4944   17565888.2094
  16263558.439   -45124303.33249 -35152572.05449  16263562.0774   16263569.1704
  16908085.347   -34845855.28549 -27126924.35649  16908088.4964   16908096.9474
 95  2  5 19 20 29.9850000  0  6 18 19 28 22 29 14
  17163558.565   -33393826.97549 -25998189.85049  17163561.7354   17163569.7144
  18069571.896   -28810509.00149 -22431238.23149  18069575.5744   18069584.8104
  20386290.166    -9369778.81149  -7282369.92949  20386291.3774   20386302.2364
  17565305.562   -40410240.61649 -31472222.78749  17565308.3364   17565316.9654
  16247448.749   -45208960.49149 -35218538.67949  16247452.5654   16247459.5274
  16909477.912   -34838536.05249 -27121221.10049  16909481.3664   16909489.7954
 95  2  5 19 20 59.9850000  0  6 18 19 28 22 29 14
  17138262.959   -33526755.40249 -26101770.43149  17138266.2344   17138274.1974
  18044751.254   -28940937.31949 -22532870.67549  18044755.5834   18044764.9804
  20359987.168    -9507996.79049  -7390072.19649  20359990.1194   20360000.4534
  17564820.490   -40412788.71049 -31474208.34349  17564823.4084   17564832.1284
  16231390.966   -45293344.55049 -35284292.49749  16231394.7774   16231401.7534
  16910952.851   -34830782.50949 -27115179.42049  16910956.8464   16910965.2914
 95  2  5 19 21 29.9850000  0  6 18 19 28 22 29 14
  17112991.762   -33659556.72249 -26205251.96849  17112995.1744   17113003.1744
  18019968.286   -29071176.08749 -22634355.42349  18019971.9844   18019981.3524
  20333699.069    -9646132.39149  -7497710.27749  20333703.8764   20333713.5474
  17564420.449   -40414889.73049 -31475845.52849  17564423.6444   17564432.4614
  16215385.355   -45377451.77449 -35349830.60149  16215389.6304   16215396.6594
  16912507.540   -34822616.40049 -27108816.26449  16912510.8454   16912519.2154
 95  2  5 19 21 59.9850000  0  6 18 19 28 22 29 14
  17087748.977   -33792206.53249 -26308615.44749  17087752.6964   17087760.5884
  17995219.528   -29201227.35349 -22735694.06249  17995224.0474   17995233.3244
  20307429.698    -9784186.76149  -7605285.05849  20307432.1084   20307443.4274
  17564105.679   -40416548.48649 -31477138.09549  17564108.1044   17564116.7974
  16199431.350   -45461294.25549 -35415162.40749  16199434.8854   16199442.0494
  16914139.362   -34814042.09649 -27102135.03149  16914142.5004   16914150.9304
 95  2  5 19 22 29.9850000  0  6 18 19 28 22 29 14
  17062536.776   -33924699.34549 -26411856.59749  17062540.1464   17062547.8864
  17970507.512   -29331094.13049 -22836888.94649  17970511.3834   17970520.6504
  20281172.822    -9922160.25449  -7712796.83249  20281176.9264   20281187.4254
  17563872.625   -40417768.92549 -31478089.11649  17563875.9064   17563884.6904
  16183525.783   -45544878.74249 -35480293.18449  16183529.5264   16183536.6694
  16915849.706   -34805052.04649 -27095129.84349  16915853.4224   16915861.7654
 95  2  5 19 22 59.9850000  0  6 18 19 28 22 29 14
  17037359.626   -34057009.69049 -26514955.55949  17037362.3114   17037370.0824
  17945833.458   -29460757.84149 -22937925.59449  17945837.1804   17945846.4804
  20254936.533   -10060041.03949  -7820236.36449  20254939.0914   20254949.3564
  17563725.705   -40418547.25349 -31478695.63549  17563727.8704   17563736.7304
  16167671.137   -45628193.93849 -35545214.12349  16167675.1684   16167682.1154
  16917640.623   -34795641.12449 -27087796.70249  16917644.2294   16917652.6544
 95  2  5 19 23 29.9850000  0  6 18 19 28 22 29 14
  17012216.675   -34189133.26649 -26617908.98849  17012219.9434   17012227.8674
  17921195.702   -29590225.41949 -23038809.41149  17921200.3224   17921209.6114
  20228711.253   -10197839.71449  -7927611.91249  20228716.3674   20228727.0294
  17563658.567   -40418899.99549 -31478970.53249  17563660.8534   17563669.7424
  16151861.195   -45711275.84349 -35609953.27449  16151865.2714   16151872.2284
  16919508.613   -34785825.18149 -27080147.96149  16919512.2224   16919520.7724
 95  2  5 19 23 59.9850000  0  6 18 19 28 22 29 14
  16987111.419   -34321065.85849 -26720713.59849  16987114.0884   16987121.9114
  17896597.909   -29719492.10649 -23139536.69649  17896601.5034   17896610.8374
  20202509.213   -10335542.88349  -8034913.03749  20202512.5344   20202522.3564
  17563672.900   -40418823.32949 -31478910.82749  17563675.3844   17563684.2474
  16136097.194   -45794118.58649 -35674506.06949  16136100.7484   16136107.7614
  16921457.222   -34775587.65549 -27072170.71449  16921460.3554   16921468.7984
 95  2  5 19 24 29.9850000  0  6 18 19 28 22 29 14
  16962041.149   -34452809.10649 -26823370.66749  16962044.1084   16962051.9794
  17872041.611   -29848536.91349 -23240091.08549  17872045.1684   17872054.5624
  20176327.207   -10473136.10449  -8142128.47849  20176329.4084   20176340.1674
  17563770.925   -40418309.45549 -31478510.43649  17563773.1914   17563782.0164
  16120383.635   -45876693.23049 -35738849.95349  16120387.3034   16120394.3134
  16923486.188   -34764927.17949 -27063863.89549  16923489.0394   16923497.6394
 95  2  5 19 24 59.9850000  0  6 18 19 28 22 29 14
  16937004.934   -34584374.35949 -26925889.04149  16937008.1184   16937015.9044
  17847523.381   -29977377.98249 -23340486.71649  17847527.6084   17847536.8964
  20150164.390   -10610625.11449  -8249262.71949  20150166.0074   20150176.3404
  17563949.646   -40417371.56849 -31477779.64649  17563951.7954   17563960.6164
  16104720.116   -45959004.59949 -35802988.68649  16104723.9204   16104731.0744
  16925589.916   -34753870.77149 -27055248.56049  16925592.9784   16925601.5624
 95  2  5 19 25 29.9850000  0  6 18 19 28 22 29 14
  16912000.471   -34715777.85749 -27028281.37249  16912002.9404   16912010.7624
  17823040.760   -30106039.13949 -23440742.15749  17823043.9004   17823053.4604
  20124018.305   -10748013.47349  -8356318.53149  20124021.9894   20124032.6274
  17564206.338   -40416015.82849 -31476723.25349  17564209.7604   17564218.4844
  16089105.157   -46041061.33449 -35866929.00549  16089108.9984   16089116.1494
  16927766.350   -34742431.10649 -27046334.58449  16927770.0354   16927778.5274
 95  2  5 19 25 59.9850000  0  6 18 19 28 22 29 14
  16887023.849   -34847027.52749 -27130553.83449  16887026.8934   16887034.7204
  17798593.625   -30234508.76049 -23540848.34849  17798597.0714   17798606.5814
  20097893.999   -10885292.90449  -8463289.45849  20097897.7774   20097908.5814
  17564545.287   -40414240.29649 -31475339.75149  17564547.5934   17564556.4254
  16073544.412   -46122833.34549 -35930647.46349  16073548.4004   16073555.4484
  16930017.558   -34730606.55749 -27037120.70149  16930020.2604   16930028.8464
 95  2  5 19 26 29.9850000  0  6 18 19 28 22 29 14
  16862077.930   -34978116.81849 -27232701.32349  16862081.2874   16862089.2454
  17774186.316   -30362771.67749 -23640793.46549  17774189.4964   17774198.8234
  20071794.610   -11022449.85449  -8570164.93449  20071798.0284   20071808.8704
  17564964.275   -40412038.16349 -31473623.83049  17564966.6714   17564975.5934
  16058041.889   -46204302.25649 -35994129.73749  16058045.4914   16058052.4054
  16932342.065   -34718384.12649 -27027596.77649  16932346.0874   16932354.6444
 95  2  5 19 26 59.9850000  0  6 18 19 28 22 29 14
  16837162.812   -35109050.09849 -27334727.24249  16837165.4804   16837173.4114
  17749814.160   -30490843.78049 -23740589.89549  17749818.3374   17749827.5694
  20045716.723   -11159490.41249  -8676949.71449  20045720.9444   20045731.1824
  17565461.794   -40409423.48649 -31471586.44449  17565464.3844   17565473.1334
  16042591.434   -46285493.25249 -36057395.45749  16042595.3014   16042602.3174
  16934742.984   -34705766.63349 -27017765.01449  16934747.2304   16934755.7264
 95  2  5 19 27 29.9850000  0  6 18 19 28 22 29 14
  16812277.523   -35239822.37449 -27436627.70349  16812280.3844   16812288.3474
  17725482.803   -30618701.26249 -23840219.08749  17725487.8314   17725497.1544
  20019662.571   -11296412.17349  -8783641.93149  20019664.5904   20019676.0684
  17566037.129   -40406398.14649 -31469229.06049  17566040.0424   17566048.8014
  16027192.159   -46366415.90049 -36120452.07249  16027196.1504   16027203.2514
  16937220.783   -34692750.02449 -27007622.25349  16937224.1094   16937232.6364
 95  2  5 19 27 59.9850000  0  6 18 19 28 22 29 14
  16787425.104   -35370421.79149 -27538393.47049  16787428.0194   16787435.9574
  17701196.486   -30746331.10249 -23939670.89649  17701200.7174   17701210.0924
  19993629.571   -11433210.03349  -8890237.58849  19993633.1594   19993643.0264
  17566691.561   -40402963.04849 -31466552.38549  17566693.7704   17566702.5734
  16011844.610   -46447066.76449 -36183296.90649  16011848.7314   16011855.8314
  16939773.775   -34679336.00349 -26997169.81949  16939776.6784   16939785.2844
 95  2  5 19 28 29.9840000  0  6 18 19 28 22 29 14
  16762608.312   -35500833.77049 -27640013.18349  16762611.6084   16762619.4914
  17676954.082   -30873729.36549 -24038942.25349  17676957.5534   17676966.8184
  19967622.021   -11569876.91549  -8996731.18449  19967626.1154   19967636.0564
  17567422.007   -40399122.82449 -31463560.02449  17567424.5394   17567433.3414
  15996548.881   -46527448.59649 -36245932.10649  15996552.7104   15996559.8334
  16942400.455   -34665529.03549 -26986411.19649  16942404.0644   16942412.8194
 95  2  5 19 28 59.9840000  0  6 18 19 28 22 29 14
  16737827.427   -35631060.20649 -27741488.31649  16737830.2504   16737838.2214
  17652751.687   -31000907.34549 -24138041.96049  17652756.2684   17652765.4494
  19941640.094   -11706421.81449  -9103129.71749  19941642.3454   19941652.7704
  17568229.681   -40394873.55449 -31460248.92749  17568233.3494   17568242.0834
  15981302.968   -46607563.98849 -36308359.68749  15981307.3134   15981314.3064
  16945099.163   -34651349.52749 -26975362.28049  16945102.3764   16945111.1174
 95  2  5 19 29 29.9840000  0  6 18 19 28 22 29 14
  16713082.894   -35761092.34349 -27842812.04549  16713086.0354   16713093.9774
  17628593.409   -31127867.25649 -24236971.74049  17628596.6644   17628605.9314
  19915680.840   -11842837.51049  -9209427.59049  19915684.2174   19915693.3444
  17569118.386   -40390208.89149 -31456614.14349  17569120.9354   17569129.6674
  15966112.485   -46687391.44349 -36370562.90049  15966116.6074   15966123.6214
  16947866.576   -34636801.41749 -26964026.14149  16947870.8104   16947879.5474
 95  2  5 19 29 59.9840000  0  6 18 19 28 22 29 14
  16688375.644   -35890929.35249 -27943983.72949  16688378.6394   16688386.6454
  17604467.376   -31254648.61749 -24335762.39249  17604470.7844   17604480.2084
  19889747.760   -11979127.58949  -9315627.57549  19889748.2074   19889757.8574
  17570082.698   -40385142.43149 -31452666.27749  17570085.0394   17570093.6814
  15950979.174   -46766918.53049 -36432532.06549  15950982.9964   15950990.0724
  16950703.124   -34621896.01249 -26952411.59149  16950707.3524   16950715.9804
 95  2  5 19 30 29.9840000  0  6 18 19 28 22 29 14
  16663703.390   -36020578.43149 -28045008.97049  16663707.3774   16663715.3104
  17580374.284   -31381258.80149 -24434419.65849  17580377.7474   17580387.0014
  19863834.266   -12115292.57149  -9421730.07949  19863836.8634   19863846.8024
  17571121.979   -40379675.14149 -31448406.07149  17571125.4374   17571134.1394
  15935902.352   -46846142.45049 -36494264.99449  15935907.3164   15935914.4224
  16953608.023   -34606635.90649 -26940520.64849  16953611.2554   16953620.0794
 95  2  5 19 30 59.9840000  0  6 18 19 28 22 29 14
  16639067.693   -36150044.86549 -28145891.89449  16639070.6844   16639078.6204
  17556310.209   -31507709.57349 -24532952.70849  17556314.8984   17556324.2174
  19837943.196   -12251331.90049  -9527734.68749  19837949.6304   19837959.0164
  17572239.230   -40373806.26749 -31443832.95149  17572242.1254   17572250.7384
  15920883.522   -46925071.89549 -36555768.46349  15920887.4274   15920894.6674
  16956578.724   -34591019.23849 -26928351.87049  16956583.0734   16956591.8634
 95  2  5 19 31 29.9840000  0  6 18 19 28 22 29 14
  16614466.175   -36279325.64449 -28246630.15149  16614469.5134   16614477.5254
  17532278.696   -31634003.20949 -24631363.31749  17532282.0174   17532291.2124
  19812085.589   -12387237.65049  -9633635.20549  19812087.0924   19812097.3354
  17573431.294   -40367548.66849 -31438956.92849  17573432.9304   17573441.6184
  15905918.189   -47003713.19649 -36617047.40049  15905922.5264   15905929.7204
  16959619.368   -34575041.68349 -26915901.87649  16959623.7234   16959632.3304
 95  2  5 19 31 59.9840000  0  6 18 19 28 22 29 14
  16589898.337   -36408427.72649 -28347229.16349  16589902.1244   16589910.2134
  17508276.112   -31760132.25849 -24729645.67749  17508280.6824   17508289.8034
  19786249.575   -12523003.85449  -9739427.00849  19786252.0534   19786261.2674
  17574692.326   -40360916.59549 -31433789.10949  17574694.9164   17574703.5304
  15891005.424   -47082079.39549 -36678111.97749  15891009.9714   15891017.1274
  16962727.843   -34558710.13449 -26903176.04549  16962731.4804   16962740.2014
 95  2  5 19 32 29.9840000  0  6 18 19 28 22 29 14
  16565363.961   -36537356.48249 -28447693.11849  16565367.7764   16565375.7774
  17484312.806   -31886065.70249 -24827775.61249  17484316.1804   17484325.2854
  19760440.337   -12658621.95849  -9845103.38649  19760445.0674   19760453.5744
  17576028.155   -40353900.39249 -31428321.96849  17576029.9964   17576038.9704
  15876145.000   -47160174.36949 -36738965.20949  15876149.0344   15876156.1744
  16965905.696   -34542011.19449 -26890163.93549  16965909.2014   16965917.9004
 95  2  5 19 32 59.9840000  0  6 18 19 28 22 29 14
  16540865.502   -36666100.79349 -28548013.35649  16540868.5824   16540876.4834
  17460383.515   -32011810.67149 -24925758.68749  17460387.6084   17460396.7844
  19734665.129   -12794089.35349  -9950662.35549  19734666.2434   19734675.0584
  17577432.622   -40346509.06349 -31422562.52649  17577436.5584   17577445.6024
  15861334.304   -47238003.88449 -36799611.59149  15861338.4744   15861345.7194
  16969150.995   -34524955.61449 -26876873.92649  16969154.7354   16969163.3534
 95  2  5 19 33 29.9840000  0  6 18 19 28 22 29 14
  16516402.659   -36794653.28349 -28648184.12149  16516405.8394   16516413.6054
  17436490.556   -32137369.16349 -25023596.45749  17436494.7234   17436503.8534
  19708914.716   -12929403.80549 -10056102.14349  19708916.1534   19708925.7064
  17578910.261   -40338749.85049 -31416516.42049  17578913.1094   17578922.0134
  15846576.005   -47315561.41749 -36860046.03749  15846579.8004   15846586.9754
  16972462.814   -34507555.90049 -26863315.75549  16972466.0734   16972474.6634
 95  2  5 19 33 59.9840000  0  6 18 19 28 22 29 14
  16491980.098   -36922995.93549 -28748191.37749  16491983.1674   16491990.9774
  17412637.704   -32262715.48449 -25121268.89849  17412642.0244   17412651.0974
  19683193.295   -13064550.61749 -10161411.31349  19683198.5624   19683208.2804
  17580461.133   -40330602.52449 -31410167.89249  17580463.5314   17580472.5914
  15831874.092   -47392821.27749 -36920248.53249  15831877.7994   15831884.9224
  16975842.988   -34489788.35649 -26849470.96449  16975847.1524   16975855.7994
 95  2  5 19 34 29.9840000  0  6 18 19 28 22 29 14
  16467597.532   -37051121.94849 -28848029.82449  16467601.4674   16467609.3764
  17388829.953   -32387837.21349 -25218766.33949  17388832.0824   17388841.3474
  19657511.914   -13199524.33749 -10266585.60349  19657514.2594   19657523.7854
  17582085.882   -40322060.59949 -31403511.88449  17582088.8464   17582098.0894
  15817231.313   -47469768.58649 -36980207.48349  15817235.2554   15817242.3874
  16979294.156   -34471653.88949 -26835340.26249  16979297.9324   16979306.6594
 95  2  5 19 34 59.9840000  0  6 18 19 28 22 29 14
  16443259.631   -37179021.49749 -28947691.80449  16443263.0094   16443270.9994
  17365060.555   -32512736.61249 -25316090.52349  17365064.6024   17365073.7014
  19631861.134   -13334317.95149 -10371619.56949  19631864.1864   19631873.2964
  17583786.897   -40313122.93849 -31396547.51549  17583789.6564   17583798.8354
  15802650.026   -47546395.63349 -37039916.87749  15802653.6114   15802660.7224
  16982813.143   -34453164.24649 -26820932.80249  16982816.3794   16982825.1684
 95  2  5 19 35 29.9840000  0  6 18 19 28 22 29 14
  16418962.601   -37306704.70849 -29047185.21049  16418965.5804   16418973.4854
  17341337.960   -32637399.66349 -25413230.55049  17341342.0044   17341351.0674
  19606244.387   -13468928.66049 -10476511.01849  19606247.8924   19606257.5294
  17585563.482   -40303788.48049 -31389273.95149  17585566.0164   17585575.1174
  15788129.599   -47622699.20749 -37099374.21649  15788133.5654   15788140.6744
  16986401.167   -34434307.89649 -26806239.59349  16986404.6544   16986413.3914
 95  2  5 19 35 59.9840000  0  6 18 19 28 22 29 14
  16394703.474   -37434187.82549 -29146522.69649  16394706.8194   16394714.5864
  17317661.270   -32761821.82749 -25510182.86749  17317665.2424   17317674.2624
  19580664.977   -13603359.12149 -10581262.01049  19580666.7404   19580676.5864
  17587414.082   -40294063.57049 -31381696.13649  17587416.8034   17587425.8334
  15773669.892   -47698683.09349 -37158582.44249  15773674.1574   15773681.3894
  16990058.126   -34415088.80349 -26791263.72949  16990061.9644   16990070.7974
 95  2  5 19 36 29.9840000  0  6 18 19 28 22 29 14
  16370480.681   -37561478.34449 -29245710.10749  16370483.8654   16370491.7424
  17294025.411   -32886026.87849 -25606966.00849  17294029.7574   17294038.8134
  19555116.565   -13737618.50849 -10685879.69149  19555118.3424   19555128.4014
  17589336.268   -40283960.00649 -31373823.26649  17589339.4094   17589348.6184
  15759267.373   -47774370.42249 -37217559.58649  15759271.4634   15759278.6804
  16993778.257   -34395535.27449 -26776027.26649  16993782.9604   16993791.8684
 95  2  5 19 36 59.9840000  0  6 18 19 28 22 29 14
  16346298.247   -37688558.19449 -29344733.35649  16346301.3154   16346309.2254
  17270429.369   -33010026.84449 -25703589.34549  17270433.4374   17270442.4954
  19529602.868   -13871691.36249 -10790352.03249  19529605.0374   19529614.5424
  17591335.093   -40273464.39449 -31365644.90249  17591336.8944   17591345.9324
  15744922.431   -47849754.66849 -37276300.56049  15744926.2944   15744933.5154
  16997566.086   -34375630.48849 -26760517.09549  16997570.6204   16997579.5894
 95  2  5 19 37 29.9840000  0  6 18 19 28 22 29 14
  16322155.588   -37815429.55449 -29443594.14649  16322158.5664   16322166.5484
  17246870.935   -33133827.43149 -25800057.31949  17246874.6984   17246883.9344
  19504126.601   -14005574.49949 -10894676.53149  19504127.5784   19504137.6164
  17593403.944   -40262588.99349 -31357170.59849  17593406.3614   17593415.4814
  15730633.644   -47924844.25549 -37334811.92949  15730637.2444   15730644.3874
  17001420.304   -34355376.27549 -26744734.65049  17001424.7134   17001433.7984
 95  2  5 19 37 59.9840000  0  6 18 19 28 22 29 14
  16298054.917   -37942077.57349 -29542280.90849  16298058.1754   16298066.0764
  17223349.750   -33257433.00749 -25896373.33849  17223353.4934   17223362.6754
  19478681.393   -14139258.79049 -10998846.08949  19478687.9704   19478698.4154
  17595544.820   -40251343.10449 -31348407.60349  17595546.5584   17595555.4004
  15716400.203   -47999639.04549 -37393093.59149  15716404.3474   15716411.3634
  17005339.861   -34334783.07649 -26728688.05649  17005343.5474   17005352.5194
 95  2  5 19 38 29.9840000  0  6 18 19 28 22 29 14
  16273994.812   -38068512.21349 -29640801.39849  16273998.5534   16274006.4894
  17199858.910   -33380875.96249 -25992562.63949  17199863.0794   17199872.1464
  19453282.394   -14272760.06749 -11102873.04049  19453283.9674   19453293.8084
  17597750.916   -40239748.91449 -31339373.20149  17597752.8954   17597761.7034
  15702219.545   -48074160.73049 -37451162.44249  15702223.3154   15702230.4014
  17009319.508   -34313872.72049 -26712394.32549  17009322.6574   17009331.7654
 95  2  5 19 38 59.9840000  0  6 18 19 28 22 29 14
  16249979.615   -38194715.17049 -29739141.35649  16249983.0044   16249990.8904
  17176404.314   -33504129.92149 -26088604.67049  17176408.5264   17176417.5264
  19427916.830   -14406048.70849 -11206734.29249  19427919.8264   19427930.1044
  17600024.962   -40227796.56349 -31330059.71749  17600027.3784   17600036.1894
  15688097.571   -48148368.60549 -37508986.76749  15688101.9824   15688109.1634
  17013363.245   -34292619.06449 -26695833.09549  17013367.1164   17013376.2504
 95  2  5 19 39 29.9840000  0  6 18 19 28 22 29 14
  16226004.729   -38320703.95249 -29837314.42449  16226008.0754   16226015.8164
  17152986.315   -33627194.08449 -26184498.80849  17152990.2444   17152999.1874
  19402588.477   -14539146.58949 -11310446.90449  19402592.2944   19402601.9834
  17602361.059   -40215517.60549 -31320491.73449  17602363.9834   17602372.7464
  15674033.955   -48222274.44749 -37566575.74049  15674038.1464   15674045.3504
  17017468.944   -34271046.44349 -26679023.31949  17017472.3924   17017481.3714
 95  2  5 19 39 59.9830000  0  6 18 19 28 22 29 14
  16202073.023   -38446466.15149 -29935310.93349  16202076.3784   16202084.1644
  17129606.138   -33750057.84349 -26280236.78549  17129609.8964   17129619.0064
  19377297.834   -14672051.57849 -11414009.20449  19377301.3414   19377310.8794
  17604761.945   -40202903.72649 -31310662.77649  17604764.5084   17604773.1114
  15660030.680   -48295862.77949 -37623917.30249  15660034.7754   15660041.9664
  17021634.529   -34249153.03149 -26661963.57749  17021638.5904   17021647.6464
 95  2  5 19 40 29.9830000  0  6 18 19 28 22 29 14
  16178176.234   -38572047.18449 -30033166.26949  16178178.9764   16178186.8914
  17106256.367   -33872757.70149 -26375847.04349  17106261.0204   17106270.0404
  19352035.378   -14804801.05049 -11517450.31649  19352039.9704   19352049.7464
  17607221.290   -40189974.14449 -31300587.81049  17607224.7974   17607233.5304
  15646084.742   -48369148.76649 -37681023.26749  15646089.0354   15646096.2004
  17025857.137   -34226964.02049 -26644673.49749  17025861.0384   17025870.1734
 95  2  5 19 40 59.9830000  0  6 18 19 28 22 29 14
  16154320.093   -38697406.24549 -30130848.63949  16154323.8724   16154331.7894
  17082948.369   -33995247.06349 -26471293.27749  17082951.9354   17082961.1734
  19326813.251   -14937356.55149 -11620740.28249  19326814.9524   19326825.0454
  17609748.341   -40176698.92349 -31290243.51949  17609751.2994   17609759.9384
  15632203.683   -48442093.62549 -37737863.42049  15632207.9874   15632215.1414
  17030141.237   -34204451.99149 -26627131.71649  17030145.1344   17030154.2684
 95  2  5 19 41 29.9830000  0  6 18 19 28 22 29 14
  16130512.479   -38822520.62749 -30228340.34949  16130515.3374   16130523.3714
  17059683.855   -34117496.51849 -26566552.56949  17059688.6104   17059697.7824
  19301630.539   -15069696.29449 -11723862.11849  19301632.0284   19301641.9484
  17612344.934   -40163054.64249 -31279611.65249  17612347.4894   17612356.5684
  15618391.248   -48514683.77149 -37794427.17649  15618394.5754   15618401.6754
  17034491.449   -34181592.91149 -26609319.50849  17034495.2054   17034504.3344
 95  2  5 19 41 59.9830000  0  6 18 19 28 22 29 14
  16106749.421   -38947394.61349 -30325644.74249  16106752.7134   16106760.5884
  17036464.518   -34239517.42749 -26661633.77349  17036468.9144   17036477.9384
  19276486.437   -15201817.68049 -11826813.81149  19276489.9944   19276499.6024
  17615008.943   -40149046.78049 -31268696.47749  17615013.1324   17615022.1114
  15604642.449   -48586931.76249 -37850724.31949  15604646.2044   15604653.3874
  17038907.113   -34158387.84449 -26591237.69949  17038910.9384   17038920.1694
 95  2  5 19 42 29.9830000  0  6 18 19 28 22 29 14
  16083033.292   -39072026.57449 -30422760.54449  16083036.0454   16083043.9564
  17013288.500   -34361312.16549 -26756538.73849  17013292.0544   17013301.1324
  19251391.464   -15333708.33349 -11929585.70149  19251392.4124   19251401.7854
  17617742.865   -40134687.75449 -31257507.66749  17617745.4884   17617754.5314
  15590959.193   -48658834.43949 -37906752.38349  15590963.5484   15590970.7944
  17043388.939   -34134837.96249 -26572887.20149  17043392.5164   17043401.4854
 95  2  5 19 42 59.9830000  0  6 18 19 28 22 29 14
  16059364.478   -39196403.62049 -30519677.71249  16059367.4914   16059375.5624
  16990153.630   -34482882.04749 -26851268.49549  16990158.1254   16990167.1544
  19226332.800   -15465364.11049 -12032174.56549  19226338.7374   19226348.1054
  17620541.144   -40119983.19649 -31246049.61149  17620543.8984   17620552.7604
  15577338.843   -48730412.51649 -37962527.51349  15577342.7874   15577350.0044
  17047936.710   -34110939.92949 -26554265.41849  17047940.2214   17047949.2264
 95  2  5 19 43 29.9830000  0  7 18 19 28 31 22 29 14
  16035745.411   -39320521.11749 -30616392.63049  16035748.8234   16035756.9064
  16967061.749   -34604232.24849 -26945827.06549  16967065.9204   16967074.7734
  19201325.517   -15596784.22449 -12134579.78649  19201330.0924   19201339.7924
  19702036.098    -7082047.29959  -5493039.54659  19702037.5264   19702048.4054
  17623404.330   -40104940.47949 -31234328.05049  17623406.2884   17623415.3694
  15563776.876   -48801681.24749 -38018061.59149  15563780.6764   15563788.0044
  17052549.083   -34086699.51549 -26535376.84249  17052552.9904   17052561.9664
 95  2  5 19 43 59.9830000  0  7 18 19 28 31 22 29 14
  16012175.416   -39444382.70049 -30712908.13649  16012178.7454   16012186.7384
  16944004.273   -34725399.16649 -27040242.82149  16944008.5114   16944017.3014
  19176358.208   -15727981.14049 -12236811.09049  19176363.8574   19176373.5124
  19672418.390    -7237687.63049  -5614317.67949  19672420.8544   19672430.4574
  17626328.979   -40089570.77549 -31222351.69849  17626330.9914   17626340.2294
  15550269.805   -48872659.83549 -38073369.58649  15550273.8564   15550281.1824
  17057221.210   -34062147.12349 -26516245.16349  17057225.3834   17057234.2684
 95  2  5 19 44 29.9830000  0  7 18 19 28 31 22 29 14
  15988658.018   -39567970.36949 -30809210.20149  15988661.0324   15988668.9174
  16920982.200   -34846379.50749 -27134513.19049  16920986.9314   16920995.7904
  19151440.720   -15858939.58449 -12338856.56349  19151443.8634   19151452.8044
  19642792.796    -7393366.06449  -5735625.47149  19642795.7584   19642806.3434
  17629317.916   -40073854.90849 -31210105.60649  17629321.5084   17629330.8184
  15536822.127   -48943329.93249 -38128437.19849  15536825.8474   15536833.1594
  17061951.716   -34037286.54949 -26496873.34149  17061956.0934   17061965.0884
 95  2  5 19 44 59.9830000  0  7 18 19 28 31 22 29 14
  15965191.275   -39691288.10849 -30905301.93749  15965194.4974   15965202.2574
  16897995.263   -34967177.87649 -27228641.76649  16897999.5674   16898008.4014
  19126564.495   -15989665.71249 -12440721.01449  19126567.3994   19126576.6914
  19613157.227    -7549087.90449  -5856967.06949  19613162.8724   19613172.7624
  17632375.700   -40057789.06749 -31197586.80849  17632378.9654   17632388.1824
  15523429.267   -49013707.76849 -38183277.08149  15523433.4404   15523440.6374
  17066738.939   -34012135.28949 -26477275.01749  17066742.2794   17066751.3054
 95  2  5 19 45 29.9830000  0  7 18 19 28 31 22 29 14
  15941774.260   -39814342.06849 -31001188.12649  15941777.9404   15941785.7234
  16875043.579   -35087792.93649 -27322627.49949  16875047.3434   16875056.2324
  19101733.478   -16120154.90149 -12542400.83249  19101736.0784   19101745.1914
  19583523.194    -7704857.25849  -5978345.73449  19583519.4734   19583531.1984
  17635498.913   -40041381.33049 -31184801.59349  17635501.1544   17635510.4314
  15510098.207   -49083761.93749 -38237864.75249  15510102.4824   15510109.6654
  17071576.377   -33986713.03149 -26457465.52349  17071580.0604   17071588.9034
 95  2  5 19 45 59.9830000  0  7 18 19 28 31 22 29 14
  15918403.367   -39937160.07449 -31096890.45349  15918406.5404   15918414.2984
  16852123.250   -35208242.33449 -27416484.14749  16852126.5694   16852135.5304
  19076943.598   -16250416.43949 -12643903.25049  19076947.9394   19076957.1824
  19553863.572    -7860682.98749  -6099768.18449  19553867.7074   19553878.1394
  17638683.685   -40024643.94649 -31171759.51249  17638686.3234   17638695.5884
  15496830.147   -49153485.73649 -38292194.99549  15496834.5254   15496841.7854
  17076462.169   -33961036.37849 -26437457.79949  17076466.1554   17076474.9914
 95  2  5 19 46 29.9830000  0  7 18 19 28 31 22 29 14
  15895074.439   -40059752.87549 -31192417.29749  15895077.8364   15895085.6064
  16829237.267   -35328506.49049 -27510196.45149  16829240.8824   16829249.8324
  19052201.429   -16380452.44649 -12745229.94349  19052202.3424   19052211.9834
  19524202.757    -8016557.82649  -6221229.06249  19524204.3474   19524217.2734
  17641927.311   -40007593.54249 -31158473.52149  17641930.6814   17641940.0634
  15483624.896   -49222881.99149 -38346270.00949  15483628.9304   15483636.1584
  17081398.019   -33935100.09849 -26417247.76749  17081401.6534   17081410.5494
 95  2  5 19 46 59.9830000  0  7 18 19 28 31 22 29 14
  15871788.911   -40182124.01749 -31287771.41549  15871791.3624   15871799.1834
  16806389.128   -35448571.95349 -27603753.92749  16806393.1884   16806402.2704
  19027500.629   -16510255.01549 -12846374.71949  19027502.0164   19027511.5824
  19494534.779    -8172481.22049  -6342727.64049  19494535.3324   19494545.4714
  17645231.280   -39990234.99749 -31144947.41449  17645233.9414   17645243.2204
  15470484.255   -49291937.55249 -38400079.54549  15470488.0564   15470495.2984
  17086385.079   -33908891.09349 -26396825.22049  17086389.1824   17086397.9404
 95  2  5 19 47 29.9830000  0  7 18 19 28 31 22 29 14
  15848543.703   -40304275.85849 -31382954.65449  15848546.7584   15848554.5294
  16783579.115   -35568436.81449 -27697155.09149  16783583.7644   16783592.7574
  19002841.681   -16639819.86549 -12947334.27349  19002846.3434   19002856.2884
  19464848.622    -8328456.04949  -6464266.39849  19464853.1594   19464864.1144
  17648593.438   -39972564.60049 -31131178.30849  17648596.4184   17648605.9124
  15457410.482   -49360641.53549 -38453615.12849  15457414.2024   15457421.4674
  17091426.800   -33882391.73749 -26376176.42649  17091431.6964   17091440.7324
 95  2  5 19 47 59.9830000  0  7 18 19 28 31 22 29 14
  15825340.160   -40426210.40649 -31477968.57149  15825343.3604   15825351.1214
  16760809.103   -35688097.67449 -27790397.29449  16760812.9374   16760821.8084
  18978231.006   -16769148.47149 -13048109.74249  18978236.3164   18978245.7414
  19435159.909    -8484486.30049  -6585848.30949  19435162.2984   19435173.3284
  17652016.901   -39954579.58549 -31117164.04749  17652018.9464   17652028.3244
  15444397.892   -49429019.29049 -38506896.50549  15444402.3294   15444409.6074
  17096528.190   -33855592.17249 -26355293.70749  17096531.6244   17096540.3994
 95  2  5 19 48 29.9830000  0  7 18 19 28 31 22 29 14
  15802176.465   -40547935.30149 -31572819.12749  15802179.7494   15802187.5504
  16738077.247   -35807555.01849 -27883480.91549  16738081.0924   16738090.0494
  18953665.458   -16898250.03649 -13148708.30349  18953668.4184   18953678.1674
  19405454.286    -8640587.73449  -6707485.65149  19405456.4054   19405467.3724
  17655494.605   -39936297.06449 -31102917.96249  17655497.9324   17655507.4164
  15431446.683   -49497079.87149 -38559930.73649  15431450.7984   15431458.1494
  17101680.548   -33828513.71549 -26334193.67249  17101684.4224   17101693.3834
 95  2  5 19 48 59.9830000  0  7 18 19 28 31 22 29 14
  15779055.313   -40669440.10649 -31667498.18449  15779058.1904   15779065.9924
  16715383.542   -35926814.30449 -27976410.20349  16715386.8314   16715395.6484
  18929141.015   -17027116.92649 -13249123.98949  18929145.7964   18929155.6024
  19375736.237    -8796752.69049  -6829172.57449  19375740.1114   19375750.2644
  17659030.781   -39917720.14949 -31088442.47949  17659033.2224   17659042.4554
  15418559.263   -49564804.44349 -38612703.13749  15418563.2244   15418570.4814
  17106883.484   -33801171.39549 -26312888.02749  17106887.5004   17106896.6764
 95  2  5 19 49 29.9830000  0  7 18 19 28 31 22 29 14
  15755971.059   -40790744.99949 -31762021.46249  15755974.7444   15755982.4264
  16692723.255   -36045895.67849 -28069200.85449  16692726.3424   16692735.2054
  18904662.257   -17155775.81549 -13349377.60949  18904662.8264   18904672.6444
  19346003.432    -8952998.97649  -6950922.75249  19346006.4264   19346016.9944
  17662612.536   -39898899.92949 -31073777.41049  17662614.7164   17662624.0754
  15405728.803   -49632229.67149 -38665242.28149  15405732.6884   15405739.8914
  17112128.647   -33773610.81949 -26291412.31349  17112132.3104   17112141.2634
 95  2  5 19 49 59.9830000  0  8 18 19 28 31 22 29 27 14
  15732928.955   -40911834.45349 -31856376.86749  15732932.0994   15732939.7364
  16670095.807   -36164797.36949 -28161851.49249  16670100.1384   16670108.9844
  18880217.933   -17284226.21449 -13449468.76549  18880220.0084   18880229.3964
  19316259.364    -9109322.68949  -7072733.36349  19316259.3924   19316269.4554
  17666234.241   -39879864.19349 -31058944.40549  17666237.2844   17666246.3454
  15392954.740   -49699356.69649 -38717549.06149  15392958.8074   15392965.9954
  19843170.394    -6505598.45359  -5034859.27159  19843169.5014   19843179.3984
  17117409.618   -33745854.26049 -26269783.88549  17117414.2444   17117423.2064
 95  2  5 19 50 29.9830000  0  8 18 19 28 31 22 29 27 14
  15709926.107   -41032714.94049 -31950569.44249  15709929.3914   15709936.9814
  16647498.399   -36283549.31949 -28254385.44849  16647502.2404   16647510.9924
  18855809.446   -17412484.18249 -13549409.99349  18855813.1594   18855822.5774
  19286494.294    -9265728.36249  -7194607.75349  19286495.9574   19286506.1934
  17669893.603   -39860636.07849 -31043961.49449  17669896.1744   17669905.3304
  15380236.783   -49766193.95649 -38769630.05049  15380240.1514   15380247.2954
  19814821.994    -6654552.07249  -5150927.04449  19814823.7204   19814835.9074
  17122727.321   -33717914.14849 -26248012.42949  17122731.3394   17122740.2724
 95  2  5 19 50 59.9830000  0  8 18 19 28 31 22 29 27 14
  15686963.985   -41153383.60449 -32044596.96349  15686966.9714   15686974.4774
  16624926.663   -36402168.67949 -28346816.08649  16624929.9004   16624938.4334
  18831439.044   -17540550.53149 -13649201.89849  18831442.8034   18831452.3164
  19256710.638    -9422218.43049  -7316547.99049  19256716.4584   19256726.5034
  17673589.174   -39841219.58349 -31028831.79249  17673591.2544   17673600.1304
  15367569.912   -49832757.20049 -38821497.52149  15367573.6814   15367580.7864
  19786483.713    -6803490.00249  -5266982.58849  19786483.1544   19786493.8424
  17128081.221   -33689780.65649 -26226090.28849  17128084.9514   17128093.9454
 95  2  5 19 51 29.9820000  0  8 18 19 28 31 22 29 27 14
  15664035.093   -41273872.85949 -32138484.68749  15664038.6254   15664046.0874
  16602372.122   -36520692.03549 -28439171.91449  16602375.5194   16602384.2194
  18807099.394   -17668456.22749 -13748868.63149  18807103.3364   18807112.8134
  19226913.784    -9578825.86749  -7438579.63049  19226915.7634   19226924.8804
  17677315.737   -39821635.40749 -31013571.42949  17677317.9934   17677326.8804
  15354945.454   -49899098.11149 -38873191.74449  15354949.4454   15354956.4744
  19758139.049    -6952447.89649  -5383053.67949  19758136.9044   19758148.1904
  17133464.955   -33661485.08649 -26204041.85549  17133469.3294   17133478.3274
 95  2  5 19 51 59.9820000  0  8 18 19 28 31 22 29 27 14
  15641139.120   -41394193.16649 -32232240.76049  15641142.3154   15641149.9154
  16579831.454   -36639145.01449 -28531472.90349  16579834.6124   16579843.2344
  18782790.896   -17796207.24049 -13848414.82449  18782793.2254   18782802.4674
  19197084.404    -9735570.40149  -7560718.13849  19197088.2894   19197096.5534
  17681079.971   -39801857.08749 -30998159.78049  17681081.8974   17681090.7534
  15342361.367   -49965226.62649 -38924720.46149  15342365.6714   15342372.7184
  19729776.008    -7101455.55049  -5499163.55449  19729781.9484   19729793.5534
  17138883.339   -33633014.80449 -26181857.28549  17138887.1794   17138896.2614
 95  2  5 19 52 29.9820000  0  8 18 19 28 31 22 29 27 14
  15618274.685   -41514345.59849 -32325866.01949  15618278.0634   15618285.6664
  16557302.957   -36757529.85049 -28623720.79149  16557306.6724   16557315.3434
  18758509.381   -17923788.19049 -13947828.51749  18758515.3124   18758524.8034
  19167235.167    -9892429.55749  -7682945.96749  19167238.0704   19167248.0314
  17684882.533   -39781865.93149 -30982582.28549  17684886.0444   17684895.1954
  15329819.675   -50031135.99349 -38976078.41349  15329823.5814   15329830.6284
  19701407.050    -7250517.57249  -5615315.79449  19701415.9874   19701428.1434
  17144336.855   -33604357.58749 -26159527.04949  17144340.6114   17144349.6374
 95  2  5 19 52 59.9820000  0  8 18 19 28 31 22 29 27 14
  15595442.783   -41634329.06949 -32419359.62449  15595445.9304   15595453.5074
  16534790.129   -36875838.18549 -28715909.07049  16534793.3414   16534802.0934
  18734266.556   -18051195.50649 -14047106.92249  18734270.5914   18734279.9844
  19137362.470   -10049414.20949  -7805271.60149  19137366.0874   19137374.4264
  17688727.179   -39761664.01949 -30966840.56549  17688730.3324   17688739.5614
  15317316.588   -50096838.50149 -39027275.17649  15317320.8564   15317327.8604
  19673030.664    -7399640.27249  -5731515.30449  19673038.5894   19673050.4434
  17149821.052   -33575543.75249 -26137074.77349  17149823.9014   17149832.8244
 95  2  5 19 53 29.9820000  0  8 18 19 28 31 22 29 27 14
  15572647.839   -41754116.40949 -32512700.40049  15572651.1784   15572658.7864
  16512294.815   -36994049.32049 -28808021.61249  16512298.5394   16512307.4374
  18710060.639   -18178407.29049 -14146232.96449  18710063.1744   18710072.0754
  19107464.547   -10206503.65449  -7927678.89049  19107471.6024   19107481.6004
  17692615.508   -39741231.35049 -30950919.03449  17692618.5534   17692627.6924
  15304856.745   -50162315.64849 -39078296.33549  15304860.8584   15304867.9634
  19644644.398    -7548821.91349  -5847760.74749  19644651.2684   19644662.7704
  17155333.712   -33546567.25849 -26114495.75349  17155337.9484   17155347.0434
 95  2  5 19 53 59.9820000  0  8 18 19 28 31 22 29 27 14
  15549891.436   -41873701.26249 -32605883.39249  15549894.6994   15549902.5104
  16489817.785   -37112164.68149 -28900059.52549  16489822.0194   16489830.7994
  18685891.692   -18305416.63949 -14245201.26149  18685893.5964   18685903.3084
  19077554.480   -10363696.24549  -8050166.57149  19077559.8594   19077569.7624
  17696546.150   -39720573.78649 -30934822.25349  17696549.3804   17696558.8734
  15292443.225   -50227547.46649 -39129126.32649  15292447.6144   15292454.7854
  19616248.038    -7698045.10949  -5964038.57049  19616254.7594   19616265.7324
  17160881.721   -33517419.90949 -26091783.59949  17160884.6404   17160893.8124
 95  2  5 19 54 29.9820000  0  8 18 19 28 31 22 29 27 14
  15527180.403   -41993049.28149 -32698881.83849  15527183.7194   15527191.5694
  16467367.937   -37230140.26049 -28991988.51949  16467371.8054   16467380.7544
  18661766.523   -18432189.47349 -14343985.27049  18661769.9374   18661779.2814
  19047630.273   -10520950.88849  -8172702.56149  19047635.7774   19047644.6724
  17700528.186   -39699658.59349 -30918524.72349  17700529.3794   17700539.0044
  15280087.914   -50292479.46549 -39179722.69349  15280091.4504   15280098.6614
  19587848.034    -7847264.54249  -6080313.45549  19587858.8314   19587870.6004
  17166463.077   -33488081.78249 -26068922.78849  17166467.3784   17166476.4204
 95  2  5 19 54 59.9820000  0  8 18 19 28 31 22 29 27 14
  15504516.081   -42112151.08649 -32791688.42749  15504519.3484   15504527.1574
  16444947.218   -37347960.63249 -29083796.57549  16444951.3464   16444960.2494
  18637691.523   -18558711.67849 -14442573.97549  18637693.4304   18637702.4494
  19017695.759   -10678255.87049  -8295277.81749  19017700.3104   19017711.1864
  17704556.517   -39678480.77549 -30902022.54949  17704559.3374   17704568.9574
  15267790.943   -50357094.57649 -39230072.13449  15267795.4244   15267802.7204
  19559467.813    -7996458.70849  -6196568.65849  19559468.5604   19559480.1234
  17172083.230   -33458551.16649 -26045911.98649  17172087.0734   17172096.1924
 95  2  5 19 55 29.9820000  0  8 18 19 28 31 22 29 27 14
  15481901.300   -42230989.13749 -32884289.49549  15481905.1254   15481912.8884
  16422560.633   -37465603.47749 -29175466.29949  16422564.4484   16422573.4144
  18613667.726   -18684957.33649 -14540947.19849  18613669.9594   18613679.4004
  18987764.563   -10835569.15449  -8417859.54649  18987764.7354   18987775.4024
  17708636.828   -39657039.10449 -30885314.77549  17708639.6724   17708649.3634
  15255565.146   -50421344.49149 -39280137.00849  15255569.2094   15255576.4694
  19531080.235    -8145594.73349  -6312778.55249  19531088.8264   19531100.4744
  17177748.182   -33428786.36149 -26022718.69849  17177751.2114   17177760.5294
 95  2  5 19 55 59.9820000  0  8 18 19 28 31 22 29 27 14
  15459339.064   -42349556.84649 -32976679.90749  15459342.4784   15459350.2494
  16400211.384   -37583045.89049 -29266979.84349  16400216.0594   16400225.0784
  18589699.136   -18810906.55449 -14639089.41949  18589702.5074   18589711.4384
  18957833.556   -10992865.53249  -8540428.13049  18957833.2554   18957842.8274
  17712765.734   -39635331.55849 -30868399.82849  17712770.2324   17712780.1714
  15243413.988   -50485199.46849 -39329894.13649  15243418.0204   15243425.3324
  19502720.422    -8294642.33149  -6428919.52849  19502725.9864   19502737.6044
  17183458.097   -33398773.47749 -25999332.10949  17183462.2684   17183471.5534
 95  2  5 19 56 29.9820000  0  8 18 19 28 31 22 29 27 14
  15436829.733   -42467841.23849 -33068849.55049  15436833.4904   15436841.4114
  16377905.179   -37700267.14749 -29358321.05849  16377909.5264   16377918.4084
  18565793.926   -18936540.43549 -14736985.93249  18565794.8054   18565804.1134
  18927905.701   -11150122.51549  -8662965.97549  18927907.3754   18927917.9934
  17716948.716   -39613365.61149 -30851283.53249  17716950.2654   17716960.1074
  15231339.763   -50548652.32249 -39379337.92449  15231343.3244   15231350.6294
  19474377.675    -8443587.15849  -6544980.42549  19474382.3964   19474394.1014
  17189217.866   -33368507.23849 -25975748.09849  17189221.7694   17189231.1994
 95  2  5 19 56 59.9820000  0  8 18 19 28 31 22 29 27 14
  15414374.921   -42585842.08749 -33160798.25049  15414378.7284   15414386.6724
  16355638.747   -37817279.37649 -29449499.39549  16355642.7644   16355651.6774
  18541944.851   -19061863.45049 -14834640.19649  18541946.9874   18541956.1244
  18897985.870   -11307340.63349  -8785473.57049  18897988.3394   18897999.8854
  17721169.812   -39591177.76249 -30833994.32249  17721172.3614   17721182.3374
  15219334.959   -50611738.91049 -39428496.31149  15219338.4434   15219345.6774
  19446056.029    -8592435.06849  -6660965.78749  19446057.6304   19446069.4354
  17195024.681   -33337997.39649 -25951974.26649  17195027.6374   17195037.1044
 95  2  5 19 57 29.9820000  0  8 18 19 28 31 22 29 27 14
  15391977.348   -42703545.99049 -33252515.56749  15391980.4364   15391988.3864
  16333412.243   -37934082.09549 -29540514.48149  16333416.1104   16333425.0964
  18518153.636   -19186871.16649 -14932048.78249  18518158.7014   18518168.2394
  18868074.153   -11464528.08049  -8907957.25849  18868078.3344   18868087.5584
  17725436.933   -39568760.00349 -30816525.96749  17725438.5824   17725448.2264
  15207400.050   -50674457.26649 -39477367.76349  15207403.5434   15207410.7554
  19417743.954    -8741193.33049  -6776881.29149  19417749.8994   19417761.3664
  17200877.143   -33307239.39649 -25928007.06749  17200880.6454   17200890.0664
 95  2  5 19 57 59.9820000  0  8 18 19 28 31 22 29 27 14
  15369634.967   -42820957.43249 -33344004.99649  15369637.9014   15369645.7584
  16311221.482   -38050695.73249 -29631382.23049  16311225.2034   16311234.0804
  18494426.043   -19311570.21149 -15029216.84149  18494429.1614   18494438.4824
  18838167.001   -11621701.05049  -9030429.64149  18838168.9814   18838179.6344
  17729749.170   -39546092.81149 -30798863.24949  17729751.7104   17729761.6334
  15195530.597   -50736830.22749 -39525970.08049  15195534.2024   15195541.4884
  19389453.540    -8889875.60349  -6892737.57249  19389456.1174   19389468.3304
  17206772.835   -33276260.11749 -25903867.44449  17206775.9044   17206785.2264
 95  2  5 19 58 29.9820000  0  8 18 19 28 31 22 29 27 14
  15347349.193   -42938071.50849 -33435262.70749  15347351.7934   15347359.6254
  16289065.483   -38167126.58349 -29722107.54549  16289068.9874   16289077.9004
  18470753.769   -19435958.15249 -15126142.46949  18470759.0294   18470768.6614
  18808258.903   -11778849.02449  -9152882.59149  18808263.8764   18808274.7684
  17734110.181   -39523172.55049 -30781003.33249  17734113.5434   17734123.3124
  15183726.333   -50798859.92949 -39574304.91849  15183730.5054   15183737.8724
  19361173.264    -9038483.50149  -7008535.89049  19361177.5864   19361188.9684
  17212710.206   -33245056.58049 -25879553.07349  17212713.9544   17212723.2304
 95  2  5 19 58 59.9820000  0  8 18 19 28 31 22 29 27 14
  15325116.210   -43054903.07049 -33526300.27549  15325119.5884   15325127.3944
  16266941.242   -38283389.36949 -29812701.90149  16266945.0424   16266953.6904
  18447140.155   -19560049.15449 -15222836.71549  18447145.0704   18447154.7004
  18778358.642   -11935981.16249  -9275323.21349  18778361.8254   18778373.8524
  17738520.866   -39499995.89449 -30762943.63549  17738523.9894   17738533.6434
  15171986.395   -50860553.78649 -39622378.06149  15171990.4674   15171997.8134
  19332906.679    -9187047.04249  -7124299.63649  19332907.0734   19332917.9214
  17218686.184   -33213648.53149 -25855079.34349  17218690.7154   17218699.9064
 95  2  5 19 59 29.9820000  0  8 18 19 28 31 22 29 27 14
  15302932.602   -43171479.62049 -33617139.13449  15302935.7524   15302943.5364
  16244844.986   -38399509.94549 -29903185.44449  16244847.9164   16244856.6654
  18423579.831   -19683866.54349 -15319317.75449  18423583.4714   18423592.8964
  18748455.398   -12093130.44949  -9397777.19149  18748459.1544   18748469.6584
  17742977.855   -39476573.55049 -30744692.49249  17742981.4604   17742990.7064
  15160309.551   -50921916.85049 -39670193.44349  15160313.5154   15160320.8104
  19304636.374    -9335609.19449  -7240062.28549  19304635.9794   19304647.6374
  17224699.076   -33182055.97549 -25830461.84149  17224702.5594   17224711.8874
 95  2  5 19 59 59.9820000  0  8 18 19 28 31 22 29 27 14
  15280794.655   -43287813.11549 -33707788.59849  15280798.2484   15280806.0894
  16222775.421   -38515482.87349 -29993553.93349  16222779.0094   16222787.9114
  18400068.928   -19807416.86149 -15415590.67549  18400072.3904   18400082.1254
  18718546.858   -12250291.56449  -9520240.30349  18718551.9814   18718561.9274
  17747476.631   -39452928.83149 -30726268.07149  17747480.7034   17747490.3744
  15148691.821   -50982969.69749 -39717767.09749  15148695.6184   15148702.8334
  19276354.847    -9484178.97049  -7355830.87649  19276364.0674   19276375.1704
  17230744.046   -33150291.56649 -25805710.43349  17230747.0514   17230756.5274
 95  2  5 20  0 29.9820000  0  8 18 19 28 31 22 29 27 14
  15258705.565   -43403893.79949 -33798241.06649  15258708.5224   15258716.5284
  16200740.213   -38631280.13149 -30083785.53849  16200743.4734   16200752.3904
  18376611.882   -19930684.16849 -15511643.07549  18376615.1194   18376625.4504
  18688641.462   -12407452.12949  -9642703.04449  18688644.4534   18688656.0584
  17752018.988   -39429068.22049 -30707675.42549  17752021.5224   17752030.6184
  15137133.788   -51043704.19849 -39765092.68849  15137138.1694   15137145.3794
  19248087.602    -9632748.83349  -7471599.54549  19248091.9284   19248102.5764
  17236824.683   -33118331.96249 -25780806.92249  17236828.9264   17236838.1834
 95  2  5 20  0 59.9820000  0  8 18 19 28 31 22 29 27 14
  15236670.895   -43519685.88549 -33888468.65249  15236674.1824   15236682.0924
  16178742.565   -38746871.95249 -30173857.05849  16178747.2224   16178755.9514
  18353210.166   -20053646.59749 -15607457.91149  18353216.3744   18353226.1644
  18658736.196   -12564607.59849  -9765161.81449  18658738.7484   18658749.4264
  17756604.258   -39404973.00149 -30688899.96449  17756606.5244   17756615.7184
  15125640.279   -51104105.46449 -39812158.61549  15125644.1704   15125651.4434
  19219821.027    -9781310.12849  -7587361.53849  19219821.7084   19219832.8734
  17242946.281   -33086164.22449 -25755741.23249  17242950.3514   17242959.7384
 95  2  5 20  1 29.9820000  0  8 18 19 28 31 22 29 27 14
  15214691.567   -43635190.50849 -33978472.24249  15214694.3794   15214702.3234
  16156783.367   -38862270.60649 -30263778.05849  16156787.4184   16156796.2234
  18329867.602   -20176313.67349 -15703042.59949  18329873.3484   18329883.2414
  18628829.234   -12721766.86849  -9887623.51949  18628832.5964   18628842.9684
  17761228.551   -39380667.97549 -30669961.01649  17761231.7404   17761240.9474
  15114205.293   -51164195.27249 -39858981.84949  15114209.5224   15114216.7844
  19191545.854    -9929861.66149  -7703115.92749  19191553.4414   19191564.5824
  17249103.881   -33053807.74549 -25730528.47049  17249107.6744   17249117.0264
 95  2  5 20  1 59.9820000  0  8 18 19 28 31 22 29 27 14
  15192763.032   -43750422.67449 -34068263.52749  15192766.4054   15192774.3114
  16134857.255   -38977491.44449 -30353560.49949  16134861.7154   16134870.4934
  18306581.940   -20298696.02149 -15798405.41449  18306584.6384   18306594.3294
  18598923.329   -12878930.77049 -10010088.83049  18598925.6624   18598936.0104
  17765889.135   -39356182.58549 -30650881.52849  17765891.4724   17765900.3734
  15102827.810   -51223986.14449 -39905572.14349  15102831.6384   15102838.8664
  19163284.306   -10078395.90649  -7818856.86349  19163288.0724   19163298.9554
  17255291.965   -33021289.07549 -25705189.32449  17255295.7674   17255305.1644
 95  2  5 20  2 29.9820000  0  8 18 19 28 31 22 29 27 14
  15170887.291   -43865383.18349 -34157843.13449  15170890.1494   15170898.0434
  16112960.910   -39092560.09449 -30443224.34849  16112964.7754   16112973.4934
  18283346.846   -20420797.77949 -15893549.59749  18283349.5374   18283359.5524
  18569013.057   -13036103.73349 -10132561.19549  18569016.4594   18569026.1224
  17770580.654   -39331520.90349 -30631664.67049  17770584.3894   17770593.1864
  15091508.654   -51283469.13749 -39951922.53249  15091512.4164   15091519.6284
  19135019.833   -10226918.85049  -7934588.98249  19135024.8794   19135036.7644
  17261507.391   -32988624.82549 -25679736.74349  17261511.7784   17261520.9014
 95  2  5 20  2 59.9810000  0  8 18 19 28 31 22 29 27 14
  15149063.559   -43980066.63949 -34247206.85049  15149066.6464   15149074.5374
  16091089.915   -39207493.67549 -30532782.95149  16091093.6834   16091102.3624
  18260163.788   -20542622.46549 -15988477.87749  18260166.8754   18260176.7254
  18539103.658   -13193282.30249 -10255037.94249  18539106.0574   18539116.6134
  17775306.723   -39306691.46049 -30612317.07949  17775309.2394   17775318.0374
  15080249.289   -51342638.55349 -39998028.57449  15080252.8614   15080260.1084
  19106766.258   -10375434.15749  -8050315.16149  19106763.9994   19106774.4704
  17267748.985   -32955837.12349 -25654187.95949  17267751.1724   17267760.4734
 95  2  5 20  3 29.9810000  0  8 18 19 28 31 22 29 27 14
  15127286.587   -44094503.55749 -34336378.46049  15127290.0494   15127297.8774
  16069240.696   -39322311.98149 -30622251.73149  16069244.5044   16069253.0624
  18237038.005   -20664173.74449 -16083193.11849  18237036.7514   18237046.3754
  18509190.912   -13350461.97549 -10377515.53849  18509196.0264   18509205.2564
  17780061.522   -39281698.76949 -30592842.29149  17780065.3604   17780074.2804
  15069049.370   -51401493.59849 -40043889.65549  15069053.2314   15069060.3274
  19078502.956   -10523931.16649  -8166027.09049  19078505.9244   19078516.5524
  17274010.593   -32922923.67949 -25628541.19849  17274014.4524   17274023.7294
 95  2  5 20  3 59.9810000  0  8 18 19 28 31 22 29 27 14
  15105558.264   -44208687.46949 -34425352.92249  15105561.4094   15105569.3484
  16047417.115   -39436994.56549 -30711614.75249  16047420.8744   16047429.5884
  18213958.401   -20785434.33449 -16177681.84949  18213961.5144   18213971.2364
  18479285.480   -13507626.84649 -10499981.58649  18479288.6284   18479298.2734
  17784853.348   -39256527.50849 -30573228.35649  17784855.1984   17784864.0424
  15057915.563   -51460008.03049 -40089485.31949  15057918.3394   15057925.4504
  19050245.629   -10672392.80249  -8281711.45349  19050254.1754   19050265.6264
  17280298.310   -32889873.42849 -25602787.83549  17280303.7124   17280313.1704
 95  2  5 20  4 29.9810000  0  8 18 19 28 31 22 29 27 14
  15083880.362   -44322606.70649 -34514121.14549  15083883.3604   15083891.2624
  16025621.610   -39551530.13349 -30800863.21849  16025625.4704   16025634.2114
  18190940.477   -20906400.51049 -16271941.16849  18190942.4134   18190951.7464
  18449381.346   -13664776.03349 -10622435.42549  18449384.4464   18449393.6454
  17789680.818   -39231155.86349 -30553458.27449  17789683.1894   17789692.1804
  15046843.858   -51518182.96349 -40134816.44349  15046847.9094   15046855.1964
  19022006.874   -10820819.07849  -8397368.26549  19022008.8914   19022020.3454
  17286615.665   -32856687.16449 -25576928.48849  17286618.7534   17286628.3454
 95  2  5 20  4 59.9810000  0  8 18 19 28 31 22 29 27 14
  15062259.751   -44436221.39849 -34602652.06149  15062263.2464   15062271.1164
  16003864.636   -39665863.67649 -30889954.26349  16003868.4944   16003877.2504
  18167985.386   -21027025.78349 -16365934.85449  18167988.3144   18167997.3974
  18419488.587   -13821864.66749 -10744842.07849  18419490.8454   18419500.4334
  17794553.962   -39205544.07849 -30533501.06949  17794556.8614   17794565.9564
  15035844.879   -51575982.16049 -40179854.78549  15035849.0954   15035856.3114
  18993777.520   -10969157.57049  -8512956.68249  18993782.0324   18993792.9904
  17292964.266   -32823322.50549 -25550930.13049  17292967.8844   17292977.4844
 95  2  5 20  5 29.9810000  0  8 18 19 28 31 22 29 27 14
  15040698.454   -44549528.90249 -34690943.61349  15040701.6054   15040709.4534
  15982146.953   -39779986.59949 -30978881.19249  15982151.5604   15982160.3324
  18145095.149   -21147303.53649 -16459657.74049  18145099.8864   18145109.3704
  18389609.238   -13978888.60949 -10867198.33949  18389609.9634   18389620.0124
  17799471.743   -39179698.43649 -30513361.64349  17799475.3624   17799484.2454
  15024917.522   -51633407.20149 -40224601.57549  15024921.3924   15024928.6964
  18965570.620   -11117402.92749  -8628472.51249  18965571.4724   18965582.9754
  17299346.101   -32789785.42949 -25524797.42649  17299349.7984   17299359.6324
 95  2  5 20  5 59.9810000  0  8 18 19 28 31 22 29 27 14
  15019200.495   -44662500.89249 -34778973.72649  15019203.7914   15019211.6224
  15960472.401   -39893890.94949 -31067637.80249  15960476.4734   15960485.1214
  18122278.026   -21267225.30449 -16553103.24649  18122279.6374   18122288.7484
  18359738.648   -14135846.86849 -10989503.41649  18359741.4604   18359752.1324
  17804436.209   -39153610.06949 -30493033.07549  17804439.7144   17804448.7154
  15014061.933   -51690455.35749 -40269054.68649  15014065.4484   15014072.8664
  18937380.943   -11265563.94349  -8743922.60349  18937377.1704   18937388.7564
  17305760.462   -32756080.28549 -25498533.75849  17305763.7344   17305773.7374
 95  2  5 20  6 29.9810000  0  8 18 19 28 31 22 29 27 14
  14997770.682   -44775115.98349 -34866725.73449  14997773.8404   14997781.6564
  15938838.958   -40007576.09849 -31156223.60949  15938843.0454   15938851.6474
  18099527.513   -21386774.04449 -16646258.07349  18099530.2694   18099539.5724
  18329884.143   -14292722.62049 -11111744.19749  18329889.5044   18329899.0044
  17809446.034   -39127284.22049 -30472519.46249  17809449.3964   17809458.6104
  15003278.215   -51747120.21049 -40313209.12249  15003282.5334   15003289.8704
  18909196.986   -11413633.03849  -8859301.07249  18909201.4034   18909211.8944
  17312210.806   -32722183.08049 -25472120.42949  17312214.1574   17312224.0484
 95  2  5 20  6 59.9810000  0  8 18 19 28 31 22 29 27 14
  14976407.929   -44887376.50849 -34954201.45549  14976411.2864   14976419.1694
  15917245.905   -40121048.42049 -31244643.57649  15917249.8054   15917258.4984
  18076849.093   -21505941.75149 -16739115.99549  18076853.3184   18076862.7354
  18300052.092   -14449510.07049 -11233916.17949  18300053.4824   18300063.4864
  17814495.763   -39100744.89949 -30451839.49549  17814499.6854   17814509.2454
  14992570.978   -51803389.78249 -40357055.54849  14992574.8694   14992582.1164
  18881036.887   -11561619.22549  -8974614.92249  18881040.0604   18881050.9124
  17318701.573   -32688071.76149 -25445540.26449  17318705.4294   17318715.2454
 95  2  5 20  7 29.9810000  0  8 18 19 28 31 22 29 27 14
  14955114.112   -44999275.46949 -35041395.43949  14955117.4884   14955125.3274
  15895695.304   -40234300.35149 -31332891.81249  15895698.5804   15895707.2954
  18054248.527   -21624719.19549 -16831669.82149  18054250.9964   18054260.2484
  18270234.366   -14606197.87449 -11356010.53149  18270237.1564   18270247.2804
  17819587.516   -39073989.16749 -30430990.91049  17819591.2264   17819600.5414
  14981941.566   -51859246.82849 -40400580.52549  14981945.6374   14981952.8704
  18852894.202   -11709512.34649  -9089856.25949  18852897.2264   18852907.8654
  17325236.340   -32653729.81449 -25418780.38649  17325240.6624   17325250.1914
 95  2  5 20  7 59.9810000  0  8 18 19 28 31 22 29 27 14
  14933889.152   -45110814.67849 -35128309.09749  14933892.5494   14933900.4304
  15874185.295   -40347333.58449 -31420969.64049  15874189.1894   15874197.9844
  18031716.520   -21743101.34749 -16923915.63349  18031723.3204   18031732.8234
  18240437.249   -14762769.54949 -11478014.38349  18240442.3614   18240451.8024
  17824721.075   -39047009.06749 -30409967.48949  17824725.3594   17824734.9474
  14971392.402   -51914685.62749 -40443779.59749  14971395.8534   14971403.1904
  18824769.274   -11857304.37349  -9205018.80649  18824773.0254   18824784.2404
  17331817.179   -32619136.80449 -25391824.87649  17331823.4084   17331833.2094
 95  2  5 20  8 29.9810000  0  8 18 19 28 31 22 29 27 14
  14912734.411   -45221985.26549 -35214935.51749  14912737.5514   14912745.4084
  15852718.872   -40460141.45349 -31508871.85949  15852722.4194   15852731.2994
  18009271.837   -21861080.56049 -17015847.45749  18009272.9024   18009282.3224
  18210670.662   -14919199.65649 -11599907.89749  18210674.9374   18210684.3454
  17829900.468   -39019802.72749 -30388767.78049  17829902.6544   17829911.9854
  14960923.442   -51969699.84649 -40486647.82949  14960927.1224   14960934.4524
  18796660.868   -12004994.16249  -9320101.68649  18796668.1514   18796679.8394
  17338451.794   -32584288.54549 -25364670.47249  17338455.0104   17338464.6874
 95  2  5 20  8 59.9810000  0  8 18 19 28 31 22 29 27 14
  14891650.379   -45332782.47349 -35301270.99449  14891653.5064   14891661.3094
  15831295.117   -40572718.95349 -31596594.57049  15831299.6524   15831308.4574
  17986896.760   -21978654.93349 -17107463.82849  17986898.7764   17986908.6744
  18180933.598   -15075476.11149 -11721681.71249  18180936.4094   18180946.0754
  17835121.413   -38992358.78849 -30367382.92949  17835124.8914   17835134.2334
  14950533.798   -52024293.75449 -40529188.54249  14950538.1624   14950545.5264
  18768580.525   -12152575.29949  -9435099.89849  18768584.2344   18768595.7644
  17345126.561   -32549215.58349 -25337340.97749  17345129.3504   17345138.9404
 95  2  5 20  9 29.9810000  0  8 18 19 28 31 22 29 27 14
  14870638.519   -45443201.16549 -35387311.52049  14870641.4264   14870649.2634
  15809915.979   -40685068.76749 -31684139.86349  15809920.1794   15809928.9564
  17964598.783   -22095826.35749 -17198766.20749  17964601.9274   17964611.7244
  18151225.098   -15231589.37749 -11843328.36549  18151229.5384   18151238.5434
  17840392.039   -38964672.70049 -30345809.38849  17840393.4304   17840402.9144
  14940221.548   -52078486.67549 -40571416.79849  14940225.5024   14940232.8574
  18740519.115   -12300044.95149  -9550011.24049  18740522.1514   18740533.3534
  17351835.405   -32513948.54349 -25309860.25349  17351840.3454   17351850.1534
